[[{"header":{"parameterUnit":"m.s-1","parameterCategory":1,"la1":30.6,"la2":28.766,"lo1":-90.7593,"lo2":-88.6598,"dy":0.0162,"dx":0.0183,"nx":116,"ny":114,"refTime":"2023-09-16T00:00:00:Z","depth":0,"parameterNumber":2,"parameterNumberName":"U-component_of_WINDS"},"data":[0.0,0.0,0.0,0.0,0.0,0.0,0.0,0.0,0.0,0.0,0.0,0.0,0.0,0.0,0.0,0.0,0.0,0.0,0.0,0.0,0.0,0.0,0.0,0.0,0.0,0.0,0.0,0.0,0.0,0.0,0.0,0.0,0.0,0.0,0.0,0.0,0.0,0.0,0.0,0.0,0.0,0.0,0.0,0.0,0.0,0.0,0.0,0.0,0.0,0.0,0.0,0.0,0.0,0.0,0.0,0.0,0.0,0.0,0.0,0.0,0.0,0.0,0.0,0.0,0.0,0.0,0.0,0.0,0.0,0.0,0.0,0.0,0.0,0.0,0.0,0.0,0.0,0.0,0.0,0.0,0.0,0.0,0.0,0.0,0.0,0.0,0.0,0.0,0.0,0.0,0.0,0.0,0.0,0.0,0.0,0.0,0.0,0.0,0.0,0.0,0.0,0.0,0.0,0.0,0.0,0.0,0.0,0.0,0.0,0.0,0.0,0.0,0.0,0.0,0.0,0.0,0.0,0.0,0.0,0.0,0.0,0.0,0.0,0.0,0.0,0.0,0.0,0.0,0.0,0.0,0.0,0.0,0.0,0.0,0.0,0.0,0.0,0.0,0.0,0.0,0.0,0.0,0.0,0.0,0.0,0.0,0.0,0.0,0.0,0.0,0.0,0.0,0.0,0.0,0.0,0.0,0.0,0.0,0.0,0.0,0.0,0.0,0.0,0.0,0.0,0.0,0.0,0.0,0.0,0.0,0.0,0.0,0.0,0.0,0.0,0.0,0.0,0.0,0.0,0.0,0.0,0.0,0.0,0.0,0.0,0.0,0.0,0.0,0.0,0.0,0.0,0.0,0.0,0.0,0.0,0.0,0.0,0.0,0.0,0.0,0.0,0.0,0.0,0.0,0.0,0.0,0.0,0.0,0.0,0.0,0.0,0.0,0.0,0.0,0.0,0.0,0.0,0.0,0.0,0.0,0.0,0.0,0.0,0.0,0.0,0.0,0.0,0.0,0.0,0.0,0.0,0.0,0.0,0.0,0.0,0.0,0.0,0.0,0.0,0.0,0.0,0.0,0.0,0.0,0.0,0.0,0.0,0.0,0.0,0.0,0.0,0.0,0.0,0.0,0.0,0.0,0.0,0.0,0.0,0.0,0.0,0.0,0.0,0.0,0.0,0.0,0.0,0.0,0.0,0.0,0.0,0.0,0.0,0.0,0.0,0.0,0.0,0.0,0.0,0.0,0.0,0.0,0.0,0.0,0.0,0.0,0.0,0.0,0.0,0.0,0.0,0.0,0.0,0.0,0.0,0.0,0.0,0.0,0.0,0.0,0.0,0.0,0.0,0.0,0.0,0.0,0.0,0.0,0.0,0.0,0.0,0.0,0.0,0.0,0.0,0.0,0.0,0.0,0.0,0.0,0.0,0.0,0.0,0.0,0.0,0.0,0.0,0.0,0.0,0.0,0.0,0.0,0.0,0.0,0.0,0.0,0.0,0.0,0.0,0.0,0.0,0.0,0.0,0.0,0.0,0.0,0.0,0.0,0.0,0.0,0.0,0.0,0.0,0.0,0.0,0.0,0.0,0.0,0.0,0.0,0.0,0.0,0.0,0.0,0.0,0.0,0.0,0.0,0.0,0.0,0.0,0.0,0.0,0.0,0.0,0.0,0.0,0.0,0.0,0.0,0.0,0.0,0.0,0.0,0.0,0.0,0.0,0.0,0.0,0.0,0.0,0.0,0.0,0.0,0.0,0.0,0.0,0.0,0.0,0.0,0.0,0.0,0.0,0.0,0.0,0.0,0.0,0.0,0.0,0.0,0.0,0.0,0.0,0.0,0.0,0.0,0.0,0.0,0.0,0.0,0.0,0.0,0.0,0.0,0.0,0.0,0.0,0.0,0.0,0.0,0.0,0.0,0.0,0.0,0.0,0.0,0.0,0.0,0.0,0.0,0.0,0.0,0.0,0.0,0.0,0.0,0.0,0.0,0.0,0.0,0.0,0.0,0.0,0.0,0.0,0.0,0.0,0.0,0.0,0.0,0.0,0.0,0.0,0.0,0.0,0.0,0.0,0.0,0.0,0.0,0.0,0.0,0.0,0.0,0.0,0.0,0.0,0.0,0.0,0.0,0.0,0.0,0.0,0.0,0.0,0.0,0.0,0.0,0.0,0.0,0.0,0.0,0.0,0.0,0.0,0.0,0.0,0.0,0.0,0.0,0.0,0.0,0.0,0.0,0.0,0.0,0.0,0.0,0.0,0.0,0.0,0.0,0.0,0.0,0.0,0.0,0.0,0.0,0.0,0.0,0.0,0.0,0.0,0.0,0.0,0.0,0.0,0.0,0.0,0.0,0.0,0.0,0.0,0.0,0.0,0.0,0.0,0.0,0.0,0.0,0.0,0.0,0.0,0.0,0.0,0.0,0.0,0.0,0.0,0.0,0.0,0.0,0.0,0.0,0.0,0.0,0.0,0.0,0.0,0.0,0.0,0.0,0.0,0.0,0.0,0.0,0.0,0.0,0.0,0.0,0.0,0.0,0.0,0.0,0.0,0.0,0.0,0.0,0.0,0.0,0.0,0.0,0.0,0.0,0.0,0.0,0.0,0.0,0.0,0.0,0.0,0.0,0.0,0.0,0.0,0.0,0.0,0.0,0.0,0.0,0.0,0.0,0.0,0.0,0.0,0.0,0.0,0.0,0.0,0.0,0.0,0.0,0.0,0.0,0.0,0.0,0.0,0.0,0.0,0.0,0.0,0.0,0.0,0.0,0.0,0.0,0.0,0.0,0.0,0.0,0.0,0.0,0.0,0.0,0.0,0.0,0.0,0.0,0.0,0.0,0.0,0.0,0.0,0.0,0.0,0.0,0.0,0.0,0.0,0.0,0.0,0.0,0.0,0.0,0.0,0.0,0.0,0.0,0.0,0.0,0.0,0.0,0.0,0.0,0.0,0.0,0.0,0.0,0.0,0.0,0.0,0.0,0.0,0.0,0.0,0.0,0.0,0.0,0.0,0.0,0.0,0.0,0.0,0.0,0.0,0.0,0.0,0.0,0.0,0.0,0.0,0.0,0.0,0.0,0.0,0.0,0.0,0.0,0.0,0.0,0.0,0.0,0.0,0.0,0.0,0.0,0.0,0.0,0.0,0.0,0.0,0.0,0.0,0.0,0.0,0.0,0.0,0.0,0.0,0.0,0.0,0.0,0.0,0.0,0.0,0.0,0.0,0.0,0.0,0.0,0.0,0.0,0.0,0.0,0.0,0.0,0.0,0.0,0.0,0.0,0.0,0.0,0.0,0.0,0.0,0.0,0.0,0.0,0.0,0.0,0.0,0.0,0.0,0.0,0.0,0.0,0.0,0.0,0.0,0.0,0.0,0.0,0.0,0.0,0.0,0.0,0.0,0.0,0.0,0.0,0.0,0.0,0.0,0.0,0.0,0.0,0.0,0.0,0.0,0.0,0.0,0.0,0.0,0.0,0.0,0.0,0.0,0.0,0.0,0.0,0.0,0.0,0.0,0.0,0.0,0.0,0.0,0.0,0.0,0.0,0.0,0.0,0.0,0.0,0.0,0.0,0.0,0.0,0.0,0.0,0.0,0.0,0.0,0.0,0.0,0.0,0.0,0.0,0.0,0.0,0.0,0.0,0.0,0.0,0.0,0.0,0.0,0.0,0.0,0.0,0.0,0.0,0.0,0.0,0.0,0.0,0.0,0.0,0.0,0.0,0.0,0.0,0.0,0.0,0.0,0.0,0.0,0.0,0.0,0.0,0.0,0.0,0.0,0.0,0.0,0.0,0.0,0.0,0.0,0.0,0.0,0.0,0.0,0.0,0.0,0.0,0.0,0.0,0.0,0.0,0.0,0.0,0.0,0.0,0.0,0.0,0.0,0.0,0.0,0.0,0.0,0.0,0.0,0.0,0.0,0.0,0.0,0.0,0.0,0.0,0.0,0.0,0.0,0.0,0.0,0.0,0.0,0.0,0.0,0.0,0.0,0.0,0.0,0.0,0.0,0.0,0.0,0.0,0.0,0.0,0.0,0.0,0.0,0.0,0.0,0.0,0.0,0.0,0.0,0.0,0.0,0.0,0.0,0.0,0.0,0.0,0.0,0.0,0.0,0.0,0.0,0.0,0.0,0.0,0.0,0.0,0.0,0.0,0.0,0.0,0.0,0.0,0.0,0.0,0.0,0.0,0.0,0.0,0.0,0.0,0.0,0.0,0.0,0.0,0.0,0.0,0.0,0.0,0.0,0.0,0.0,0.0,0.0,0.0,0.0,0.0,0.0,0.0,0.0,0.0,0.0,0.0,0.0,0.0,0.0,0.0,0.0,0.0,0.0,0.0,0.0,0.0,0.0,0.0,0.0,0.0,0.0,0.0,0.0,0.0,0.0,0.0,0.0,0.0,0.0,0.0,0.0,0.0,0.0,0.0,0.0,0.0,0.0,0.0,0.0,0.0,0.0,0.0,0.0,0.0,0.0,0.0,0.0,0.0,0.0,0.0,0.0,0.0,0.0,0.0,0.0,0.0,0.0,0.0,0.0,0.0,0.0,0.0,0.0,0.0,0.0,0.0,0.0,0.0,0.0,0.0,0.0,0.0,0.0,0.0,0.0,0.0,0.0,0.0,0.0,0.0,0.0,0.0,0.0,0.0,0.0,0.0,0.0,0.0,0.0,0.0,0.0,0.0,0.0,0.0,0.0,0.0,0.0,0.0,0.0,0.0,0.0,0.0,0.0,0.0,0.0,0.0,0.0,0.0,0.0,0.0,0.0,0.0,0.0,0.0,0.0,0.0,0.0,0.0,0.0,0.0,0.0,0.0,0.0,0.0,0.0,0.0,0.0,0.0,0.0,0.0,0.0,0.0,0.0,0.0,0.0,0.0,0.0,0.0,0.0,0.0,0.0,0.0,0.0,0.0,0.0,0.0,0.0,0.0,0.0,0.0,0.0,0.0,0.0,0.0,0.0,0.0,0.0,0.0,0.0,0.0,0.0,0.0,0.0,0.0,0.0,0.0,0.0,0.0,0.0,0.0,0.0,0.0,0.0,0.0,0.0,0.0,0.0,0.0,0.0,0.0,0.0,0.0,0.0,0.0,0.0,0.0,0.0,0.0,0.0,0.0,0.0,0.0,0.0,0.0,0.0,0.0,0.0,0.0,0.0,0.0,0.0,0.0,0.0,0.0,0.0,0.0,0.0,0.0,0.0,0.0,0.0,0.0,0.0,0.0,0.0,0.0,0.0,0.0,0.0,0.0,0.0,0.0,0.0,0.0,0.0,0.0,0.0,0.0,0.0,0.0,0.0,0.0,0.0,0.0,0.0,0.0,0.0,0.0,0.0,0.0,0.0,0.0,0.0,0.0,0.0,0.0,0.0,0.0,0.0,0.0,0.0,0.0,0.0,0.0,0.0,0.0,0.0,0.0,0.0,0.0,0.0,0.0,0.0,0.0,0.0,0.0,0.0,0.0,0.0,0.0,0.0,0.0,0.0,0.0,0.0,0.0,0.0,0.0,0.0,0.0,0.0,0.0,0.0,0.0,0.0,0.0,0.0,0.0,0.0,0.0,0.0,0.0,0.0,0.0,0.0,0.0,0.0,0.0,0.0,0.0,0.0,0.0,0.0,0.0,0.0,0.0,0.0,0.0,0.0,0.0,0.0,0.0,0.0,0.0,0.0,0.0,0.0,0.0,0.0,0.0,0.0,0.0,0.0,0.0,0.0,0.0,0.0,0.0,0.0,0.0,0.0,0.0,0.0,0.0,0.0,0.0,0.0,0.0,0.0,0.0,0.0,0.0,0.0,0.0,0.0,0.0,0.0,0.0,0.0,0.0,0.0,0.0,0.0,0.0,0.0,0.0,0.0,0.0,0.0,0.0,0.0,0.0,0.0,0.0,0.0,0.0,0.0,0.0,0.0,0.0,0.0,0.0,0.0,0.0,0.0,0.0,0.0,0.0,0.0,0.0,0.0,0.0,0.0,0.0,0.0,0.0,0.0,0.0,0.0,0.0,0.0,0.0,0.0,0.0,0.0,0.0,0.0,0.0,0.0,0.0,0.0,0.0,0.0,0.0,0.0,0.0,0.0,0.0,0.0,0.0,0.0,0.0,0.0,0.0,3.0195,0.0,0.0,0.0,0.0,0.0,0.0,0.0,0.0,0.0,0.0,0.0,0.0,0.0,0.0,0.0,0.0,0.0,0.0,0.0,0.0,0.0,0.0,0.0,0.0,0.0,0.0,0.0,0.0,0.0,0.0,0.0,0.0,0.0,0.0,0.0,0.0,0.0,0.0,0.0,0.0,0.0,0.0,0.0,0.0,0.0,0.0,0.0,0.0,0.0,0.0,0.0,0.0,0.0,0.0,0.0,0.0,0.0,0.0,0.0,0.0,0.0,0.0,0.0,0.0,0.0,0.0,0.0,0.0,0.0,0.0,0.0,0.0,0.0,0.0,0.0,0.0,0.0,0.0,0.0,0.0,0.0,0.0,0.0,0.0,0.0,0.0,0.0,0.0,0.0,0.0,0.0,0.0,0.0,0.0,0.0,0.0,0.0,0.0,0.0,0.0,0.0,0.0,0.0,0.0,0.0,0.0,0.0,0.0,0.0,0.0,0.0,0.0,0.0,0.0,0.0,0.0,3.123,0.0,0.0,0.0,0.0,0.0,0.0,0.0,0.0,0.0,0.0,0.0,0.0,0.0,0.0,0.0,0.0,0.0,0.0,0.0,0.0,0.0,0.0,0.0,0.0,0.0,0.0,0.0,0.0,0.0,0.0,0.0,0.0,0.0,0.0,0.0,0.0,0.0,0.0,0.0,0.0,0.0,0.0,0.0,0.0,0.0,0.0,0.0,0.0,0.0,0.0,0.0,0.0,0.0,0.0,0.0,0.0,0.0,0.0,0.0,0.0,0.0,0.0,0.0,0.0,0.0,0.0,0.0,0.0,0.0,0.0,0.0,0.0,0.0,0.0,0.0,0.0,0.0,0.0,0.0,0.0,0.0,0.0,0.0,0.0,0.0,0.0,0.0,0.0,0.0,0.0,0.0,0.0,0.0,0.0,0.0,0.0,0.0,0.0,0.0,0.0,0.0,0.0,0.0,0.0,0.0,0.0,0.0,0.0,3.8902,3.952,4.0533,3.986,3.9201,3.843,3.582,3.3485,3.1601,3.2715,0.0,0.0,0.0,0.0,0.0,0.0,0.0,0.0,0.0,0.0,0.0,0.0,0.0,0.0,0.0,0.0,0.0,0.0,0.0,0.0,0.0,0.0,0.0,0.0,0.0,0.0,0.0,0.0,0.0,0.0,0.0,0.0,0.0,0.0,0.0,0.0,0.0,0.0,3.6445,3.7559,3.8301,3.8613,0.0,0.0,0.0,0.0,0.0,0.0,0.0,0.0,0.0,0.0,0.0,0.0,0.0,0.0,0.0,0.0,0.0,0.0,0.0,0.0,0.0,0.0,0.0,0.0,0.0,0.0,0.0,0.0,0.0,0.0,0.0,0.0,0.0,0.0,0.0,0.0,0.0,0.0,0.0,0.0,0.0,0.0,0.0,0.0,3.2851,3.2129,0.0,0.0,0.0,0.0,0.0,0.0,0.0,0.0,0.0,0.0,0.0,0.0,0.0,3.9575,4.0912,4.1886,4.2052,4.1416,4.2279,4.2002,4.0754,4.066,4.0528,4.0413,4.0011,0.0,3.3926,3.2695,0.0,0.0,0.0,0.0,0.0,0.0,0.0,0.0,0.0,0.0,0.0,0.0,0.0,0.0,0.0,0.0,0.0,0.0,0.0,0.0,0.0,0.0,0.0,0.0,0.0,0.0,0.0,0.0,0.0,0.0,0.0,0.0,0.0,0.0,0.0,0.0,0.0,3.7769,3.9394,4.1308,4.3183,4.4883,4.3242,4.1269,3.9004,3.6601,0.0,0.0,0.0,0.0,0.0,0.0,0.0,0.0,0.0,0.0,0.0,0.0,0.0,0.0,0.0,0.0,0.0,0.0,0.0,0.0,0.0,0.0,0.0,0.0,0.0,0.0,0.0,0.0,0.0,0.0,0.0,0.0,0.0,0.0,0.0,0.0,0.0,0.0,0.0,3.4978,3.5254,3.2539,3.5312,3.6738,0.0,0.0,0.0,0.0,0.0,0.0,0.0,0.0,0.0,3.9934,4.162,4.2848,4.3497,4.4722,4.5382,4.5495,4.5856,4.5624,4.4895,4.4895,4.4664,4.4224,4.4224,4.2382,3.9219,3.7168,3.6035,3.5488,0.0,0.0,0.0,0.0,3.4726,3.5684,0.0,0.0,0.0,0.0,0.0,0.0,0.0,0.0,0.0,0.0,0.0,0.0,0.0,0.0,0.0,3.4507,0.0,0.0,0.0,0.0,0.0,0.0,0.0,0.0,0.0,0.0,0.0,0.0,0.0,0.0,4.3086,4.5293,4.7598,4.9844,4.9199,4.6289,4.1738,3.9531,3.7363,0.0,0.0,0.0,0.0,0.0,0.0,0.0,0.0,0.0,0.0,0.0,0.0,0.0,0.0,0.0,0.0,0.0,0.0,0.0,0.0,0.0,0.0,0.0,0.0,0.0,0.0,0.0,0.0,0.0,0.0,0.0,0.0,0.0,0.0,0.0,0.0,0.0,0.0,3.6367,3.7079,3.2988,3.6894,3.8711,0.0,0.0,0.0,0.0,0.0,0.0,3.9863,4.1888,4.2996,4.2986,4.4729,4.5841,4.6187,4.7569,4.8356,4.8587,4.8701,4.8526,4.8103,4.8103,4.7776,4.7219,4.7199,4.6065,4.4003,4.115,3.9297,3.8184,3.7559,3.7305,3.7324,3.7305,3.7988,3.8867,0.0,0.0,0.0,0.0,0.0,0.0,0.0,0.0,0.0,0.0,0.0,0.0,0.0,0.0,3.5463,3.7745,3.6791,3.5623,0.0,0.0,0.0,0.0,0.0,0.0,0.0,0.0,0.0,0.0,0.0,0.0,0.0,0.0,0.0,0.0,0.0,5.1816,5.0371,4.459,4.1621,4.0449,0.0,0.0,0.0,0.0,0.0,0.0,0.0,0.0,0.0,0.0,0.0,0.0,0.0,0.0,0.0,0.0,0.0,0.0,0.0,0.0,0.0,0.0,0.0,0.0,0.0,0.0,0.0,0.0,0.0,0.0,0.0,0.0,0.0,0.0,0.0,0.0,0.0,0.0,0.0,3.3748,3.9316,0.0,0.0,0.0,0.0,3.9766,4.1211,4.2519,4.3398,4.423,4.5784,4.8252,4.8201,4.8875,5.0471,5.126,5.0875,4.9336,5.0183,4.9702,4.8107,4.8107,4.8087,4.8049,4.8046,4.7638,4.667,4.2461,4.0762,4.0586,3.8223,3.8789,4.0644,3.8203,3.8379,3.9609,0.0,0.0,0.0,0.0,0.0,0.0,0.0,0.0,0.0,0.0,0.0,0.0,0.0,3.6745,3.9455,4.1437,4.2238,4.1559,3.9017,0.0,0.0,0.0,0.0,0.0,0.0,0.0,0.0,0.0,0.0,0.0,0.0,0.0,0.0,0.0,0.0,0.0,0.0,4.8672,4.5117,4.2422,3.8105,3.5156,0.0,0.0,0.0,0.0,0.0,0.0,0.0,0.0,0.0,0.0,0.0,0.0,0.0,0.0,0.0,0.0,0.0,0.0,0.0,0.0,0.0,0.0,0.0,0.0,0.0,0.0,0.0,0.0,0.0,0.0,0.0,0.0,0.0,0.0,0.0,0.0,0.0,4.0176,4.418,0.0,4.2578,4.3105,4.3516,4.3203,4.4766,4.6133,4.6992,4.8774,5.0139,5.0985,5.1373,5.1836,5.2337,5.2606,5.2164,5.1009,5.1318,5.0895,4.9779,4.9779,4.9163,4.8087,4.8087,4.7376,4.6051,4.4666,4.3877,4.3437,4.1973,4.1992,4.2695,4.1758,4.2168,4.3008,0.0,0.0,0.0,0.0,0.0,0.0,0.0,0.0,0.0,0.0,0.0,3.2065,3.5277,3.9277,4.2559,4.4579,4.5153,4.4219,4.1387,0.0,0.0,0.0,0.0,0.0,0.0,0.0,0.0,0.0,0.0,0.0,0.0,0.0,0.0,0.0,0.0,0.0,0.0,0.0,0.0,4.4687,4.0957,3.8594,3.6855,0.0,0.0,0.0,0.0,0.0,0.0,0.0,0.0,0.0,0.0,0.0,0.0,0.0,0.0,0.0,0.0,0.0,0.0,0.0,0.0,0.0,0.0,0.0,0.0,0.0,0.0,0.0,0.0,0.0,0.0,0.0,0.0,0.0,0.0,0.0,4.5293,4.5058,4.832,4.9492,4.6601,4.6836,4.7051,4.6777,4.8359,4.9678,5.0504,5.2031,5.307,5.349,5.3393,5.3433,5.3645,5.3645,5.3049,5.1914,5.2203,5.1761,5.0702,5.0702,5.0067,4.8991,4.899,4.8202,4.6935,4.6777,4.6346,4.5723,4.4902,4.457,4.457,4.457,4.4941,4.5312,0.0,0.0,0.0,0.0,0.0,0.0,0.0,0.0,0.0,0.0,0.0,3.3372,3.7584,4.132,4.4529,4.7028,4.5129,4.3066,4.1348,3.7168,0.0,0.0,0.0,0.0,0.0,0.0,0.0,0.0,0.0,0.0,0.0,0.0,0.0,0.0,0.0,0.0,0.0,0.0,0.0,4.7676,4.4922,4.3281,4.1914,0.0,0.0,0.0,0.0,0.0,0.0,0.0,0.0,0.0,0.0,0.0,0.0,0.0,0.0,0.0,0.0,0.0,0.0,0.0,0.0,0.0,0.0,0.0,0.0,0.0,0.0,0.0,0.0,0.0,0.0,0.0,0.0,0.0,4.1125,4.5625,4.8574,4.793,5.1562,5.2793,4.9433,5.0586,5.1211,5.0371,5.1874,5.3111,5.3799,5.3727,5.4352,5.584,5.4184,5.3664,5.4453,5.4491,5.3606,5.1875,5.274,5.2298,5.0741,5.0702,5.0702,5.0702,5.068,5.0235,4.9485,4.8658,4.795,4.7304,4.6582,4.6308,4.6308,4.6308,4.6308,4.6172,0.0,0.0,0.0,0.0,0.0,0.0,0.0,0.0,0.0,0.0,3.1071,3.4924,3.8609,4.3327,4.6769,4.8186,4.6625,4.457,4.2226,0.0,0.0,0.0,0.0,0.0,0.0,0.0,0.0,0.0,0.0,0.0,0.0,0.0,0.0,0.0,0.0,0.0,0.0,0.0,0.0,5.457,4.8828,4.5625,4.3867,0.0,0.0,0.0,0.0,0.0,0.0,0.0,0.0,0.0,0.0,0.0,0.0,0.0,0.0,0.0,0.0,0.0,0.0,0.0,0.0,0.0,0.0,0.0,0.0,0.0,0.0,0.0,0.0,0.0,0.0,0.0,0.0,4.5433,4.6442,4.9469,5.1992,5.3066,5.5332,5.5957,5.375,5.4531,5.4551,5.3066,5.4451,5.5202,5.478,5.5075,5.5461,5.5898,5.5318,5.4549,5.3568,5.4184,5.3337,5.1029,5.1875,5.201,5.1549,5.0972,5.0702,5.0644,5.0029,4.9279,4.8491,4.8356,4.7822,4.7047,4.6401,4.6211,4.6308,4.6308,4.6308,4.6172,0.0,0.0,0.0,0.0,0.0,0.0,0.0,0.0,0.0,0.0,3.1686,3.579,3.8584,4.3896,4.721,4.7089,4.5928,4.3808,4.0488,0.0,0.0,0.0,0.0,0.0,0.0,0.0,0.0,0.0,0.0,0.0,0.0,0.0,0.0,0.0,0.0,0.0,0.0,0.0,5.8906,5.8066,5.3672,5.1094,4.9336,4.4433,4.2187,4.1269,3.8594,3.8379,3.9121,3.7598,0.0,0.0,0.0,0.0,0.0,0.0,0.0,0.0,0.0,0.0,0.0,0.0,0.0,0.0,0.0,0.0,0.0,0.0,0.0,0.0,0.0,0.0,0.0,0.0,4.6606,4.9765,5.2606,5.4043,5.5196,5.6269,5.789,5.8262,5.6562,5.7187,5.7129,5.5742,5.6453,5.6533,5.5607,5.578,5.5857,5.5818,5.5415,5.4895,5.4241,5.4414,5.3568,5.1741,5.2222,5.2261,5.1876,5.1432,5.1394,5.1703,5.0837,5.0164,4.9644,4.9029,4.851,0.0,0.0,0.0,0.0,0.0,4.625,4.623,0.0,0.0,0.0,0.0,0.0,0.0,0.0,0.0,0.0,0.0,0.0,3.5828,3.7453,4.2934,4.5956,4.4639,4.3663,4.1465,0.0,0.0,0.0,0.0,0.0,0.0,0.0,0.0,0.0,0.0,0.0,0.0,0.0,0.0,0.0,0.0,0.0,0.0,0.0,0.0,5.9785,5.9687,5.8711,5.7637,5.5918,4.957,4.7461,4.7246,4.2363,4.0195,3.9551,3.916,0.0,0.0,0.0,0.0,0.0,0.0,0.0,0.0,0.0,0.0,0.0,0.0,0.0,0.0,0.0,0.0,0.0,0.0,0.0,0.0,0.0,0.0,0.0,0.0,5.0535,5.3546,5.8452,5.8579,5.8153,5.8181,5.9492,5.9785,5.8203,5.8652,5.8768,5.8075,5.7812,5.731,5.6494,0.0,0.0,0.0,0.0,5.503,5.5549,5.4857,5.4068,5.3203,5.3204,5.2857,5.2183,5.2103,5.2508,5.3302,5.2435,5.1992,5.178,5.0298,4.9644,4.9412,4.7814,4.6671,4.5911,4.6054,4.6172,4.6289,0.0,0.0,0.0,0.0,0.0,0.0,0.0,0.0,0.0,2.6486,3.0564,3.3596,3.4122,3.8875,4.2264,4.2811,4.0855,3.8945,0.0,0.0,0.0,0.0,0.0,0.0,0.0,0.0,0.0,0.0,0.0,0.0,0.0,0.0,0.0,0.0,0.0,0.0,0.0,6.3027,6.3301,6.3183,6.1601,5.9219,5.6308,5.3555,5.1348,4.9297,4.6172,4.541,4.543,4.2617,4.248,4.3125,4.0898,0.0,0.0,0.0,0.0,0.0,0.0,0.0,0.0,0.0,0.0,0.0,0.0,0.0,0.0,0.0,0.0,0.0,0.0,0.0,0.0,5.1059,5.4334,5.7253,5.9628,6.0514,6.0672,6.0,6.0195,6.0019,5.9043,5.8476,5.8309,5.8681,5.7944,5.7625,5.8033,5.7915,5.7492,5.6761,5.6588,5.5934,5.4741,5.4587,5.4068,5.3203,0.0,0.0,5.3975,5.3281,5.3415,5.4186,5.3321,5.255,5.1876,5.1549,5.0644,4.9298,4.7789,4.6665,4.5925,4.6046,4.6113,4.6152,0.0,0.0,0.0,0.0,0.0,0.0,0.0,0.0,0.0,0.0,2.9979,3.2532,3.3192,3.7015,3.9442,3.9218,3.7637,0.0,0.0,3.9316,0.0,0.0,0.0,0.0,0.0,0.0,0.0,0.0,0.0,0.0,0.0,0.0,0.0,0.0,0.0,0.0,6.3672,6.4121,6.4043,6.3574,6.2695,6.1074,5.8867,5.6289,5.4238,5.2363,4.9336,4.8242,4.7773,4.4726,4.4277,4.4551,4.1992,4.0293,3.8826,0.0,0.0,0.0,0.0,0.0,0.0,0.0,0.0,0.0,0.0,0.0,0.0,0.0,0.0,4.4383,0.0,0.0,5.193,5.4619,5.7235,5.9417,6.0745,6.1383,6.1387,6.0508,6.0781,6.0723,5.9883,5.9805,5.9729,5.9579,5.9012,5.8645,5.8511,5.7973,5.7453,5.6992,5.6569,5.5953,5.5107,5.5107,5.4684,5.3857,5.3857,5.4089,5.4494,5.4051,5.43,5.5051,5.4204,5.3608,5.3126,5.2261,5.0914,4.9317,4.8586,4.7547,4.6403,4.6122,4.6036,4.6113,0.0,0.0,0.0,0.0,0.0,0.0,0.0,0.0,0.0,0.0,0.0,3.1317,3.2224,3.5009,3.6394,0.0,0.0,0.0,0.0,4.1738,4.5332,4.8457,5.2226,5.4746,0.0,0.0,0.0,0.0,0.0,0.0,0.0,0.0,0.0,0.0,6.3535,6.414,6.4824,6.498,6.4648,6.3965,6.3457,6.2832,6.1836,5.8418,5.6465,5.5098,5.168,4.9453,4.7851,4.5918,4.4902,4.4199,4.248,4.1714,4.0827,3.7769,3.6521,0.0,0.0,0.0,0.0,0.0,0.0,0.0,0.0,0.0,4.3004,4.5303,4.6735,4.842,5.1196,5.3379,5.5501,5.7832,5.9494,6.0782,6.1593,6.1705,6.1387,6.0508,6.1015,6.1172,6.0469,6.0867,6.0954,6.044,6.0115,5.9585,5.8739,5.7934,5.7338,5.6992,5.6319,5.5857,5.5703,5.5703,5.5376,5.4722,5.4722,5.4722,5.4743,5.4724,5.5089,5.5665,5.4855,5.4487,5.4393,5.28,5.1356,5.0106,4.9817,4.8894,4.7622,4.6564,4.6338,4.6562,0.0,0.0,0.0,0.0,0.0,0.0,0.0,0.0,0.0,0.0,0.0,0.0,0.0,0.0,0.0,0.0,0.0,0.0,0.0,4.3262,4.7031,5.1914,5.4062,5.5918,5.7578,5.7793,5.8281,5.9043,5.914,5.9609,6.043,6.1191,6.207,6.3105,6.543,6.6523,6.666,6.7441,6.7715,6.7422,6.5098,6.4101,6.3633,6.0215,5.789,5.5996,5.2519,4.875,4.5508,4.5996,4.4609,4.291,4.418,4.3513,4.2019,4.0785,0.0,3.7151,3.8358,3.827,0.0,3.975,3.9898,4.1202,0.0,0.0,4.8312,5.0027,5.2242,5.4034,5.4556,5.6687,5.878,5.9917,6.0909,6.1573,6.169,6.1698,6.1387,6.0508,6.0488,6.0508,6.041,5.9685,5.9765,6.1078,6.0288,5.9623,5.9396,5.9281,5.8531,5.7049,5.6896,5.6472,5.5703,5.5703,5.5645,5.5568,5.5568,5.5568,5.5568,5.5568,5.5607,5.5665,5.4855,5.4487,5.4432,5.3435,5.2955,5.2627,5.126,5.0625,5.0183,4.7892,4.7553,4.8164,0.0,0.0,0.0,0.0,0.0,0.0,0.0,0.0,0.0,0.0,0.0,0.0,0.0,0.0,0.0,0.0,0.0,0.0,3.9394,4.3945,4.8359,5.2519,5.5332,5.7383,5.8633,5.9121,5.9531,5.9902,6.041,6.1094,6.1914,6.2285,6.3183,6.457,6.6191,6.7187,6.7676,6.8047,6.791,6.7265,6.5156,6.3691,6.2402,5.8984,5.5976,5.3183,5.0234,4.7715,0.0,0.0,4.2832,4.3105,4.2871,4.2963,4.2768,4.0757,3.9786,0.0,4.0658,0.0,0.0,0.0,4.4755,4.6999,4.9377,5.0809,5.2266,5.4393,5.6142,5.7602,5.8625,5.9782,6.0692,0.0,6.1465,6.1699,6.1699,6.0859,5.9726,5.8359,5.7734,5.8027,5.9551,5.9313,5.9269,5.976,5.9837,5.9758,5.9511,5.9069,5.8473,5.778,5.6761,5.6069,5.5703,5.5703,5.5703,5.5703,5.5703,5.5703,5.5703,5.5703,5.5703,5.5684,5.5338,5.4932,5.4432,5.3547,5.2951,5.2451,5.1334,5.0951,5.0779,4.8798,4.831,4.8594,0.0,0.0,0.0,0.0,0.0,0.0,0.0,0.0,0.0,0.0,0.0,0.0,0.0,0.0,0.0,0.0,0.0,0.0,0.0,4.3551,4.8262,5.2168,5.5449,0.0,5.918,6.0215,6.0762,6.0762,6.1875,6.2617,6.3008,6.3496,6.4394,6.5664,6.6992,6.7949,6.8535,6.8555,6.8066,6.7051,6.4844,6.2754,6.0605,5.6914,5.3223,4.9726,4.7637,4.5566,0.0,0.0,4.0644,4.1523,4.1286,4.2007,4.2597,4.0816,4.0916,4.1659,4.1994,0.0,0.0,4.5947,4.9099,5.192,5.184,5.3613,5.5797,5.7601,5.8559,5.9342,6.0331,6.0586,6.0723,6.0976,6.1191,6.1426,6.168,6.0058,5.8379,5.7109,5.5547,5.543,5.7558,5.8164,5.8504,5.8683,5.9466,5.98,5.9511,5.8742,5.8184,5.7953,5.6472,5.5703,5.5703,5.5703,5.5703,5.5703,5.5703,5.5703,5.5703,5.5703,5.5703,5.5703,5.5703,5.5395,5.4836,5.4199,5.3526,5.2796,5.2003,5.1605,5.1319,4.9954,4.9414,4.9375,0.0,0.0,0.0,0.0,0.0,0.0,0.0,0.0,0.0,0.0,0.0,0.0,0.0,0.0,0.0,0.0,0.0,0.0,0.0,4.185,4.6094,5.1211,5.3965,5.6582,5.914,6.082,6.166,6.166,6.3379,6.3808,6.3047,6.4726,6.5547,6.5703,6.8203,6.9336,6.9375,6.9433,6.8965,6.7851,6.4414,6.1523,5.8808,5.4473,5.0176,4.6328,4.541,0.0,0.0,0.0,3.8262,3.6829,4.0139,4.1145,0.0,4.184,4.255,4.2986,0.0,0.0,4.7602,4.9408,5.1852,5.4265,5.6005,5.7773,5.9062,5.9121,5.9179,5.8945,5.8163,5.8008,5.8281,5.914,5.9922,6.0723,6.1582,5.9531,5.793,5.7871,5.4844,5.3144,0.0,5.5566,5.7109,5.8593,5.9321,5.9669,5.9511,5.8742,5.7915,5.7069,5.6165,5.5703,5.5703,5.5703,5.5703,5.5703,5.5703,5.5703,5.5703,5.5703,5.5703,5.5703,5.5703,5.5761,5.5857,5.5818,5.5439,5.4728,5.401,5.3204,5.2363,5.1601,5.125,5.1035,0.0,0.0,0.0,0.0,0.0,0.0,0.0,0.0,0.0,0.0,0.0,0.0,0.0,0.0,0.0,0.0,0.0,0.0,0.0,3.9955,4.4394,4.7851,5.2695,5.625,5.8281,5.998,6.1113,6.1699,6.2285,6.2715,6.3008,6.3594,6.418,6.4805,6.623,6.7207,6.7695,6.7148,6.707,6.6933,6.2324,5.9629,5.7617,5.0976,4.644,4.3152,0.0,0.0,0.0,0.0,0.0,0.0,3.7381,3.8458,0.0,4.1533,4.2699,4.3791,4.5891,0.0,5.203,5.3225,5.5875,5.8367,5.8983,6.0019,6.0371,5.8691,5.7871,5.6855,5.4824,5.4922,5.5781,5.7246,5.8672,5.9883,6.0723,5.9648,5.789,5.5586,5.4277,0.0,0.0,0.0,0.0,5.6146,5.706,5.7674,5.8085,5.8296,5.803,5.7165,5.6203,5.5703,5.5703,5.5703,5.5703,5.5703,5.5703,5.5703,5.5703,5.5703,5.5742,5.5818,5.5818,5.5915,5.6036,5.5469,5.5165,5.4957,5.4125,5.3674,5.3476,5.3223,5.3105,5.2851,0.0,0.0,0.0,0.0,0.0,0.0,0.0,0.0,0.0,0.0,0.0,0.0,0.0,0.0,0.0,0.0,0.0,0.0,0.0,0.0,4.0625,4.3867,4.8301,5.1641,5.3711,5.543,5.6562,5.7129,5.8359,5.9082,5.9336,6.0273,6.1015,6.1601,6.2793,6.3613,6.4101,6.3555,6.293,6.1914,5.7695,5.4531,5.1719,4.5801,4.1871,0.0,0.0,0.0,0.0,0.0,0.0,0.0,3.6086,3.7868,4.0023,4.1901,4.3775,4.6071,4.9884,5.3101,5.582,5.7617,5.9941,6.1719,6.1406,6.1289,6.043,5.7558,5.5547,5.3613,5.1308,5.082,5.1641,5.4316,5.5683,5.7246,5.9648,5.8457,5.6855,5.5547,5.4297,5.3008,0.0,0.0,0.0,5.4941,5.6164,5.7121,5.7834,5.8027,5.7853,5.73,5.6376,5.5876,5.5876,5.5876,5.5876,5.5876,5.5876,5.5876,5.5876,5.5876,5.5915,5.6015,5.6001,5.6116,5.6233,5.5677,5.5332,5.5117,5.4551,5.4199,5.4004,5.4004,5.4004,5.3808,0.0,0.0,0.0,0.0,0.0,0.0,0.0,0.0,0.0,0.0,0.0,0.0,0.0,0.0,0.0,0.0,0.0,0.0,0.0,0.0,0.0,3.9394,4.1308,4.3476,4.6035,4.7851,4.8789,4.8828,5.2129,5.3281,5.248,5.498,5.6113,5.6152,5.7793,5.8555,5.8594,5.8555,5.666,5.3457,5.0859,4.6836,4.2109,3.9414,0.0,0.0,0.0,0.0,0.0,0.0,0.0,0.0,0.0,3.9444,4.2228,4.3203,4.6061,4.9814,5.4081,5.6786,5.918,6.2344,6.375,6.4101,6.3144,6.1523,5.9219,5.5742,5.2324,4.9375,0.0,0.0,4.6387,5.0644,5.1523,5.3437,5.8555,5.6445,5.5273,0.0,0.0,0.0,0.0,0.0,0.0,5.5078,0.0,5.7812,5.8537,5.7834,5.7388,5.7341,5.6592,5.6209,5.6209,5.6209,5.6209,5.6209,5.6209,5.6188,5.6205,5.6205,5.6188,5.6213,5.6205,5.6289,5.6406,5.6406,5.5996,5.5371,5.5371,5.4863,5.4121,5.4121,5.4121,5.4004,0.0,0.0,0.0,0.0,0.0,0.0,0.0,0.0,0.0,0.0,0.0,0.0,0.0,0.0,0.0,0.0,0.0,0.0,0.0,0.0,0.0,0.0,0.0,0.0,0.0,0.0,0.0,0.0,0.0,4.9746,4.8906,4.957,4.9551,0.0,4.9394,4.9941,5.0527,4.9863,4.9453,4.8945,0.0,4.3594,4.1894,0.0,0.0,0.0,0.0,0.0,0.0,0.0,0.0,0.0,0.0,4.212,4.4477,4.7779,5.1373,5.5036,5.8686,6.2564,6.5469,6.5039,6.5098,6.4707,6.2539,5.9726,5.6406,5.2344,4.873,4.541,0.0,0.0,0.0,4.9902,5.3183,0.0,5.9648,5.9883,0.0,5.8047,0.0,5.6855,5.5137,5.5937,0.0,0.0,5.6015,5.6249,5.7093,5.7444,5.733,5.6673,5.6362,5.6207,5.6207,5.6207,5.6207,5.6207,5.6207,5.6195,5.6205,5.6205,5.6246,5.6352,5.6343,5.6426,5.6543,5.6543,5.6445,5.6269,5.6269,5.6133,5.5937,5.5937,5.5937,5.5723,0.0,0.0,0.0,0.0,0.0,0.0,0.0,0.0,0.0,0.0,0.0,0.0,0.0,0.0,0.0,0.0,0.0,0.0,0.0,0.0,0.0,0.0,0.0,0.0,0.0,0.0,0.0,0.0,0.0,0.0,0.0,4.3281,4.3398,4.2949,4.332,4.3769,4.4199,0.0,0.0,0.0,0.0,0.0,0.0,0.0,0.0,0.0,0.0,0.0,0.0,0.0,0.0,4.2667,4.4589,4.6627,4.9067,5.2914,0.0,5.9183,6.2616,6.5819,6.7969,6.6992,6.6445,6.5098,6.0976,5.7363,5.3359,4.7891,4.4336,0.0,3.918,0.0,0.0,0.0,0.0,0.0,5.873,5.9726,5.9765,0.0,5.9433,0.0,5.7187,5.8223,5.8652,0.0,5.7285,5.7051,5.7168,5.7558,5.7396,5.6517,5.6419,5.638,5.638,5.638,5.638,5.638,5.638,5.6383,5.6368,5.6368,5.6418,5.6484,5.6484,5.6523,5.6601,5.6601,5.6601,5.6601,5.6601,5.6601,5.6601,5.6601,5.6601,5.6465,0.0,0.0,0.0,0.0,0.0,0.0,0.0,0.0,0.0,0.0,0.0,0.0,0.0,0.0,0.0,0.0,0.0,0.0,0.0,0.0,0.0,0.0,0.0,0.0,0.0,0.0,0.0,0.0,0.0,0.0,0.0,0.0,0.0,0.0,0.0,0.0,0.0,0.0,0.0,0.0,0.0,0.0,0.0,0.0,0.0,0.0,0.0,0.0,0.0,0.0,4.2758,4.574,4.9163,5.1972,5.4722,5.8127,6.0484,6.2703,6.6004,6.7785,6.8613,6.8281,6.7285,6.4824,5.8906,5.4512,4.9883,4.3555,0.0,3.8027,3.7266,3.8027,4.0469,4.5625,0.0,5.1348,5.7383,5.8223,5.8808,6.039,6.0566,6.0254,5.9433,6.0098,6.0195,5.9277,5.9297,5.8926,5.7949,5.789,5.75,5.6621,5.6601,5.6601,5.6601,5.6601,5.6601,5.6601,5.6601,5.6601,5.6601,5.6601,5.6601,5.6601,5.6601,5.6601,5.6601,5.6601,5.6601,5.6601,5.6601,5.6601,5.6601,5.6601,5.6601,5.6562,0.0,0.0,0.0,0.0,0.0,0.0,0.0,0.0,0.0,0.0,2.5879,0.0,0.0,0.0,0.0,0.0,0.0,0.0,0.0,0.0,0.0,0.0,0.0,0.0,0.0,0.0,0.0,0.0,0.0,0.0,0.0,0.0,0.0,0.0,0.0,0.0,0.0,0.0,0.0,0.0,0.0,0.0,0.0,0.0,0.0,0.0,0.0,0.0,0.0,0.0,4.574,5.0183,5.3549,5.6357,5.9088,6.2493,6.4465,6.6097,6.8803,7.0428,7.084,6.873,6.5918,6.2285,5.6953,5.0879,0.0,0.0,3.8769,3.6406,3.625,3.8125,4.1367,4.6543,0.0,0.0,0.0,0.0,6.0332,0.0,0.0,0.0,0.0,0.0,0.0,0.0,5.9824,5.9512,5.7988,5.789,5.75,5.6621,5.6601,5.6601,5.6601,5.6601,5.6601,5.6601,5.6601,5.6601,5.6601,5.6601,5.6601,5.6601,5.6601,0.0,5.6601,5.6601,5.6601,5.6601,5.6601,5.6601,5.6601,5.6601,5.6601,5.6387,0.0,0.0,0.0,0.0,0.0,0.0,0.0,0.0,0.0,0.0,2.6563,2.6063,0.0,0.0,0.0,0.0,0.0,0.0,0.0,0.0,0.0,0.0,0.0,0.0,0.0,0.0,0.0,0.0,0.0,0.0,0.0,0.0,0.0,0.0,0.0,0.0,0.0,0.0,0.0,0.0,0.0,0.0,0.0,0.0,0.0,0.0,0.0,0.0,0.0,0.0,4.4124,4.9779,5.578,5.9146,6.1512,6.4916,6.6788,6.8212,7.0308,7.1767,7.1953,6.8945,6.5586,6.1055,5.3652,0.0,0.0,0.0,3.5527,3.4648,3.4648,0.0,0.0,0.0,0.0,0.0,0.0,0.0,0.0,0.0,0.0,0.0,0.0,0.0,0.0,0.0,6.0176,5.9668,5.7988,5.7031,5.6562,5.6601,5.6152,5.6133,5.6601,5.6601,5.6601,5.6601,5.6601,5.6601,5.6601,5.6601,5.6601,5.6601,5.6601,5.6601,5.6601,5.6601,5.6601,5.6543,5.6094,5.6191,5.6543,5.6094,5.6211,5.6484,0.0,0.0,0.0,0.0,0.0,0.0,0.0,2.5909,2.614,2.7698,2.714,2.6678,2.6851,2.6159,0.0,0.0,0.0,0.0,0.0,0.0,0.0,0.0,0.0,0.0,0.0,0.0,0.0,0.0,0.0,0.0,0.0,0.0,0.0,0.0,0.0,0.0,0.0,0.0,0.0,0.0,0.0,0.0,0.0,0.0,0.0,0.0,0.0,0.0,0.0,0.0,4.12,4.6778,5.3972,5.855,6.1839,6.4647,6.6859,6.8762,7.0471,7.1799,7.1933,6.8711,6.4746,5.9394,5.0859,4.4961,0.0,0.0,3.2949,3.3203,3.3379,0.0,3.8457,0.0,0.0,0.0,0.0,0.0,0.0,0.0,0.0,0.0,0.0,0.0,0.0,6.0469,6.0078,5.9219,5.7695,5.6152,5.5527,5.6035,5.5566,5.5625,5.6308,5.6504,5.6504,5.6328,5.6504,5.6504,5.6328,5.6504,5.6601,5.6601,5.6601,5.6601,5.6601,5.6601,5.6601,5.6523,5.5859,5.5996,5.6523,5.582,5.6015,5.6562,0.0,0.0,0.0,0.0,0.0,0.0,0.0,2.6024,2.6813,2.7775,2.714,2.6909,2.7678,2.7005,0.0,0.0,0.0,0.0,0.0,0.0,0.0,0.0,0.0,0.0,0.0,0.0,0.0,0.0,0.0,0.0,0.0,0.0,0.0,0.0,0.0,0.0,0.0,0.0,0.0,0.0,0.0,0.0,0.0,0.0,0.0,0.0,0.0,0.0,0.0,0.0,0.0,4.1623,4.472,5.1664,5.8858,5.9896,0.0,0.0,6.8629,6.9926,7.0156,6.7656,6.2051,5.5723,5.0176,0.0,0.0,3.4922,3.332,3.2539,3.3262,3.3652,0.0,0.0,0.0,0.0,0.0,0.0,0.0,0.0,0.0,0.0,0.0,0.0,0.0,6.0469,5.8984,5.7715,5.6777,5.582,5.4961,5.4258,5.4922,5.5332,5.543,5.6191,5.6191,5.543,5.6211,5.6191,5.5449,5.623,5.6601,5.6601,5.6601,5.6601,0.0,5.6601,5.6601,5.6582,5.6504,5.6523,5.6582,5.6504,5.6523,5.6484,0.0,0.0,0.0,0.0,0.0,0.0,0.0,2.5928,2.6332,2.7717,2.714,2.6736,2.7082,2.6813,2.6255,0.0,0.0,0.0,0.0,0.0,0.0,0.0,0.0,0.0,0.0,0.0,0.0,0.0,0.0,0.0,0.0,0.0,0.0,0.0,0.0,0.0,0.0,0.0,0.0,0.0,0.0,0.0,0.0,0.0,0.0,0.0,0.0,0.0,0.0,0.0,0.0,0.0,3.7276,4.2104,0.0,0.0,5.9619,6.3142,6.6968,6.8844,6.8984,6.5976,6.0488,5.4199,4.7969,0.0,3.6367,3.3086,3.2305,3.2305,3.2617,3.3066,3.4316,0.0,0.0,0.0,0.0,0.0,0.0,0.0,0.0,0.0,0.0,0.0,0.0,5.9785,5.8086,5.6504,5.5117,5.4707,5.4355,5.4004,5.3828,5.3984,5.4512,5.4863,5.4863,5.4531,5.539,5.5644,5.5332,5.6191,5.6601,5.6562,5.6055,5.6113,0.0,5.6035,5.6133,5.6543,5.6015,5.6094,5.6426,5.5898,5.6035,5.6426,0.0,0.0,0.0,0.0,0.0,0.0,2.564,2.5755,2.614,2.7351,2.6986,2.6601,2.6601,2.637,2.5967,2.5341,0.0,0.0,0.0,0.0,0.0,0.0,0.0,0.0,0.0,0.0,0.0,0.0,0.0,0.0,0.0,0.0,2.5919,2.5303,0.0,0.0,0.0,0.0,0.0,0.0,0.0,0.0,0.0,0.0,0.0,0.0,0.0,0.0,0.0,0.0,0.0,0.0,0.0,0.0,0.0,0.0,5.4759,5.8846,6.3514,6.5943,6.6532,6.3923,5.8426,5.2121,0.0,0.0,3.5508,3.1953,3.1543,3.1816,3.1816,3.2285,3.3144,0.0,0.0,0.0,0.0,0.0,0.0,0.0,0.0,0.0,0.0,0.0,0.0,5.9316,5.7598,5.584,5.4082,5.3769,5.3496,5.3242,5.2891,5.2871,5.3223,5.373,5.373,5.3242,5.4375,5.4922,5.4941,5.582,5.6328,5.6504,5.5898,5.5957,0.0,5.582,5.5937,5.6426,5.5801,5.5879,5.6269,5.5641,5.5802,5.6327,0.0,0.0,0.0,0.0,0.0,0.0,0.0,2.5524,2.6601,2.6621,2.6621,2.6601,2.6601,2.5832,2.5303,2.5303,0.0,0.0,0.0,0.0,0.0,0.0,0.0,0.0,0.0,0.0,0.0,0.0,0.0,0.0,0.0,0.0,0.0,0.0,0.0,0.0,0.0,0.0,0.0,0.0,0.0,0.0,0.0,0.0,0.0,0.0,0.0,0.0,0.0,0.0,0.0,0.0,0.0,0.0,0.0,0.0,4.8009,5.4047,5.7632,6.0441,6.2188,6.1511,5.5556,4.8951,0.0,0.0,3.4121,3.2344,3.1426,3.0918,3.0918,3.0918,3.1211,3.2109,0.0,0.0,0.0,0.0,0.0,0.0,0.0,0.0,0.0,0.0,0.0,5.9258,5.7598,0.0,5.4082,5.3183,5.2324,5.1445,5.2246,5.2285,5.1445,5.3144,5.3125,5.1445,5.3183,5.4004,5.4043,5.4922,5.5703,5.6406,5.6387,5.6328,0.0,5.6191,5.6191,5.6191,5.6191,5.6191,5.6206,5.6191,5.6188,5.6194,0.0,0.0,0.0,0.0,0.0,0.0,0.0,2.537,2.5707,2.5707,2.5707,2.5707,2.5707,2.5457,2.5082,2.4524,0.0,0.0,0.0,0.0,0.0,0.0,0.0,0.0,0.0,0.0,0.0,0.0,0.0,0.0,0.0,0.0,0.0,0.0,0.0,0.0,0.0,0.0,0.0,0.0,0.0,0.0,0.0,0.0,0.0,0.0,0.0,0.0,0.0,0.0,0.0,0.0,0.0,0.0,0.0,0.0,0.0,0.0,5.0297,5.2466,5.343,5.2622,4.8469,4.3853,4.0992,0.0,3.3168,3.1461,3.0488,3.0137,3.0781,3.041,3.1055,3.4277,3.5234,0.0,0.0,0.0,0.0,0.0,0.0,0.0,0.0,0.0,0.0,5.7539,5.6367,5.4941,5.3203,5.2285,5.1699,5.1406,5.1133,5.0859,5.0586,5.1133,5.1133,5.0605,5.2305,5.3105,5.3144,5.3926,5.4394,5.4628,5.4518,5.4454,5.4415,5.4415,5.4764,5.5322,5.5322,5.5593,5.599,5.6001,5.5994,5.5978,0.0,0.0,0.0,0.0,0.0,0.0,0.0,2.437,2.437,2.437,2.437,2.437,2.437,2.4312,2.4071,2.3583,0.0,0.0,0.0,0.0,0.0,0.0,0.0,0.0,0.0,0.0,0.0,0.0,0.0,0.0,0.0,0.0,0.0,0.0,0.0,0.0,0.0,0.0,0.0,0.0,0.0,0.0,2.5203,0.0,0.0,0.0,0.0,0.0,0.0,0.0,0.0,0.0,0.0,0.0,0.0,0.0,3.4814,0.0,0.0,4.6165,4.7031,4.6474,4.3453,0.0,0.0,0.0,3.219,3.052,2.9808,2.9687,3.0293,2.9961,3.0586,3.3594,3.4609,0.0,0.0,0.0,0.0,0.0,0.0,0.0,0.0,0.0,5.7773,5.668,5.5176,5.3848,5.2754,5.1875,5.1406,5.1406,5.0625,5.0039,4.9707,5.0039,5.0039,4.9726,5.1406,5.237,5.2629,5.3095,5.3422,5.3627,5.3558,5.3509,0.0,5.3797,5.4262,5.4762,5.5088,5.528,5.5415,5.5703,5.5626,5.5415,0.0,0.0,0.0,0.0,0.0,0.0,0.0,0.0,0.0,0.0,2.2889,2.2889,2.2889,2.2824,2.2713,0.0,0.0,0.0,0.0,0.0,0.0,0.0,0.0,0.0,0.0,0.0,0.0,2.485,2.5709,2.6126,2.6126,0.0,0.0,0.0,0.0,0.0,0.0,0.0,0.0,0.0,0.0,0.0,0.0,0.0,0.0,0.0,0.0,0.0,0.0,0.0,0.0,0.0,0.0,0.0,0.0,0.0,0.0,0.0,0.0,4.0912,0.0,0.0,0.0,0.0,0.0,0.0,0.0,0.0,0.0,2.9472,2.9726,2.9726,3.0078,3.1269,3.2812,0.0,0.0,0.0,0.0,0.0,0.0,0.0,0.0,0.0,5.6484,5.6426,5.4101,5.2676,5.2617,5.1836,5.1367,5.1328,5.0527,4.9726,4.8906,4.9707,4.9707,4.8926,5.0586,5.1733,5.241,5.2396,5.2684,0.0,5.3263,5.3184,5.3082,5.3956,5.4304,5.44,5.5205,5.5066,5.4509,5.5376,5.5143,5.4528,0.0,0.0,0.0,0.0,0.0,0.0,0.0,0.0,0.0,0.0,0.0,2.3783,2.3783,2.4183,0.0,0.0,0.0,0.0,0.0,0.0,0.0,0.0,0.0,0.0,0.0,0.0,0.0,2.5478,2.6765,2.7368,2.7387,2.8642,0.0,0.0,0.0,0.0,0.0,0.0,0.0,0.0,0.0,0.0,0.0,0.0,0.0,0.0,2.606,2.645,0.0,0.0,0.0,0.0,0.0,0.0,0.0,0.0,2.8621,2.9102,3.0467,0.0,3.4372,3.4372,3.3276,3.2083,0.0,0.0,0.0,0.0,0.0,0.0,0.0,0.0,3.1953,3.6113,0.0,3.8965,0.0,0.0,0.0,0.0,0.0,0.0,0.0,0.0,5.5332,5.4668,5.3418,5.2402,5.1738,5.1504,5.1113,5.0508,4.9648,4.9101,4.8906,4.9101,4.9101,4.8926,5.0508,5.1342,5.1494,5.1338,5.136,5.153,5.203,5.1876,5.1356,5.2165,5.2511,5.2602,5.3447,5.3683,5.3666,5.5166,5.478,5.3722,0.0,0.0,0.0,0.0,0.0,0.0,0.0,0.0,0.0,0.0,0.0,0.0,0.0,0.0,0.0,0.0,0.0,0.0,0.0,0.0,0.0,0.0,0.0,0.0,0.0,0.0,0.0,0.0,0.0,2.764,0.0,0.0,0.0,0.0,0.0,0.0,0.0,0.0,0.0,0.0,2.4654,0.0,0.0,0.0,0.0,0.0,2.5658,2.576,0.0,2.6461,2.6655,2.665,0.0,0.0,0.0,0.0,2.7827,2.7813,2.7409,2.9159,3.1102,3.1102,3.1064,3.0891,0.0,0.0,0.0,0.0,0.0,0.0,0.0,0.0,0.0,0.0,3.8042,0.0,0.0,0.0,0.0,0.0,0.0,0.0,0.0,0.0,5.4336,5.3476,5.2246,5.1504,5.1406,5.0664,5.0203,5.0104,4.887,4.8209,4.8199,4.8206,4.8183,4.8125,4.9375,4.9921,4.9867,4.976,4.9894,5.024,5.0587,5.0721,5.076,5.1568,5.1914,5.1989,5.2855,5.2954,5.2762,5.4071,5.3972,5.3336,0.0,0.0,0.0,0.0,0.0,0.0,0.0,0.0,0.0,0.0,0.0,0.0,0.0,0.0,0.0,0.0,0.0,0.0,0.0,0.0,0.0,0.0,0.0,0.0,0.0,0.0,0.0,0.0,0.0,0.0,0.0,0.0,2.8264,0.0,0.0,0.0,0.0,0.0,0.0,0.0,2.4444,0.0,0.0,0.0,0.0,0.0,0.0,0.0,0.0,2.5149,2.513,2.5107,2.5857,0.0,0.0,0.0,0.0,0.0,2.6691,2.8349,3.0241,3.0059,3.0775,3.1275,0.0,0.0,0.0,0.0,0.0,0.0,0.0,0.0,0.0,0.0,0.0,0.0,0.0,0.0,0.0,0.0,0.0,0.0,0.0,5.4355,5.3633,5.2773,5.1152,5.0487,5.1157,4.9712,4.9087,4.9558,4.8148,4.7299,4.7159,4.7291,4.7308,4.721,4.805,4.8396,4.8299,4.8279,4.8606,4.9202,4.9356,0.0,5.0548,5.1376,5.1722,5.1799,5.2666,5.2473,5.1857,5.2974,5.3242,5.3007,0.0,0.0,0.0,0.0,0.0,0.0,0.0,0.0,0.0,0.0,0.0,0.0,0.0,0.0,0.0,0.0,0.0,0.0,0.0,0.0,0.0,0.0,0.0,0.0,0.0,0.0,0.0,0.0,0.0,0.0,2.903,3.0962,3.0411,0.0,0.0,0.0,2.4247,2.4209,2.4209,2.4247,2.4247,0.0,0.0,0.0,0.0,0.0,0.0,0.0,0.0,2.4937,2.4956,2.4874,2.5114,0.0,0.0,0.0,0.0,0.0,2.5939,2.7907,2.9554,2.8533,2.9448,3.0371,0.0,0.0,0.0,0.0,0.0,0.0,0.0,0.0,0.0,0.0,0.0,0.0,0.0,0.0,0.0,0.0,0.0,0.0,5.3301,5.3652,5.3633,5.2773,5.1152,5.0196,5.0206,4.9257,4.8385,4.7658,4.7368,4.6851,4.6046,4.6831,4.7216,4.7216,4.7966,4.833,4.8295,4.8179,4.8179,4.8333,0.0,4.9471,4.9683,5.0529,5.0895,5.0972,5.178,5.1607,5.1164,5.3454,5.3356,5.2086,0.0,0.0,0.0,0.0,0.0,0.0,0.0,0.0,0.0,0.0,0.0,0.0,0.0,0.0,0.0,0.0,0.0,0.0,0.0,0.0,0.0,0.0,0.0,0.0,0.0,0.0,0.0,0.0,0.0,2.9806,3.0919,3.076,2.9182,2.645,0.0,0.0,2.419,2.419,2.419,2.419,0.0,0.0,0.0,0.0,0.0,0.0,0.0,0.0,0.0,0.0,2.4785,2.4654,2.4708,0.0,0.0,0.0,0.0,0.0,2.5261,2.6846,2.8364,2.8208,3.0122,3.1686,3.0369,0.0,0.0,0.0,0.0,0.0,0.0,0.0,0.0,0.0,0.0,0.0,0.0,0.0,0.0,0.0,0.0,5.3906,5.2715,5.3027,5.2722,5.1336,5.0091,4.9323,4.9188,4.7925,4.7178,4.7159,4.6679,4.62,4.5699,4.6123,4.6352,4.6352,4.6679,4.6833,4.6833,4.6775,4.7024,4.7486,0.0,4.8952,4.9471,5.0337,5.0702,5.0741,5.1106,5.1279,5.1549,5.3204,5.2991,5.1971,0.0,0.0,0.0,0.0,0.0,0.0,0.0,0.0,0.0,0.0,0.0,0.0,0.0,0.0,0.0,0.0,0.0,0.0,0.0,0.0,0.0,0.0,0.0,0.0,0.0,0.0,2.6029,2.7306,2.87,3.0241,3.1814,2.9517,2.7346,0.0,0.0,0.0,2.419,2.419,2.419,2.419,0.0,0.0,0.0,0.0,0.0,0.0,0.0,0.0,0.0,0.0,0.0,0.0,0.0,0.0,0.0,2.4478,2.4545,2.4692,2.4898,2.6022,2.7278,2.7826,0.0,3.2185,3.1827,0.0,0.0,0.0,0.0,0.0,0.0,0.0,0.0,0.0,0.0,0.0,0.0,0.0,0.0,0.0,5.2504,5.2394,5.2197,5.2082,5.1352,4.977,4.8833,4.8307,4.8172,4.6704,4.6142,4.6718,4.6103,4.5699,4.5586,4.5586,4.5586,4.5586,4.5586,4.5586,4.5586,4.5586,4.5969,4.6641,4.7658,4.8488,4.9183,5.026,5.0702,5.0702,5.0702,5.1203,5.1972,5.2645,5.2471,5.2008,0.0,0.0,0.0,0.0,0.0,0.0,0.0,0.0,0.0,0.0,0.0,0.0,0.0,0.0,0.0,0.0,0.0,0.0,0.0,0.0,0.0,0.0,0.0,0.0,0.0,2.4999,2.5558,2.5835,2.822,2.9467,2.9595,2.7677,2.6282,2.5366,0.0,2.419,2.419,2.419,2.419,2.419,2.419,0.0,0.0,0.0,0.0,0.0,0.0,0.0,0.0,0.0,0.0,0.0,0.0,0.0,2.4247,2.4228,2.4228,2.4412,2.5148,2.5994,2.6657,2.673,0.0,0.0,3.3426,0.0,0.0,0.0,0.0,0.0,0.0,0.0,0.0,0.0,0.0,0.0,0.0,0.0,0.0,0.0,5.2779,5.2104,5.1267,5.0486,4.9627,4.8686,4.78,4.7272,4.721,4.6311,4.5776,4.5719,4.5643,4.5605,4.5586,4.5586,4.5586,4.5586,4.5586,4.5586,4.5586,4.5586,4.5624,4.5776,4.739,4.8143,4.8337,5.001,5.0702,5.0702,5.0702,5.1182,5.1912,5.197,5.195,5.1912,0.0,0.0,0.0,0.0,0.0,0.0,0.0,0.0,0.0,0.0,0.0,0.0,0.0,0.0,0.0,0.0,0.0,0.0,0.0,0.0,0.0,0.0,0.0,2.36,2.3878,2.488,2.5682,2.626,2.8196,2.8792,2.8067,2.7078,0.0,0.0,0.0,2.419,2.419,2.419,2.419,2.419,2.419,2.419,0.0,0.0,0.0,0.0,0.0,0.0,0.0,0.0,2.4247,2.4209,0.0,0.0,2.419,2.419,2.419,2.4263,2.4557,2.597,2.7346,2.7346,0.0,0.0,0.0,0.0,0.0,0.0,0.0,0.0,0.0,0.0,0.0,0.0,0.0,0.0,0.0,0.0,0.0,5.1048,5.076,5.0333,4.9436,4.9151,4.8606,4.7706,4.7318,4.6833,4.62,4.5853,4.5643,4.5586,4.5586,4.5586,4.5586,4.5586,4.5586,4.5586,4.5586,4.5586,4.5586,4.5586,4.5586,4.568,4.6833,4.7643,4.8183,4.9394,5.0221,5.0741,5.1241,5.1626,5.1914,5.1914,5.1914,5.1818,0.0,0.0,0.0,0.0,0.0,0.0,0.0,0.0,0.0,0.0,0.0,0.0,0.0,0.0,0.0,0.0,0.0,0.0,0.0,0.0,0.0,0.0,0.0,2.3123,2.3334,2.4456,2.5482,2.6412,2.7524,2.7662,2.6877,0.0,0.0,0.0,0.0,2.419,2.419,2.419,2.419,2.419,2.419,2.419,0.0,0.0,0.0,0.0,0.0,0.0,0.0,0.0,2.419,0.0,0.0,0.0,0.0,0.0,0.0,2.419,2.419,2.5401,2.6778,0.0,0.0,0.0,0.0,0.0,0.0,0.0,0.0,0.0,0.0,0.0,0.0,0.0,0.0,0.0,0.0,0.0,5.0587,4.9163,4.8837,4.851,4.7913,4.768,4.7313,4.666,4.6621,4.6333,4.5624,4.5586,4.5586,4.5586,4.5586,4.5586,4.5586,4.5586,4.5586,4.5586,4.5586,4.5586,4.5586,4.5586,4.5586,4.5643,4.6525,4.7354,4.8183,4.9029,4.9913,5.0741,5.1299,5.153,5.153,5.153,5.153,5.1433,0.0,0.0,0.0,0.0,0.0,0.0,0.0,0.0,0.0,0.0,0.0,0.0,0.0,0.0,0.0,0.0,0.0,0.0,0.0,0.0,0.0,0.0,0.0,2.2867,2.2616,2.3672,2.4781,2.5993,2.5993,2.5993,2.5959,2.4763,0.0,0.0,0.0,2.419,2.419,2.419,2.419,2.419,2.419,2.419,2.419,0.0,0.0,0.0,0.0,0.0,0.0,0.0,2.419,0.0,0.0,0.0,0.0,0.0,2.419,2.419,2.419,2.4208,0.0,0.0,0.0,0.0,0.0,0.0,0.0,0.0,0.0,0.0,0.0,0.0,0.0,0.0,0.0,0.0,0.0,0.0,4.9048,4.8182,4.7375,4.6894,4.6894,4.6105,4.5586,4.5586,4.5586,4.5566,4.5566,4.5566,4.5566,4.5566,4.5566,4.5586,4.5586,4.5586,4.5586,4.5586,4.5586,4.5586,4.5586,4.5586,4.5586,4.5643,4.6506,4.7332,4.8158,4.9048,4.9913,5.0702,5.0702,5.0702,5.0702,5.0702,5.0702,5.0702,0.0,0.0,0.0,0.0,0.0,0.0,0.0,0.0,0.0,0.0,0.0,0.0,0.0,0.0,0.0,0.0,0.0,0.0,0.0,0.0,0.0,0.0,0.0,0.0,0.0,0.0,2.459,2.4947,2.4947,2.4947,0.0,0.0,0.0,2.419,0.0,0.0,0.0,0.0,2.419,2.419,2.419,2.419,2.419,0.0,0.0,0.0,0.0,0.0,0.0,0.0,0.0,0.0,0.0,0.0,0.0,2.419,2.419,2.419,2.419,0.0,0.0,0.0,0.0,0.0,0.0,0.0,0.0,0.0,0.0,0.0,0.0,0.0,0.0,0.0,0.0,0.0,0.0,4.7644,4.7317,4.6451,4.6124,4.599,4.599,4.574,4.5355,4.4741,4.4703,4.4435,4.3861,4.3841,4.3841,4.3841,4.4378,4.4703,4.4703,4.5297,4.5586,4.5586,4.5586,4.5586,4.5586,4.5586,4.5586,4.5605,4.5873,4.6467,4.737,4.8817,4.9913,5.0702,5.0702,5.0702,5.0702,5.0702,5.0702,5.0702,0.0,0.0,0.0,0.0,0.0,0.0,0.0,0.0,0.0,0.0,0.0,0.0,0.0,0.0,0.0,0.0,0.0,0.0,0.0,0.0,0.0,0.0,0.0,0.0,0.0,2.4284,2.4461,0.0,0.0,0.0,0.0,0.0,0.0,2.419,0.0,2.419,0.0,0.0,2.419,2.419,2.419,2.419,2.419,0.0,0.0,0.0,0.0,0.0,0.0,0.0,0.0,0.0,0.0,0.0,0.0,2.4036,2.3996,2.4069,2.4397,0.0,0.0,0.0,0.0,0.0,0.0,0.0,0.0,0.0,0.0,0.0,0.0,0.0,0.0,0.0,0.0,4.7817,4.7009,4.6605,4.6067,4.5182,4.4797,4.472,4.5066,4.4797,4.4528,4.4316,4.3989,4.3605,4.3143,4.3104,4.3104,4.3104,4.3566,4.3989,4.4301,4.4493,4.4934,4.5586,4.5259,4.5259,4.5586,4.5586,4.5586,4.5605,4.5969,4.6602,4.7486,4.8856,4.9913,5.0702,5.0702,5.0491,5.024,5.0567,5.0471,5.024,0.0,0.0,0.0,0.0,0.0,0.0,0.0,0.0,0.0,0.0,0.0,0.0,0.0,0.0,0.0,0.0,0.0,0.0,0.0,0.0,0.0,0.0,0.0,0.0,0.0,0.0,0.0,0.0,0.0,0.0,0.0,0.0,2.419,2.419,0.0,2.419,0.0,2.419,2.419,2.419,2.419,2.419,2.419,2.419,0.0,0.0,0.0,0.0,0.0,0.0,0.0,0.0,2.4226,0.0,2.4113,2.3795,2.3692,2.3873,0.0,0.0,0.0,0.0,0.0,0.0,0.0,0.0,0.0,0.0,0.0,0.0,0.0,0.0,0.0,0.0,0.0,4.7721,4.6913,4.6028,4.5163,4.4297,4.3547,4.3393,4.4126,4.353,4.3374,4.4023,4.34,4.2954,4.2876,4.2857,4.2857,4.2838,4.2896,4.3288,4.4013,4.338,4.384,4.5372,4.4568,4.4607,4.5374,4.5528,4.5586,4.5624,4.6448,4.7236,4.8062,4.8933,4.9798,5.0567,5.0567,5.0144,4.9606,5.0317,5.0125,4.9644,0.0,0.0,0.0,0.0,0.0,0.0,0.0,0.0,0.0,0.0,0.0,0.0,0.0,0.0,0.0,0.0,0.0,0.0,0.0,0.0,0.0,0.0,0.0,0.0,0.0,0.0,0.0,0.0,0.0,0.0,0.0,0.0,0.0,2.419,0.0,2.419,2.419,2.419,2.419,2.419,2.419,2.419,2.419,2.419,2.4685,0.0,0.0,0.0,0.0,0.0,0.0,0.0,2.4392,2.419,2.4113,2.3795,2.3692,2.3811,0.0,0.0,0.0,0.0,0.0,0.0,0.0,0.0,0.0,0.0,0.0,0.0,0.0,0.0,0.0,0.0,4.7048,4.6855,4.599,4.5124,4.4278,4.3451,4.3217,4.3176,4.3333,4.3201,4.289,4.2383,4.2171,4.1786,4.1097,4.1058,4.0947,4.0754,4.1366,4.1771,4.1947,4.2439,4.3013,4.3631,4.3453,4.3476,4.3688,4.4991,4.5586,4.5605,4.5796,4.6371,4.7236,4.803,4.8875,4.9683,4.9683,4.9971,5.0356,4.9873,4.9989,5.0452,0.0,0.0,0.0,0.0,0.0,0.0,0.0,0.0,0.0,0.0,0.0,0.0,0.0,0.0,0.0,0.0,0.0,0.0,0.0,0.0,0.0,0.0,0.0,0.0,0.0,0.0,0.0,0.0,0.0,0.0,0.0,0.0,0.0,2.419,0.0,2.419,2.419,2.419,2.419,2.419,2.419,2.419,2.419,2.419,2.4685,2.5403,2.5403,0.0,0.0,0.0,0.0,0.0,0.0,0.0,2.4094,2.3628,2.3459,2.357,0.0,0.0,0.0,0.0,0.0,0.0,0.0,0.0,0.0,0.0,0.0,0.0,0.0,0.0,0.0,0.0,4.6278,4.597,4.5105,4.4239,4.3412,4.2585,4.212,4.2024,4.2447,4.2101,4.1678,4.1212,4.0827,4.0177,3.9169,3.9477,3.9569,3.9285,4.0078,4.0696,4.1098,4.1303,4.1893,4.2857,4.2601,4.2893,4.3698,4.4586,4.522,4.5586,4.5432,4.595,4.691,4.7144,4.7857,4.8779,4.8779,4.8817,4.8855,4.8816,4.9067,4.9509,0.0,0.0,0.0,0.0,0.0,0.0,0.0,0.0,0.0,0.0,0.0,0.0,0.0,0.0,0.0,0.0,0.0,0.0,0.0,0.0,0.0,0.0,0.0,0.0,0.0,0.0,0.0,0.0,0.0,0.0,0.0,0.0,0.0,2.419,0.0,0.0,2.419,2.419,2.419,2.419,2.419,2.4281,2.4392,2.4245,2.4777,2.5623,2.5623,2.6117,2.6686,2.5878,0.0,0.0,0.0,0.0,2.4074,2.3392,2.3189,2.3294,0.0,0.0,0.0,0.0,0.0,0.0,0.0,0.0,0.0,0.0,0.0,0.0,0.0,0.0,0.0,0.0,4.5337,4.5009,4.4008,4.3181,4.2335,4.1453,4.0604,4.0338,4.102,4.0457,4.0065,4.0015,3.9384,3.8597,3.7644,3.8188,3.8393,3.8116,3.8891,3.959,4.0167,3.9883,4.0454,4.1863,4.1709,4.236,4.3721,4.3989,4.4626,4.549,4.5163,4.5572,4.6491,4.6357,4.6894,4.7799,4.7876,4.7586,4.716,4.7702,4.7972,4.8203,0.0,0.0,0.0,0.0,0.0,0.0,0.0,0.0,0.0,0.0,0.0,0.0,0.0,0.0,0.0,0.0,0.0,0.0,2.2957,0.0,0.0,2.2515,2.3596,0.0,0.0,0.0,0.0,0.0,0.0,0.0,0.0,0.0,0.0,2.419,0.0,0.0,0.0,2.419,2.419,2.419,2.419,2.4612,2.5164,2.4465,2.5126,2.6447,2.6447,2.6961,2.7512,2.6704,2.6447,0.0,0.0,0.0,2.4074,2.3392,2.3189,2.3245,0.0,0.0,0.0,0.0,0.0,0.0,0.0,0.0,0.0,0.0,0.0,0.0,0.0,0.0,0.0,0.0,4.4269,4.3932,4.2354,4.138,4.0553,3.9727,3.8858,3.8284,3.8175,3.8271,3.8235,3.7997,3.7884,3.7761,3.7613,3.7489,3.7257,3.6932,3.7716,3.7863,3.7259,3.7879,3.8445,3.8981,4.0296,4.1078,4.1405,4.2802,4.407,4.5163,4.4818,4.4772,4.4978,4.5906,4.6392,4.6584,4.6912,4.7428,4.7869,4.7276,4.7488,4.8121,0.0,0.0,0.0,0.0,0.0,0.0,0.0,0.0,0.0,0.0,0.0,0.0,0.0,0.0,0.0,2.3639,2.3873,2.3837,2.35,2.3477,2.34,2.3166,2.3833,2.419,0.0,0.0,0.0,0.0,0.0,0.0,0.0,2.4814,2.5346,0.0,0.0,0.0,0.0,0.0,2.419,2.4245,2.4685,2.4795,2.474,2.4832,2.5034,2.5364,2.6282,2.6539,2.6465,2.6576,2.63,2.5731,2.4575,0.0,0.0,0.0,0.0,0.0,0.0,0.0,0.0,0.0,0.0,0.0,0.0,0.0,0.0,0.0,0.0,0.0,0.0,0.0,0.0,0.0,4.3407,4.3129,4.1722,4.0803,3.9907,3.8899,3.8059,3.7507,3.7392,3.749,3.7317,3.669,3.6642,3.637,3.5715,3.6039,3.6096,3.5752,3.6544,3.6835,3.6474,3.6964,3.7617,3.8413,3.958,4.0628,4.1605,4.2109,4.3001,4.4108,4.4202,4.4386,4.4623,4.4907,4.5247,4.5643,4.5815,4.6219,4.666,4.6313,4.6698,4.7428,0.0,0.0,0.0,0.0,0.0,0.0,0.0,0.0,0.0,0.0,0.0,0.0,0.0,0.0,0.0,0.0,2.419,2.4074,2.3714,2.3692,2.3692,2.3692,2.4016,2.419,2.419,0.0,0.0,0.0,0.0,0.0,2.452,2.5328,2.6447,0.0,2.6961,0.0,0.0,0.0,0.0,0.0,2.4944,2.485,2.4538,2.4924,2.4832,2.4649,2.586,2.5897,2.5495,2.608,2.5897,2.5274,2.4447,2.419,0.0,0.0,0.0,0.0,0.0,0.0,0.0,0.0,0.0,0.0,0.0,0.0,0.0,0.0,0.0,0.0,0.0,0.0,0.0,0.0,4.2374,4.2106,4.0864,3.9927,3.8948,3.7907,3.7065,3.6534,3.6449,3.6521,3.6264,3.5524,3.5473,3.5097,3.4241,3.4748,3.4942,3.4694,3.5522,3.5883,3.5677,3.6279,3.7026,3.7882,3.9087,4.0226,4.1251,4.1411,4.1963,4.2787,4.3516,4.4044,4.4299,4.4081,4.4304,4.4832,4.492,4.5182,4.547,4.547,4.595,4.6564,0.0,0.0,0.0,0.0,0.0,0.0,0.0,0.0,0.0,0.0,0.0,0.0,0.0,2.3676,2.4153,2.419,2.419,2.4074,2.3714,2.3692,2.3692,2.3692,2.4016,0.0,2.419,0.0,0.0,0.0,0.0,0.0,2.5366,2.6153,2.6998,2.775,2.6961,2.6172,2.5458,0.0,0.0,0.0,0.0,0.0,0.0,0.0,2.4704,0.0,0.0,2.5439,2.5421,2.5458,2.5439,2.5274,2.4447,2.419,0.0,0.0,0.0,0.0,0.0,0.0,0.0,0.0,0.0,0.0,0.0,0.0,0.0,0.0,0.0,0.0,0.0,0.0,0.0,0.0,4.0967,4.0555,3.9223,3.8005,3.6939,3.6123,3.5317,3.4711,3.4389,3.4637,3.467,3.4315,3.4282,3.4262,3.4189,3.3995,3.3887,3.3844,3.4668,3.4705,3.3954,3.5522,3.6362,3.6455,3.8762,3.9534,3.8915,4.0452,4.117,4.1316,4.2842,4.3516,4.3587,4.3897,4.4039,4.4105,4.4484,4.4837,4.5143,4.5143,4.5355,4.5605,0.0,0.0,0.0,0.0,0.0,0.0,0.0,0.0,0.0,0.0,0.0,0.0,0.0,2.4025,2.419,2.419,2.419,2.4151,2.4016,2.4016,2.4016,2.4016,2.3917,2.3976,2.4208,2.3671,0.0,0.0,0.0,2.4021,2.4649,2.5438,2.5713,2.5511,2.6264,2.6447,2.6098,2.5071,0.0,0.0,0.0,0.0,0.0,0.0,0.0,0.0,0.0,0.0,0.0,2.5237,2.5072,0.0,0.0,0.0,0.0,0.0,0.0,0.0,0.0,0.0,0.0,0.0,0.0,0.0,0.0,0.0,0.0,0.0,0.0,0.0,0.0,0.0,0.0,0.0,3.8715,3.8282,3.7589,3.6222,3.5112,3.4611,3.3395,3.2532,3.2428,3.25,3.276,3.3148,3.3165,3.3393,3.3908,3.3864,3.3807,3.3807,3.4072,3.4091,3.3807,3.4916,3.5744,3.6315,3.7705,3.8744,3.9498,4.0079,4.0611,4.1158,4.2252,4.3023,4.3497,4.3642,4.3789,4.4021,4.417,4.443,4.4777,4.4785,4.4857,4.4934,0.0,0.0,0.0,0.0,0.0,0.0,0.0,0.0,0.0,0.0,0.0,0.0,0.0,0.0,2.419,2.419,2.419,2.419,2.419,2.419,2.419,2.419,2.3876,2.3795,2.4016,2.3369,0.0,0.0,0.0,0.0,0.0,2.474,2.4704,2.4245,2.5328,2.5933,0.0,0.0,0.0,2.5034,0.0,0.0,2.5474,0.0,0.0,0.0,0.0,0.0,0.0,0.0,0.0,0.0,0.0,0.0,0.0,0.0,0.0,0.0,0.0,0.0,0.0,0.0,0.0,0.0,0.0,0.0,0.0,0.0,0.0,0.0,0.0,0.0,0.0,0.0,3.7156,3.6662,3.5981,3.4878,3.3845,3.3085,3.2054,3.1415,3.1411,3.1393,3.162,3.2173,3.219,0.0,3.2966,3.2985,3.3121,3.3386,3.3652,3.3807,3.3807,3.4586,3.5294,3.5882,3.6979,3.8047,3.9087,3.9357,3.9933,4.0745,4.1544,4.2359,4.3114,4.3387,4.3642,4.3807,4.3807,4.4062,4.4398,4.441,4.4558,4.4729,0.0,0.0,0.0,0.0,0.0,0.0,0.0,0.0,0.0,0.0,0.0,0.0,0.0,0.0,0.0,2.419,2.419,2.419,2.419,2.419,2.419,2.419,2.3876,2.3692,2.3692,2.3045,0.0,0.0,0.0,0.0,0.0,0.0,2.419,0.0,2.419,2.463,2.5421,0.0,2.6539,2.6502,0.0,2.634,2.775,0.0,0.0,0.0,2.8044,2.7273,0.0,2.5695,0.0,0.0,0.0,0.0,0.0,0.0,0.0,0.0,0.0,0.0,0.0,0.0,0.0,0.0,0.0,0.0,0.0,0.0,0.0,0.0,0.0,0.0,0.0,0.0,3.6297,3.5708,3.4405,3.3876,3.3073,3.1513,3.1292,3.1274,3.1293,3.1275,3.1293,3.1372,3.1345,3.1356,3.1419,3.1437,3.1792,3.261,3.3386,3.3807,3.3807,3.4567,3.4971,3.5026,3.6648,3.7436,3.7528,3.8297,3.9087,3.9896,4.0708,4.1535,4.2315,4.3151,4.3497,4.3497,4.3497,4.3697,4.3989,4.3989,4.4428,4.4939,0.0,0.0,0.0,0.0,0.0,0.0,0.0,0.0,0.0,0.0,0.0,0.0,0.0,0.0,0.0,2.419,2.419,2.419,2.419,2.419,2.419,2.419,2.3649,2.3437,2.3692,2.3045,0.0,0.0,0.0,0.0,0.0,0.0,0.0,0.0,2.419,2.4318,2.4538,2.4777,0.0,0.0,2.485,2.5493,0.0,0.0,0.0,0.0,0.0,2.7163,2.7346,0.0,2.6117,2.5798,0.0,0.0,0.0,0.0,0.0,0.0,2.231,0.0,0.0,0.0,0.0,0.0,0.0,0.0,0.0,0.0,0.0,0.0,0.0,0.0,0.0,0.0,3.2047,3.2629,3.225,3.1127,3.0161,2.9728,2.864,2.8158,2.875,2.8787,2.9278,0.0,3.0538,3.079,3.1378,3.1942,3.2631,3.345,3.3697,3.3807,3.3807,3.4017,3.442,3.5008,3.5469,3.634,3.7509,3.7723,3.8261,3.9068,3.9878,4.0703,4.1517,4.2915,4.3497,4.3497,4.3497,4.3569,4.3642,4.3642,4.3771,4.3919,0.0,0.0,0.0,0.0,0.0,0.0,0.0,0.0,0.0,0.0,0.0,0.0,0.0,0.0,0.0,2.419,2.419,2.419,2.419,2.419,2.419,2.419,2.3692,2.35,2.3692,2.3165,0.0,0.0,0.0,0.0,0.0,0.0,0.0,0.0,0.0,0.0,0.0,0.0,0.0,0.0,2.4887,0.0,0.0,2.709,2.7897,0.0,0.0,0.0,2.9072,2.7603,2.7108,0.0,0.0,0.0,0.0,0.0,0.0,0.0,0.0,0.0,0.0,0.0,0.0,0.0,2.3239,2.3944,0.0,0.0,0.0,0.0,0.0,0.0,0.0,0.0,0.0,2.9512,2.9843,2.909,2.8388,2.8041,2.7173,2.6926,2.7724,2.7515,2.7963,2.9577,2.9389,2.954,3.0351,3.117,3.1825,3.2265,3.2948,3.3313,3.3313,3.3615,3.4036,3.4512,3.5219,3.604,3.7011,3.7674,3.8261,3.8744,3.9553,4.0152,4.072,4.2328,4.3188,4.3497,4.3497,4.3497,4.3497,4.3497,4.3605,4.3686,0.0,0.0,0.0,0.0,0.0,0.0,0.0,0.0,0.0,0.0,0.0,0.0,0.0,0.0,0.0,0.0,2.4245,2.419,2.419,2.419,0.0,2.419,2.3876,2.3692,2.3692,2.3414,0.0,0.0,0.0,0.0,0.0,0.0,0.0,0.0,0.0,0.0,0.0,0.0,0.0,2.5274,2.5274,2.6759,0.0,0.0,2.9787,3.1146,3.0356,3.0577,3.0925,2.8686,2.7816,0.0,0.0,0.0,0.0,0.0,2.3123,0.0,0.0,0.0,0.0,0.0,0.0,0.0,2.3746,2.3613,2.3726,0.0,0.0,0.0,0.0,0.0,0.0,0.0,0.0,2.6649,2.753,2.7585,2.7295,2.6675,2.6431,2.668,2.7529,2.6958,2.7141,2.8631,2.8173,2.8169,2.8957,2.9726,3.0178,3.0277,3.179,3.2601,3.261,3.3386,3.3807,3.3825,3.5293,3.613,3.6362,3.7794,3.853,3.8744,3.9461,3.986,4.0136,4.1574,4.2622,4.3387,4.3461,4.3497,4.3497,4.3497,4.3697,4.3915,2.2813,0.0,0.0,0.0,0.0,0.0,0.0,0.0,0.0,0.0,0.0,0.0,0.0,0.0,0.0,0.0,0.0,2.419,2.419,0.0,0.0,2.419,2.3876,2.3692,2.3692,2.3649,0.0,0.0,0.0,0.0,0.0,0.0,0.0,0.0,0.0,0.0,0.0,0.0,0.0,2.4428,2.4428,0.0,2.8847,2.7567,2.8484,3.0338,2.9531,2.9751,3.0265,2.9145,2.7973,2.6826,0.0,0.0,0.0,2.3556,0.0,0.0,0.0,0.0,0.0,0.0,0.0,0.0,2.329,2.4042,2.5024,0.0,0.0,0.0,0.0,0.0,0.0,0.0,0.0,2.5181,2.6631,2.6282,2.6062,2.653,2.5472,2.5131,2.632,2.6249,2.6417,2.7169,2.7622,2.8223,2.9053,2.9489,3.0044,3.0722,3.1954,3.26,3.261,3.3386,3.3807,3.3807,3.4109,3.499,3.6309,3.6644,3.7473,3.8707,3.8854,3.9663,4.0905,4.1193,4.1801,4.2587,4.3243,4.3497,4.3497,4.3497,4.3516,4.3605,2.3437,0.0,0.0,0.0,0.0,0.0,0.0,0.0,0.0,0.0,0.0,0.0,0.0,0.0,0.0,0.0,0.0,0.0,0.0,0.0,0.0,0.0,2.4036,2.3937,2.3937,0.0,0.0,0.0,0.0,0.0,0.0,0.0,0.0,0.0,0.0,0.0,0.0,0.0,2.4667,2.5328,2.452,0.0,2.7732,2.6924,2.786,2.9549,2.9122,2.9531,3.021,3.021,2.9448,0.0,2.7121,2.649,2.5962,0.0,2.4763,2.4966,0.0,0.0,0.0,2.4678,0.0,0.0,0.0,2.4168,2.4804,2.5183,0.0,0.0,2.6478,0.0,0.0,0.0,2.4896,2.4658,2.5865,2.5342,2.4823,2.4883,2.4328,2.429,2.5168,2.4855,2.5023,2.6065,2.6914,2.7692,2.8472,2.8831,2.9197,2.9651,3.1182,3.1992,3.2001,3.3195,3.3807,3.3807,3.4209,3.5073,3.6303,3.6723,3.7546,3.8707,3.8707,3.9173,3.997,4.0758,4.1357,4.1807,4.3041,4.3497,4.3497,4.3497,4.3497,4.3497,2.408,0.0,0.0,0.0,0.0,0.0,0.0,0.0,0.0,0.0,0.0,0.0,0.0,0.0,0.0,0.0,0.0,0.0,0.0,0.0,0.0,0.0,0.0,2.419,2.419,2.419,0.0,0.0,0.0,0.0,0.0,0.0,0.0,0.0,0.0,0.0,0.0,0.0,0.0,2.6264,0.0,2.564,2.7053,2.6888,2.7732,2.8994,2.8994,2.9531,3.0301,3.0944,3.0759,2.9948,2.8556,2.8129,0.0,0.0,0.0,0.0,0.0,0.0,0.0,0.0,0.0,2.4862,0.0,0.0,0.0,0.0,0.0,0.0,0.0,0.0,0.0,0.0,0.0,0.0,0.0,2.4644,0.0,2.3892,2.3721,2.3904,2.4682,2.4077,2.4257,2.5642,2.637,2.7046,2.764,2.8014,2.822,2.8291,3.0088,3.114,3.1392,3.2838,3.3633,3.3807,3.4457,3.5293,3.6324,3.6971,3.7778,3.8707,3.8707,3.8781,3.9019,4.0339,4.1058,4.148,4.2915,4.3497,4.3497,4.3497,4.3497,4.3497,2.4228,2.419,0.0,0.0,0.0,0.0,0.0,0.0,0.0,0.0,0.0,0.0,0.0,0.0,0.0,0.0,0.0,0.0,2.7236,0.0,0.0,0.0,0.0,2.419,2.419,2.419,2.419,0.0,0.0,0.0,0.0,0.0,0.0,0.0,2.419,0.0,0.0,0.0,2.5384,0.0,2.6117,2.7291,0.0,2.7934,2.8227,2.8994,2.8994,2.9531,3.021,0.0,3.0278,3.0054,0.0,2.8905,2.8558,2.703,0.0,0.0,0.0,0.0,0.0,0.0,2.6031,0.0,0.0,0.0,2.6839,2.6619,0.0,0.0,0.0,0.0,0.0,0.0,0.0,0.0,2.4086,2.4249,2.4789,2.6127,2.4499,2.3972,2.5805,2.5579,2.5662,2.651,2.6659,2.6759,2.6826,2.7216,2.7592,2.7934,2.9163,3.0308,3.1392,3.2283,3.3085,3.3807,3.388,3.476,3.6305,3.6399,3.7259,3.8707,3.8707,3.9087,3.9786,3.9958,4.0891,4.226,4.3151,4.3497,4.3497,4.3497,4.3497,4.3497,2.4247,2.419,0.0,0.0,0.0,0.0,0.0,0.0,0.0,0.0,0.0,0.0,0.0,0.0,0.0,0.0,0.0,2.6521,0.0,0.0,0.0,0.0,0.0,0.0,2.4887,2.4428,2.419,0.0,2.419,0.0,0.0,0.0,0.0,0.0,2.419,0.0,2.4722,0.0,2.5658,0.0,0.0,0.0,0.0,2.8117,2.8594,2.9714,2.9714,3.0522,3.1531,0.0,3.1224,0.0,0.0,0.0,0.0,2.8236,0.0,0.0,0.0,0.0,0.0,0.0,0.0,0.0,2.5442,0.0,2.645,0.0,0.0,0.0,0.0,0.0,0.0,0.0,2.4743,0.0,0.0,0.0,2.3539,0.0,0.0,0.0,2.5154,2.5052,2.527,2.5997,2.6081,2.6253,2.6674,2.708,2.7375,2.7543,2.9123,3.0184,3.0693,3.1942,3.2702,3.3066,3.3066,3.4054,3.5882,3.5901,3.6918,3.8707,3.8707,3.8903,3.9246,3.9731,4.0307,4.0983,4.18,4.266,4.3497,4.3497,4.3497,4.3497,2.4266,0.0,0.0,0.0,0.0,0.0,0.0,0.0,0.0,0.0,0.0,0.0,3.0393,3.0008,0.0,0.0,2.9971,2.8539,0.0,0.0,2.4924,0.0,0.0,0.0,2.5072,2.4502,2.419,0.0,0.0,0.0,0.0,0.0,0.0,0.0,0.0,2.452,2.4575,0.0,2.6062,2.6667,2.7475,2.8282,2.892,2.8356,2.8998,3.021,3.021,3.1237,3.2522,3.1935,3.2099,0.0,3.1827,3.073,2.9632,0.0,0.0,0.0,2.642,0.0,0.0,0.0,0.0,0.0,0.0,0.0,0.0,0.0,0.0,0.0,0.0,0.0,0.0,0.0,0.0,2.412,0.0,0.0,0.0,0.0,0.0,0.0,0.0,2.4671,2.5007,2.5564,2.5615,2.5849,2.6387,2.686,2.7267,2.7606,2.8963,2.9944,3.0495,3.1624,3.2283,3.2493,3.2493,3.3418,3.5078,3.5442,3.6528,3.8206,3.8548,3.8707,3.8744,3.932,3.9712,3.997,4.0518,4.1757,4.3159,4.3167,4.3314,4.3497,2.4266,2.419,0.0,0.0,0.0,0.0,0.0,0.0,0.0,0.0,0.0,0.0,0.0,0.0,0.0,0.0,0.0,3.1256,3.1237,0.0,2.5841,0.0,0.0,2.4208,0.0,2.4208,2.419,0.0,0.0,0.0,0.0,0.0,0.0,0.0,0.0,2.5366,2.5421,2.6227,2.6594,2.6667,2.7475,2.8282,2.8994,0.0,2.9494,3.021,3.021,0.0,0.0,3.2577,3.2538,0.0,0.0,0.0,0.0,0.0,0.0,0.0,0.0,0.0,0.0,2.6657,0.0,0.0,0.0,0.0,2.7554,0.0,0.0,0.0,0.0,0.0,0.0,0.0,0.0,0.0,0.0,0.0,0.0,0.0,0.0,0.0,0.0,2.5162,2.5564,2.5615,2.5615,2.5615,2.5631,2.6303,2.7216,2.8338,2.844,2.9368,3.124,3.1308,3.1708,3.25,3.25,3.296,3.3813,3.5034,3.6048,3.6936,3.8169,3.8707,3.8707,3.8726,3.9209,3.9896,3.9933,4.0911,4.2347,4.2341,4.2823,4.3497,0.0,0.0,0.0,0.0,0.0,0.0,0.0,2.6759,0.0,0.0,0.0,0.0,0.0,3.6229,3.689,0.0,0.0,3.4394,3.3825,3.0779,0.0,0.0,2.6869,2.608,0.0,2.4979,0.0,0.0,0.0,0.0,0.0,0.0,0.0,0.0,0.0,2.619,0.0,0.0,0.0,0.0,0.0,2.9861,3.0522,0.0,3.0283,3.1054,3.1604,3.2485,0.0,3.3385,3.3201,3.2921,3.2583,3.176,3.0776,3.0272,2.9583,2.8924,0.0,0.0,2.8213,2.8213,0.0,0.0,0.0,0.0,0.0,0.0,0.0,0.0,0.0,0.0,0.0,0.0,0.0,0.0,0.0,0.0,0.0,0.0,0.0,0.0,0.0,0.0,2.5423,2.4913,2.53,2.5609,2.5598,2.6286,2.6894,2.725,2.8277,2.9101,2.9777,3.0735,3.1365,3.1647,3.1647,3.2474,3.4029,3.4471,3.5559,3.7131,3.7863,3.8169,3.8206,3.8548,3.9173,3.9896,3.9896,4.0886,4.2292,4.2286,4.2805,4.3497,2.4727,0.0,0.0,0.0,0.0,0.0,0.0,0.0,0.0,0.0,3.3678,0.0,3.8414,0.0,3.9441,0.0,3.8634,3.6853,3.51,3.2797,0.0,2.9067,2.8227,2.7181,0.0,2.555,2.5017,0.0,0.0,2.463,0.0,0.0,0.0,0.0,0.0,2.6869,2.6649,2.7457,2.7787,0.0,0.0,3.0503,0.0,0.0,3.1549,3.2284,0.0,3.3128,3.3807,3.3807,3.3522,3.3124,3.2648,3.1863,3.1026,3.0615,2.9973,2.9381,2.9381,2.9194,0.0,2.9011,2.8602,0.0,2.8873,0.0,2.8552,0.0,0.0,0.0,0.0,0.0,0.0,0.0,0.0,0.0,0.0,2.2598,0.0,0.0,0.0,0.0,0.0,2.4557,2.4608,2.4143,2.4552,2.4924,2.518,2.59,2.6674,2.7487,2.8465,2.924,2.9777,3.0718,3.119,3.119,3.119,3.1856,3.3162,3.3847,3.4918,3.6203,3.722,3.7747,3.7937,3.8261,3.8995,3.9896,3.99,4.0882,4.23,4.2307,4.2805,4.3497,0.0,0.0,0.0,0.0,2.582,0.0,0.0,0.0,3.3189,0.0,3.544,3.711,3.8762,3.9625,4.0377,4.1167,4.0451,3.8634,3.5504,3.4486,0.0,0.0,2.8466,2.7603,2.6686,2.586,2.5071,2.4318,0.0,0.0,0.0,0.0,0.0,0.0,2.7493,0.0,2.6778,2.753,2.7879,2.8062,2.9622,3.032,3.0558,3.2082,3.3164,3.3752,3.2963,3.3146,3.3807,3.3807,3.3522,3.3124,3.2648,3.2161,3.1716,3.1312,3.07,3.0159,3.0159,2.9634,2.913,2.913,2.9059,0.0,0.0,0.0,2.9905,0.0,0.0,0.0,0.0,0.0,0.0,0.0,0.0,0.0,0.0,0.0,0.0,0.0,0.0,0.0,0.0,2.3397,2.3371,2.3338,2.3374,2.3727,0.0,2.5196,2.6624,2.8886,2.899,2.9709,3.114,3.1173,3.119,3.119,3.119,3.1207,3.1309,3.3252,3.4186,3.4303,3.6282,3.7409,3.7812,3.7869,3.8689,3.9921,3.9932,4.0919,4.2351,4.2351,4.2842,4.3497,2.4917,2.5616,2.6542,0.0,2.6525,2.6841,0.0,0.0,0.0,0.0,3.7955,3.9808,4.2029,4.2451,4.2653,4.2873,4.1607,0.0,0.0,0.0,0.0,3.2687,3.1806,3.0155,2.7548,2.6704,2.619,2.5988,0.0,0.0,2.6319,0.0,0.0,0.0,0.0,0.0,2.8411,2.8613,2.9053,2.9677,3.0668,3.1806,3.2926,0.0,3.399,3.4596,3.3788,3.3623,3.3807,3.3807,3.3522,3.3124,3.2648,3.2161,3.1716,3.1312,3.1072,3.092,3.092,3.0768,3.0632,3.0632,3.0209,2.9956,0.0,0.0,0.0,0.0,0.0,2.9465,2.8332,0.0,0.0,0.0,0.0,0.0,0.0,0.0,0.0,2.3054,0.0,0.0,2.2581,2.3059,2.3161,2.262,2.3083,2.3723,2.4458,2.521,2.637,2.8041,2.869,2.9458,3.0387,3.0909,3.119,3.119,3.119,3.1489,3.2049,3.3119,3.391,3.4482,3.5983,3.6654,3.683,3.7226,3.8493,4.0191,4.0203,4.1426,4.3188,4.3188,4.3332,4.3497,2.6553,0.0,0.0,2.9795,0.0,0.0,3.1649,3.303,0.0,3.7654,3.9423,0.0,4.2493,4.3174,4.3582,4.3693,4.211,0.0,4.0598,0.0,0.0,3.4431,3.3238,3.1421,2.8888,2.7365,2.6612,2.6612,0.0,0.0,2.7126,0.0,0.0,0.0,0.0,2.8994,2.8994,2.8994,2.9677,3.076,3.1219,3.2155,0.0,3.3678,3.4082,3.4431,3.3972,3.3807,3.3807,3.3807,3.3522,3.3124,3.2648,3.2161,3.1716,3.1312,3.119,3.119,3.119,3.119,3.119,3.119,3.0886,3.0683,3.1106,3.0869,3.0581,3.0581,3.0328,2.9939,2.9397,0.0,0.0,0.0,0.0,0.0,0.0,0.0,0.0,0.0,2.3038,0.0,2.2344,2.2682,2.2885,2.2801,2.3173,2.3863,2.4907,2.5375,2.6438,2.8277,2.908,2.9828,3.0561,3.1314,3.1506,3.119,3.119,3.1438,3.1856,3.2923,3.3624,3.4091,3.5476,3.6197,3.6468,3.7061,3.851,4.0368,4.1058,4.192,4.2751,4.2751,4.3077,4.3497,2.888,0.0,0.0,0.0,0.0,0.0,0.0,3.6124,0.0,3.8902,0.0,4.1625,4.195,4.286,4.356,4.3818,0.0,4.0698,3.9937,3.9148,3.7643,3.5265,3.3707,3.2118,3.0393,2.7989,2.6814,0.0,0.0,0.0,0.0,0.0,0.0,0.0,0.0,0.0,0.0,2.9104,3.0026,3.1403,3.1513,3.2045,3.2834,3.3532,3.3807,3.3807,3.3807,3.3807,3.3807,3.3807,3.3578,3.3214,3.2745,3.2264,3.1825,3.1389,3.1252,3.119,3.119,3.119,3.119,3.119,3.119,3.119,3.119,3.119,3.119,3.119,3.0683,3.0412,3.0954,0.0,0.0,0.0,0.0,0.0,0.0,0.0,0.0,0.0,0.0,0.0,2.2784,2.2564,2.2716,2.3342,2.3477,2.4154,2.5541,0.0,2.6589,2.8745,2.9572,3.0426,3.1326,3.1873,3.1924,3.1478,3.1275,3.1241,3.1376,3.278,3.3472,3.3617,3.4987,3.5853,3.635,3.7097,3.8503,4.0383,4.1887,4.2239,4.1902,4.1851,4.2529,4.347,0.0,0.0,0.0,0.0,0.0,3.7836,3.9034,3.8869,3.9203,4.0857,4.2493,4.3647,4.4041,4.363,4.325,4.3021,4.1444,0.0,0.0,0.0,0.0,3.6156,3.5128,3.3532,3.1237,2.8815,2.7915,0.0,0.0,0.0,0.0,0.0,0.0,0.0,0.0,0.0,2.903,2.9714,0.0,3.1458,3.2118,3.2871,3.3605,3.3752,3.3807,3.3807,3.3807,3.3807,3.3807,3.3807,3.3734,3.3606,3.3214,3.2745,3.2282,3.1825,3.147,3.119,3.119,3.119,3.119,3.119,3.119,3.119,3.119,3.119,3.119,3.119,3.1089,3.0869,3.0378,2.8252,0.0,0.0,0.0,0.0,0.0,0.0,0.0,0.0,0.0,2.3833,0.0,2.3917,2.3257,2.3376,2.3951,2.4678,2.5558,0.0,2.6336,0.0,2.878,3.0128,0.0,0.0,3.1941,3.3,3.1782,3.1512,3.2121,3.3,3.3719,3.4368,3.5222,3.5656,3.5808,3.6585,3.8105,3.9964,4.0874,4.1771,4.2499,4.1954,4.2492,4.3465,0.0,0.0,0.0,0.0,0.0,0.0,0.0,4.1592,4.1819,4.1633,4.2426,4.2987,4.2951,4.3151,4.3069,4.2498,4.1147,4.0195,3.9913,3.8762,3.7551,3.634,3.5073,3.344,3.1439,2.9439,2.8613,2.8994,0.0,0.0,0.0,0.0,0.0,0.0,0.0,2.9214,0.0,0.0,0.0,3.21,3.2908,3.3715,3.4486,3.4926,3.5092,3.5092,3.5092,3.4816,3.4376,3.3935,3.368,3.3447,3.3273,3.289,3.2417,3.1915,3.166,3.1487,3.1269,3.119,3.1275,3.1664,3.1461,3.1292,3.1664,3.1749,3.1647,3.1275,3.1495,3.141,3.0311,2.882,2.7787,2.7801,0.0,0.0,0.0,0.0,2.5473,0.0,0.0,0.0,0.0,0.0,0.0,0.0,0.0,2.5389,2.6133,0.0,2.6674,0.0,0.0,0.0,3.114,0.0,3.1918,3.2256,3.1918,3.1935,3.2364,3.3457,3.4167,3.4539,3.5301,3.5622,3.5707,3.7166,3.8625,4.0031,4.1019,4.154,4.1763,4.1789,4.2352,4.3102,0.0,3.8239,0.0,0.0,4.0568,0.0,4.2221,4.3668,4.4134,4.2554,4.2574,4.2538,4.2068,4.2759,4.2896,4.1944,4.0802,3.9928,3.9417,3.8193,3.7055,3.6064,3.4596,3.3054,3.1421,2.9824,2.8994,2.8994,2.8374,0.0,0.0,0.0,0.0,0.0,0.0,0.0,0.0,0.0,3.1292,3.2687,3.3476,3.4192,3.4853,3.5697,3.5917,3.5826,3.6156,3.5752,3.4917,3.4486,3.387,3.3368,3.3531,3.314,3.2583,3.2196,3.2022,3.1861,3.1449,3.1431,3.1703,3.2178,3.185,3.1579,3.2154,3.2195,3.1884,3.1309,3.1647,3.1658,3.0376,2.954,2.8737,2.7831,2.7168,0.0,0.0,0.0,2.6268,0.0,0.0,0.0,2.4137,2.4475,2.5033,0.0,0.0,0.0,2.6657,0.0,0.0,0.0,0.0,3.0091,3.0565,0.0,3.2002,3.1901,3.2154,3.2442,3.2797,3.3964,3.4573,3.4776,3.5368,3.5808,3.6243,3.803,3.9264,4.0221,4.1209,4.14,4.1177,4.1771,4.2351,4.2915,0.0,0.0,0.0,0.0,0.0,0.0,4.3171,4.4246,4.4995,4.4801,4.4805,4.4607,4.4091,4.3476,4.2546,4.1146,4.0179,3.9121,3.7812,3.7599,3.678,3.5174,3.4284,3.3054,3.1421,2.9824,2.8994,2.8994,2.892,2.892,0.0,0.0,0.0,0.0,0.0,0.0,0.0,3.098,3.1806,3.2687,3.3476,3.3844,3.4009,3.4816,3.4688,3.4229,3.5752,3.5752,3.51,3.5826,3.5027,3.3863,3.4614,3.4047,3.3124,3.3075,3.2777,3.235,3.1861,3.2288,3.2745,3.2377,3.2263,3.2246,3.2256,3.1765,3.1275,3.1207,3.1241,3.1066,3.041,2.9316,2.8239,2.7476,2.6752,0.0,0.0,0.0,2.664,2.6505,0.0,0.0,2.6319,2.5845,2.5795,2.6539,2.659,0.0,0.0,0.0,0.0,2.7772,2.8653,3.0057,3.2053,3.1562,3.2273,3.4167,3.2899,3.2983,3.4286,3.4438,3.4861,3.552,3.5588,3.64,3.7753,3.8645,3.9393,4.0172,4.0762,4.1254,4.1793,4.2395,4.2951,4.3424,0.0,0.0,0.0,0.0,0.0,0.0,0.0,4.4972,4.54,4.54,4.494,4.4344,4.3645,4.2835,4.1813,4.0532,3.9921,3.9051,3.7821,3.7145,3.6248,3.5045,3.4229,3.3054,3.1421,3.076,2.9971,2.8994,2.9494,0.0,0.0,0.0,0.0,0.0,0.0,3.0467,3.0962,3.1788,3.232,3.2779,3.4578,3.5,3.4688,3.5991,3.5991,3.544,3.6597,3.6486,3.5991,3.7294,3.6321,3.4596,3.4899,3.4338,3.3522,3.3273,3.289,3.2489,3.2506,3.2225,3.2195,3.3354,3.2611,3.1867,3.2747,3.2374,3.1715,3.1275,3.119,3.1112,3.0878,3.0104,2.9179,2.8021,2.7557,2.7026,0.0,0.0,0.0,2.6099,0.0,2.522,2.5981,2.5372,2.5423,2.6607,0.0,0.0,0.0,0.0,0.0,2.7772,0.0,2.9634,3.097,3.1562,3.229,3.3169,3.3474,3.3914,3.4506,3.4962,3.5334,3.5639,3.6113,3.6924,3.7973,3.87,3.9411,4.0172,4.0679,4.1276,4.1884,4.2466,4.3041,4.3442,4.3825,0.0,4.3063,0.0,4.3905,4.4039,4.5091,4.5438,4.5586,4.5586,4.4643,4.372,4.3162,4.2316,4.1332,4.0196,3.9652,3.8882,3.7729,3.6731,3.5769,3.4805,3.4002,0.0,3.177,3.1513,3.0834,2.9714,3.0522,0.0,0.0,0.0,0.0,0.0,3.0797,3.1219,3.1788,3.2375,3.2742,3.3109,3.4853,3.5202,3.4789,3.6211,3.6266,3.5734,3.7019,3.6964,3.6505,3.7881,3.7184,3.5697,3.5477,3.4835,3.4046,3.352,3.3136,3.2902,3.2862,3.2567,3.25,3.3575,3.2831,3.2053,3.2899,3.251,3.1816,3.1309,3.119,3.1151,3.0975,3.0576,2.9839,2.8469,2.8188,2.7668,2.6508,2.6535,0.0,2.5998,2.5456,2.5338,2.5879,2.5439,2.5575,2.6607,0.0,0.0,0.0,0.0,0.0,0.0,0.0,0.0,3.0429,3.1664,3.2391,3.2628,3.3897,3.4726,3.5182,3.5723,3.6079,3.6332,3.6874,3.7533,3.8278,3.9005,3.9614,4.0172,4.0679,4.1243,4.1887,4.2486,4.3048,4.3442,4.5142,4.5058,4.5058,4.5077,4.5077,4.5203,4.5531,4.5586,4.5586,4.5586,4.4143,4.3104,4.3104,4.2316,4.1332,4.0196,3.93,3.8346,3.7187,3.6352,3.5393,0.0,0.0,3.2887,3.2596,3.1806,3.1384,3.1366,3.2192,0.0,3.1384,0.0,3.2155,3.1403,3.2228,3.2596,3.2596,3.2614,3.3073,3.3788,3.3825,3.3825,3.3899,3.4715,3.4541,3.4156,3.6615,3.6964,3.6413,3.7221,3.7477,3.7342,3.6523,3.5697,3.4825,3.4045,3.3807,3.3606,3.2763,3.3546,3.4265,3.2724,3.2848,3.3186,3.2459,3.1732,3.1207,3.119,3.119,3.1015,3.0435,3.0293,2.9861,2.8587,2.8217,2.7849,2.7201,2.687,0.0,2.6674,2.6674,2.6674,2.6674,2.6674,0.0,0.0,0.0,0.0,0.0,0.0,0.0,2.8941,2.9702,0.0,3.1173,3.1918,3.2662,3.3406,3.4134,3.5284,3.6755,3.6755,3.7178,3.7872,3.7889,3.8311,3.9039,3.9766,4.007,4.0172,4.0679,4.1267,4.1855,4.2494,4.3048,4.3497,4.5457,4.5438,4.5438,4.5438,4.5438,4.5476,4.5586,4.5586,4.5374,4.4778,4.3778,4.2874,4.2277,4.1431,4.0534,0.0,3.9087,3.8175,0.0,3.6156,3.5375,3.4237,3.3957,3.3443,3.2614,3.2357,3.1953,3.1384,0.0,0.0,0.0,3.2485,3.2467,3.2228,3.2504,3.2908,3.3421,3.3421,3.3568,3.3844,3.4412,3.4302,3.3899,3.4679,3.4825,3.4715,3.5514,3.6009,3.634,3.6597,3.7037,3.7379,3.6541,3.5716,3.4935,3.4679,3.4045,3.3567,3.4307,3.4057,3.3552,3.3537,3.3117,3.2577,3.2364,3.1715,3.119,3.119,3.119,3.1151,3.0958,3.0516,2.9772,2.8444,2.8063,2.7534,2.6495,2.6552,2.6691,2.6691,2.6251,2.615,2.664,2.6251,2.6167,2.6657,0.0,0.0,0.0,0.0,0.0,2.8958,2.9719,3.07,3.1918,3.2679,3.3423,3.4167,3.5436,3.6586,3.755,3.755,3.7686,3.7939,3.843,3.8768,3.9056,3.9783,4.007,4.0138,4.0273,4.096,4.1795,4.2015,4.2693,4.3497,4.5586,4.5586,4.5586,4.5586,4.5586,4.5586,4.5586,4.5316,4.4913,4.4374,4.3316,4.2412,4.1873,4.0758,0.0,3.9335,3.8805,3.7917,3.6537,3.6002,3.5382,3.4553,3.4445,3.4018,3.3222,3.3088,0.0,3.2302,3.2797,3.3054,3.3054,3.3054,3.3054,3.3054,3.3054,3.333,3.3807,3.3807,3.3807,3.3844,3.4357,3.4266,3.3844,3.4376,3.4559,3.4596,3.488,3.5367,3.5807,3.5807,3.6358,3.689,3.6064,3.5661,3.5495,3.5495,3.472,3.4062,3.4875,3.4408,3.3609,3.3297,3.2774,3.2246,3.1935,3.1512,3.119,3.119,3.119,3.119,3.119,3.0598,2.9825,2.9037,2.8303,2.755,2.6781,2.6689,2.6691,2.6691,2.6285,2.6184,2.6657,2.6285,2.6201,2.6657,0.0,0.0,0.0,0.0,2.8602,2.9381,3.0395,3.136,3.2273,3.3305,3.4032,3.4506,3.6553,3.7767,3.8311,3.8516,3.8653,3.8734,3.892,3.9157,3.9477,4.0148,4.0417,4.0417,4.0642,4.1286,4.2121,4.2121,4.2696,4.3497,4.5586,4.5586,4.5586,0.0,4.5586,4.5586,4.5586,4.4855,4.4278,4.422,4.2816,4.1758,4.1643,4.0219,3.9238,3.9123,0.0,0.0,3.668,3.593,3.5383,3.5105,3.4832,3.4551,3.42,3.3954,3.3807,3.3807,3.3807,3.3807,3.3807,3.3807,3.3807,3.3807,3.3807,3.3807,3.3807,3.3807,3.3807,3.3807,3.3807,3.3807,3.3807,3.3807,3.3825,3.3972,3.4688,3.4935,3.499,3.4935,3.5495,3.6083,3.5349,3.5661,3.6303,3.6303,3.5679,3.4934,3.4546,3.4572,3.4253,3.2316,3.2021,3.2019,3.136,3.119,3.119,3.119,3.119,3.1173,3.1123,3.0531,3.0023,2.9956,2.8704,2.7705,2.7705,2.7131,2.6691,2.6691,2.6742,2.6776,2.6776,2.6776,2.6793,2.686,0.0,0.0,0.0,0.0,2.9465,3.0159,3.1546,3.2364,3.2425,3.3795,3.4573,3.4759,3.743,3.8831,3.9154,3.9669,4.0048,4.017,3.9491,3.9576,4.0254,4.075,4.0949,4.1041,4.1578,4.2162,4.2711,4.2711,4.305,4.3497,0.0,0.0,4.5586,4.5586,4.5586,4.5586,4.5586,4.4855,4.4085,4.3451,4.247,4.1316,4.0027,3.9527,3.8757,3.743,3.7142,3.6661,3.5853,3.5622,3.5383,3.5105,3.4832,3.4551,3.42,3.3954,3.3807,3.3807,3.3807,3.3807,3.3807,3.3807,3.3807,3.3807,3.3807,3.3807,3.3807,3.3807,3.3807,3.3807,3.3807,3.3807,3.3807,3.3807,3.4192,3.4642,3.4247,3.4486,3.4899,3.4302,3.4633,3.5404,3.5862,3.6138,3.6303,3.6303,3.5679,3.499,3.4887,3.4371,3.3617,3.2579,3.1888,3.141,3.1241,3.119,3.119,3.119,3.119,3.1021,3.0463,2.9753,2.9059,2.845,2.7571,2.6962,2.6962,2.681,2.6691,2.6691,2.7199,2.7554,2.7554,2.7554,2.7791,2.8399,0.0,2.8296,2.9499,3.026,3.0751,3.092,3.1799,3.2814,3.3964,3.432,3.5368,3.711,3.8205,3.9299,4.0474,4.1051,4.1376,4.1402,4.1227,4.1262,4.142,4.1534,4.1578,4.1578,4.175,4.2162,4.2711,4.2711,4.305,4.3497,4.5586,4.5586,4.5586,4.5586,4.5586,4.547,4.5066,4.4297,4.3451,4.2624,4.1758,4.0719,3.9431,3.8931,3.8161,3.6815,3.6699,3.631,3.5377,3.5432,3.5383,3.5105,3.4963,3.4754,3.4423,3.4141,3.391,3.3807,3.3807,3.3807,3.3807,3.3807,3.3807,3.3807,3.3807,3.3807,3.3807,3.3807,3.3807,3.3807,3.3807,3.3807,3.3807,3.3807,3.4082,3.4394,3.3972,3.4082,3.4394,3.3954,3.41,3.4688,3.5917,3.6303,3.6358,3.6725,3.6248,3.5457,3.4863,3.4213,3.337,3.2213,3.1562,3.119,3.119,3.119,3.119,3.119,3.119,3.097,3.0243,2.9499,2.8738,2.7908,2.7182,2.6691,2.6691,2.6691,2.6826,2.7165,2.7571,2.796,2.8315,2.8349,2.8518,2.8994,2.9228,0.0,3.0565,3.163,3.2053,3.1698,3.273,3.3677,3.4489,3.5182,3.6332,3.7905,3.9076,4.0071,4.0949,4.181,4.208,4.181,4.181,4.181,4.181,4.2121,4.2203,4.2244,4.2483,4.279,4.3069,4.3069,4.325,4.3497,4.5586,4.5586,4.5586,4.5586,4.549,4.5143,4.4412,4.3508,4.2643,4.1912,4.1046,4.0181,3.9392,3.8527,3.7642,3.6776,3.6603,3.6113,3.516,3.5354,3.5383,3.5105,3.5105,3.4981,3.4713,3.4334,3.4043,3.385,3.3815,3.3815,3.3868,3.3815,3.3807,3.3788,3.3842,3.385,3.385,3.385,3.385,3.3868,3.3815,3.3807,3.3807,3.3807,3.388,3.399,3.399,3.4064,3.4174,3.4174,3.4174,3.4449,3.5991,3.6395,3.6431,3.711,3.6835,3.6043,3.4812,3.3996,3.316,3.1679,3.1252,3.119,3.119,3.119,3.119,3.119,3.119,3.0937,3.0091,2.9414,2.8687,2.7791,2.7114,2.6691,2.6691,2.6691,2.6962,2.7688,2.7926,2.8349,2.9228,2.9313,2.9397,2.9634,3.0717,3.141,3.1529,3.2933,3.3457,3.2797,3.3897,3.4634,3.4941,3.6276,3.736,3.8201,3.9878,4.082,4.1087,4.2284,4.2541,4.2062,4.2062,4.2062,4.2103,4.2598,4.2826,4.2864,4.3321,4.3497,4.3497,4.3497,4.3497,4.3497,4.5586,4.5586,4.5586,4.5586,4.4989,4.4451,4.4316,4.2989,4.195,4.1816,4.1046,4.0181,3.9392,3.8527,3.7642,3.6776,3.6084,3.5518,3.5141,3.5354,3.5383,3.5105,3.5105,3.4981,3.4713,3.416,3.3961,3.4147,3.3928,3.3928,3.4123,3.3902,3.3807,3.3815,3.4043,3.4147,3.4147,3.4147,3.4147,3.4123,3.3876,3.3807,3.3807,3.3807,3.4229,3.4807,3.4807,3.5293,3.5899,3.5899,3.5899,3.6083,3.7,3.6835,3.6321,3.645,3.6395,3.6101,3.5154,3.3821,3.2525,3.186,3.1449,3.119,3.119,3.119,3.119,3.119,3.119,3.0768,2.9414,2.9059,2.8518,2.7097,2.6776,2.6691,2.6691,2.6691,2.6962,2.7688,2.8399,2.9347,3.0717,3.0852,3.1376,3.2628,3.2341,3.2391,3.3034,3.4472,3.5216,3.5098,3.4709,3.5326,3.7076,3.7524,3.8342,3.9502,4.0313,4.1025,4.1707,4.2847,4.3321,4.3232,4.3232,4.3232,4.3232,4.3321,4.3375,4.3375,4.3463,4.3497,4.3497,4.3497,4.3497,4.3497,4.5586,4.5586,4.5586,4.5586,4.4874,4.4143,4.372,4.2604,4.1643,4.1162,4.0739,4.0008,3.8738,3.8238,3.7469,3.618,3.5718,3.5383,3.5122,3.5207,3.5223,3.5105,3.5105,3.4981,3.4713,3.4111,3.391,3.42,3.391,3.3954,3.42,3.3928,3.3807,3.3815,3.4093,3.42,3.42,3.4401,3.4379,3.4176,3.4068,3.3928,3.3844,3.4284,3.466,3.5045,3.5532,3.5954,3.6303,3.6303,3.6303,3.6431,3.7239,3.7239,3.7019,3.7459,3.6486,3.5205,3.4775,3.3752,3.2651,3.1965,3.1507,3.119,3.119,3.119,3.119,3.119,3.119,3.0869,2.9786,2.9262,2.8619,2.7486,2.6962,2.6843,2.7249,2.73,2.7875,2.9448,2.9956,3.0751,3.2239,3.2374,3.2679,3.3355,3.3829,3.4235,3.459,3.5639,3.6434,3.684,3.6795,3.7206,3.8157,3.8659,3.921,3.9794,4.0813,4.1456,4.1853,4.2977,4.3497,4.3497,4.3497,4.3497,4.3497,4.3497,4.3497,4.3497,4.3497,4.3497,4.3497,4.3497,4.3497,4.3497,4.5586,4.5586,4.5586,4.5586,4.472,4.3816,4.3181,4.22,4.1258,4.0585,4.0489,3.9931,3.845,3.8123,3.7411,3.5911,3.5622,3.5398,3.5207,3.5088,3.5034,3.5105,3.5105,3.4981,3.4713,3.4184,3.4018,3.4334,3.4164,3.4257,3.4591,3.446,3.4412,3.4481,3.4567,3.4753,3.4993,3.5054,3.5032,3.4967,3.4848,3.4668,3.4547,3.5083,3.544,3.5679,3.634,3.6688,3.6853,3.6853,3.6853,3.6964,3.7569,3.7643,3.7606,3.823,3.6845,3.5072,3.4872,3.4082,3.3016,3.2195,3.1582,3.119,3.119,3.119,3.119,3.119,3.119,3.097,3.0243,2.9634,2.8991,2.8213,2.7604,2.7486,2.8212,2.8313,2.9127,3.1207,3.1444,3.2036,3.3508,3.366,3.3728,3.3914,3.5148,3.5921,3.6082,3.6864,3.7729,3.8584,3.8808,3.9025,3.9155,3.9896,4.0262,4.0279,4.1442,4.1937,4.1853,4.2977,4.3497,4.3497,4.3497,4.3497,4.3497,4.3497,4.3497,4.3497,4.3497,4.3497,4.3497,4.3497,4.3497,4.3497,4.5586,4.5586,4.5586,4.5586,4.4259,4.3162,4.3104,4.1662,4.0566,4.0508,4.0489,4.0162,3.9296,3.8469,3.7623,3.6699,3.593,3.5493,3.546,3.4999,3.4851,3.5088,3.5105,3.4981,3.4713,3.4357,3.4334,3.4653,3.484,3.5192,3.5781,3.6025,3.6242,3.6472,3.5991,3.6365,3.7298,3.6517,3.6631,3.73,3.6738,3.6491,3.6477,3.6279,3.667,3.7312,3.7397,3.7881,3.8524,3.8524,3.8524,3.8542,3.8597,3.8102,3.7526,3.7551,3.7441,3.7099,3.6366,3.4934,3.3473,3.2645,3.1823,3.119,3.119,3.119,3.119,3.119,3.119,3.097,3.0243,3.0074,2.9786,2.9008,2.8856,2.9076,2.9837,2.9939,3.0497,3.2019,3.2205,3.278,3.4269,3.4421,3.4709,3.5402,3.6231,3.6928,3.7413,3.8321,3.9399,4.0637,4.0071,4.0001,4.0554,4.1273,4.1637,4.1679,4.2324,4.2342,4.1853,4.2977,4.3497,4.3497,4.3497,4.3497,4.3497,4.3497,4.3497,4.3497,4.3497,4.3497,4.3497,4.3497,4.3497,4.3497,4.5586,4.5586,4.5586,4.5586,4.4201,4.3104,4.3104,4.1623,4.0489,4.0489,4.0489,3.9988,3.8642,3.82,3.745,3.6084,3.568,3.5493,3.5493,3.5138,3.4926,3.4851,3.4999,3.4981,3.4713,3.4379,3.4622,3.545,3.4801,3.5067,3.6141,3.5362,3.5163,3.5469,3.5235,3.5476,3.6075,3.6419,3.6632,3.6821,3.7127,3.7039,3.6733,3.7143,3.7396,3.7551,3.8065,3.8432,3.8707,3.8707,3.8707,3.8707,3.8707,3.8487,3.823,3.823,3.823,3.8065,3.7257,3.5756,3.4126,3.2836,3.186,3.119,3.119,3.119,3.119,3.119,3.119,3.1106,3.0835,3.0412,3.0159,3.0328,2.9973,3.0091,3.1292,3.1444,3.2002,3.3474,3.4066,3.4759,3.5808,3.591,3.6214,3.6975,3.7313,3.7916,3.8911,4.0113,4.0779,4.077,4.1304,4.1716,4.1934,4.2239,4.2342,4.2342,4.2577,4.2577,4.2382,4.316,4.3497,4.3497,4.3497,4.3497,4.3497,4.3497,4.3497,4.3497,4.3497,4.3497,4.3497,4.3497,4.3497,4.3497,4.5586,4.5586,4.5586,4.5586,4.4201,4.3104,4.3104,4.1623,4.0489,4.0489,4.0489,3.9969,3.8565,3.8161,3.743,3.6007,3.5661,3.5493,3.5493,3.5339,3.5105,3.4851,3.5088,3.5105,3.4813,3.4595,3.4948,3.5903,3.5124,3.5343,3.654,3.5547,3.5431,3.5949,3.5437,3.5798,3.6807,3.7026,3.7318,3.7668,3.8191,3.8133,3.7817,3.824,3.8245,3.8069,3.8612,3.8762,3.8707,3.8707,3.8707,3.8707,3.8707,3.8707,3.8707,3.8707,3.8707,3.8524,3.7716,3.6504,3.5079,3.3328,3.2124,3.1351,3.123,3.119,3.119,3.119,3.1376,3.1546,3.1546,3.1326,3.1309,3.1799,3.1478,3.1579,3.2797,3.2966,3.3525,3.503,3.5673,3.6282,3.706,3.7144,3.7347,3.7872,3.8282,3.9049,4.0376,4.1467,4.1872,4.1319,4.2232,4.2788,4.2939,4.2939,4.2864,4.2711,4.2864,4.2864,4.2711,4.325,4.3497,4.3497,4.3497,4.3497,4.3497,4.3497,4.3497,4.3497,4.3497,4.3497,4.3497,4.3497,4.3497,4.3497,4.5586,4.5586,4.5586,4.5586,4.4201,4.3104,4.3104,4.1623,4.0489,4.0489,4.0489,4.0181,3.9373,3.8527,3.7642,3.6776,3.5968,3.5493,3.5493,3.5493,3.5383,3.5105,3.5369,3.5369,3.5105,3.5105,3.5362,3.5899,3.5899,3.6314,3.7081,3.7081,3.7688,3.8709,3.7032,3.7859,4.0354,3.87,3.8969,4.0473,4.0213,4.0101,4.0042,3.9731,3.9389,3.908,3.9099,3.8952,3.8707,3.8707,3.8707,3.8707,3.8707,3.8707,3.8707,3.8707,3.8707,3.8524,3.7716,3.7148,3.6327,3.4228,3.2757,3.1696,3.1308,3.119,3.119,3.1207,3.1822,3.233,3.233,3.2899,3.3406,3.3406,3.3406,3.3677,3.4404,3.4549,3.5125,3.6649,3.6835,3.714,3.7838,3.7922,3.7922,3.7922,3.9112,4.0393,4.1715,4.2382,4.2711,4.2711,4.2711,4.2976,4.3479,4.3497,4.325,4.2711,4.325,4.3214,4.2732,4.325,4.3497,4.3497,4.3497,4.3497,4.3497,4.3497,4.3497,4.3497,4.3497,4.3497,4.3497,4.3497,4.3497,4.3497,4.5738,4.5738,4.5719,4.5605,4.4201,4.3104,4.3104,4.1623,4.0489,4.0489,4.0489,3.995,3.8546,3.8161,3.743,3.5988,3.5641,3.5493,3.5493,3.5493,3.546,3.5383,3.5446,3.5369,3.5105,3.5105,3.5362,3.5903,3.5515,3.5742,3.6521,3.597,3.5982,3.6481,3.6356,3.6865,3.7873,3.8604,3.92,3.97,4.0194,4.0286,4.0081,4.0002,3.9735,3.9414,3.9186,3.9063,3.8961,3.8762,3.8707,3.8707,3.8707,3.8707,3.8707,3.8707,3.8707,3.8652,3.8414,3.7839,3.6796,3.4691,3.3659,3.3002,3.2562,3.2035,3.1932,3.3072,3.3093,3.3121,3.3981,3.4298,3.4631,3.5136,3.5224,3.5696,3.7044,3.7218,3.7627,3.8643,3.9238,3.9443,3.9239,3.9599,3.9896,3.9996,4.112,4.2011,4.2422,4.2958,4.325,4.325,4.325,4.3339,4.3497,4.3497,4.341,4.325,4.341,4.341,4.325,4.341,4.3497,4.3497,4.3497,4.3497,4.3497,4.3497,4.3497,4.3497,4.3497,4.3497,4.3497,4.3497,4.3497,4.3497,4.5793,4.5786,4.5757,4.5605,4.4201,4.3104,4.3104,4.1623,4.0489,4.0489,4.0489,3.9988,3.8661,3.82,3.745,3.6103,3.568,3.5493,3.5493,3.5493,3.5493,3.5493,3.5493,3.5432,3.5254,3.5905,3.6207,3.6064,3.5827,3.5933,3.6287,3.5589,3.5507,3.5993,3.6312,3.6942,3.7796,3.8854,3.9469,3.9815,4.0296,4.0389,4.0269,4.0269,4.0081,3.9775,3.9576,3.9414,3.9257,3.8952,3.8773,3.8707,3.8707,3.8487,3.8285,3.8615,3.8469,3.8285,3.8615,3.834,3.7613,3.6036,3.5029,3.4333,3.3845,3.3369,3.3299,3.4298,3.4351,3.4479,3.5208,3.5598,3.5971,3.6413,3.6484,3.6821,3.7795,3.8203,3.8681,3.9483,4.0223,4.0683,4.0596,4.0916,4.1255,4.1586,4.2302,4.2788,4.3032,4.3321,4.3497,4.3497,4.3497,4.3497,4.3497,4.3497,4.3497,4.3497,4.3497,4.3497,4.3497,4.3497,4.3497,4.3497,4.3497,4.3497,4.3497,4.3497,4.3497,4.3497,4.3497,4.3497,4.3497,4.3497,4.3497,4.3497,4.5808,4.5757,4.5661,4.5509,4.4105,4.2989,4.2989,4.1566,4.0489,4.0489,4.0431,4.0065,3.9258,3.8411,3.7546,3.668,3.593,3.5493,3.5493,3.5493,3.5493,3.5493,3.5584,3.557,3.5493,3.7065,3.7309,3.6176,3.6523,3.6504,3.6157,3.5699,3.5892,3.6603,3.6757,3.77,3.9181,3.9335,3.9815,4.0489,4.0489,4.0489,4.0489,4.0489,4.0356,4.0139,4.0101,3.9901,3.9599,3.9212,3.8923,3.8707,3.8707,3.8193,3.7734,3.8487,3.8175,3.7753,3.8505,3.8707,3.8524,3.7771,3.6741,3.5728,3.5187,3.5029,3.5011,3.5154,3.567,3.6114,3.6203,3.6896,3.7429,3.7429,3.75,3.7554,3.7642,3.8302,3.9032,3.9775,4.0508,4.1179,4.1824,4.1895,4.2121,4.2732,4.2788,4.2976,4.3479,4.3497,4.3497,4.3497,4.3497,4.3497,4.3497,4.3497,4.3497,4.3497,4.3497,4.3497,4.3497,4.3497,4.3497,4.3497,4.3497,4.3497,4.3497,4.3497,4.3497,4.3497,4.3497,4.3497,4.3497,4.3497,4.3497,4.3497,4.5881,4.5363,4.487,4.4605,4.3201,4.2085,4.2085,4.1181,4.0489,4.0489,3.995,3.9219,3.8373,3.7507,3.6661,3.5834,3.5603,3.5493,3.5493,3.5493,3.5493,3.5493,3.6103,3.6142,3.5512,3.6469,3.6345,3.5057,3.6154,3.6135,3.5058,3.535,3.5589,3.5834,3.7142,3.793,3.8373,3.9681,4.0335,4.0489,4.0489,4.0489,4.0489,4.0489,4.0473,4.0389,4.0177,4.0042,3.9901,3.9289,3.8923,3.8707,3.8707,3.8579,3.8469,3.8652,3.8579,3.8487,3.8652,3.8707,3.867,3.8487,3.8224,3.7739,3.6579,3.5882,3.5774,3.7016,3.6926,3.6919,3.7936,3.8784,3.9312,3.9312,3.9859,4.0479,4.1118,4.1336,4.1756,4.254,4.2777,4.2795,4.2541,4.2519,4.2732,4.3304,4.3339,4.3375,4.3479,4.3497,4.3497,4.3497,4.3497,4.3497,4.3497,4.3497,4.3497,4.3497,4.3497,4.3497,4.3497,4.3497,4.3497,4.3497,4.3497,4.3497,4.3497,4.3497,4.3497,4.3497,4.3497,4.3497,4.3497,4.3497,4.3497,4.3497,4.5854,4.5186,4.4542,4.4335,4.2912,4.1797,4.1797,4.1066,4.0489,4.0489,4.0123,3.9392,3.8142,3.7584,3.6834,3.5622,3.5493,3.5493,3.5493,3.5493,3.5493,3.5493,3.5911,3.593,3.5512,3.6295,3.6174,3.5088,3.6174,3.6136,3.5088,3.5369,3.5493,3.557,3.7257,3.8007,3.8104,3.9777,4.0489,4.0489,4.0489,4.0489,4.0489,4.0489,4.0489,4.0489,4.0339,4.0101,3.9797,3.9457,3.9045,3.8707,3.8707,3.8432,3.8193,3.8597,3.8432,3.8212,3.8597,3.8707,3.8799,3.9184,3.9276,3.8993,3.7913,3.7371,3.7408,3.8609,3.8536,3.8615,3.9667,4.0194,4.0469,4.0469,4.0836,4.1258,4.168,4.2066,4.2451,4.2873,4.3259,4.341,4.3105,4.3087,4.3214,4.3479,4.3497,4.3497,4.3497,4.3497,4.3497,4.3497,4.3497,4.3497,4.3497,4.3497,4.3497,4.3497,4.3497,4.3497,4.3497,4.3497,4.3497,4.3497,4.3497,4.3497,4.3497,4.3497,4.3497,4.3497,4.3497,4.3497,4.3497,4.3497,4.3497,4.3497,4.5616,4.4872,4.4179,4.3912,4.2604,4.1585,4.1585,4.095,4.0489,4.0489,4.0373,3.9758,3.8373,3.7969,3.7219,3.5834,3.5584,3.5493,3.5493,3.5493,3.5493,3.5493,3.5493,3.5551,3.5699,3.6372,3.6281,3.5432,3.6281,3.6248,3.5432,3.5479,3.557,3.5776,3.7315,3.8084,3.8315,3.9854,4.0489,4.0489,4.0489,4.0489,4.0489,4.0489,4.0489,4.0489,4.0489,4.0101,3.9599,3.9599,3.9189,3.8707,3.8707,3.823,3.7826,3.8505,3.823,3.7845,3.8524,3.8707,3.8891,3.9698,3.99,3.9753,3.9239,3.9111,3.9313,3.9974,4.0102,4.0304,4.0983,4.1222,4.1313,4.1313,4.1423,4.1515,4.1515,4.2084,4.2506,4.2506,4.3075,4.3497,4.3497,4.3497,4.3497,4.3497,4.3497,4.3497,4.3497,4.3497,4.3497,4.3497,4.3497,4.3497,4.3497,4.3497,4.3497,4.3497,4.3497,4.3497,4.3497,4.3497,4.3497,4.3497,4.3497,4.3497,4.3497,4.3497,4.3497,4.3497,4.3497,4.3497,4.3497,4.3497,4.3497,4.3497,4.4831,4.3965,4.3118,4.2277,4.1335,4.0681,4.0681,4.0566,4.0489,4.0489,3.9892,3.9373,3.9142,3.7777,3.6776,3.6565,3.5911,3.5493,3.5493,3.5493,3.5493,3.5493,3.5493,3.5834,3.6526,3.6642,3.6189,3.5138,3.6189,3.617,3.5174,3.5383,3.5872,3.6584,3.7565,3.8411,3.9181,4.0104,4.0489,4.0489,4.0489,4.0489,4.0489,4.0489,4.0489,4.0489,4.0489,4.0101,3.9599,3.9599,3.9189,3.8707,3.8707,3.8634,3.856,3.867,3.8615,3.856,3.867,3.8707,3.8891,3.9698,3.99,4.0047,4.0653,4.0799,4.0818,4.0928,4.0946,4.0983,4.1093,4.168,4.2139,4.2139,4.2708,4.3167,4.3167,4.3259,4.3332,4.3332,4.3424,4.3497,4.3497,4.3497,4.3497,4.3497,4.3497,4.3497,4.3497,4.3497,4.3497,4.3497,4.3497,4.3497,4.3497,4.3497,4.3497,4.3497,4.3497,4.3497,4.3497,4.3497,4.3497,4.3497,4.3497,4.3497,4.3497,4.3497,4.3497,4.3497,4.3497,4.3497,4.3497,4.3497,4.3497,4.3497,4.4029,4.3169,4.2311,4.1433,4.0576,4.0004,4.0004,4.0157,4.0286,4.0286,3.998,3.9629,3.9319,3.7738,3.6699,3.6699,3.5968,3.5493,3.5493,3.5493,3.5493,3.5493,3.593,3.6353,3.6699,3.718,3.7194,3.6719,3.7194,3.6925,3.599,3.6118,3.6122,3.6103,3.7411,3.82,3.8661,3.995,4.0489,4.0489,4.0489,4.0489,4.0489,4.0489,4.0489,4.0473,4.0339,4.0003,3.9576,3.9389,3.9045,3.8707,3.8707,3.8707,3.8707,3.8707,3.8707,3.8799,3.9239,3.9368,3.9662,4.0928,4.124,4.1442,4.2268,4.2433,4.2304,4.1864,4.1772,4.1919,4.2359,4.2727,4.2965,4.2965,4.3259,4.3497,4.3497,4.3497,4.3497,4.3497,4.3497,4.3497,4.3497,4.3497,4.3497,4.3497,4.3497,4.3497,4.3497,4.3497,4.3497,4.3497,4.3497,4.3497,4.3497,4.3497,4.3497,4.3497,4.3497,4.3497,4.3497,4.3497,4.3497,4.3497,4.3497,4.3497,4.3497,4.3497,4.3497,4.3497,4.3497,4.3497,4.3497,4.3497,4.3497,4.3497]},{"header":{"parameterUnit":"m.s-1","parameterCategory":1,"la1":30.6,"la2":28.766,"lo1":-90.7593,"lo2":-88.6598,"dy":0.0162,"dx":0.0183,"nx":116,"ny":114,"refTime":"2023-09-16T00:00:00:Z","depth":0,"parameterNumber":3,"parameterNumberName":"V-component_of_WINDS"},"data":[0.0,0.0,0.0,0.0,0.0,0.0,0.0,0.0,0.0,0.0,0.0,0.0,0.0,0.0,0.0,0.0,0.0,0.0,0.0,0.0,0.0,0.0,0.0,0.0,0.0,0.0,0.0,0.0,0.0,0.0,0.0,0.0,0.0,0.0,0.0,0.0,0.0,0.0,0.0,0.0,0.0,0.0,0.0,0.0,0.0,0.0,0.0,0.0,0.0,0.0,0.0,0.0,0.0,0.0,0.0,0.0,0.0,0.0,0.0,0.0,0.0,0.0,0.0,0.0,0.0,0.0,0.0,0.0,0.0,0.0,0.0,0.0,0.0,0.0,0.0,0.0,0.0,0.0,0.0,0.0,0.0,0.0,0.0,0.0,0.0,0.0,0.0,0.0,0.0,0.0,0.0,0.0,0.0,0.0,0.0,0.0,0.0,0.0,0.0,0.0,0.0,0.0,0.0,0.0,0.0,0.0,0.0,0.0,0.0,0.0,0.0,0.0,0.0,0.0,0.0,0.0,0.0,0.0,0.0,0.0,0.0,0.0,0.0,0.0,0.0,0.0,0.0,0.0,0.0,0.0,0.0,0.0,0.0,0.0,0.0,0.0,0.0,0.0,0.0,0.0,0.0,0.0,0.0,0.0,0.0,0.0,0.0,0.0,0.0,0.0,0.0,0.0,0.0,0.0,0.0,0.0,0.0,0.0,0.0,0.0,0.0,0.0,0.0,0.0,0.0,0.0,0.0,0.0,0.0,0.0,0.0,0.0,0.0,0.0,0.0,0.0,0.0,0.0,0.0,0.0,0.0,0.0,0.0,0.0,0.0,0.0,0.0,0.0,0.0,0.0,0.0,0.0,0.0,0.0,0.0,0.0,0.0,0.0,0.0,0.0,0.0,0.0,0.0,0.0,0.0,0.0,0.0,0.0,0.0,0.0,0.0,0.0,0.0,0.0,0.0,0.0,0.0,0.0,0.0,0.0,0.0,0.0,0.0,0.0,0.0,0.0,0.0,0.0,0.0,0.0,0.0,0.0,0.0,0.0,0.0,0.0,0.0,0.0,0.0,0.0,0.0,0.0,0.0,0.0,0.0,0.0,0.0,0.0,0.0,0.0,0.0,0.0,0.0,0.0,0.0,0.0,0.0,0.0,0.0,0.0,0.0,0.0,0.0,0.0,0.0,0.0,0.0,0.0,0.0,0.0,0.0,0.0,0.0,0.0,0.0,0.0,0.0,0.0,0.0,0.0,0.0,0.0,0.0,0.0,0.0,0.0,0.0,0.0,0.0,0.0,0.0,0.0,0.0,0.0,0.0,0.0,0.0,0.0,0.0,0.0,0.0,0.0,0.0,0.0,0.0,0.0,0.0,0.0,0.0,0.0,0.0,0.0,0.0,0.0,0.0,0.0,0.0,0.0,0.0,0.0,0.0,0.0,0.0,0.0,0.0,0.0,0.0,0.0,0.0,0.0,0.0,0.0,0.0,0.0,0.0,0.0,0.0,0.0,0.0,0.0,0.0,0.0,0.0,0.0,0.0,0.0,0.0,0.0,0.0,0.0,0.0,0.0,0.0,0.0,0.0,0.0,0.0,0.0,0.0,0.0,0.0,0.0,0.0,0.0,0.0,0.0,0.0,0.0,0.0,0.0,0.0,0.0,0.0,0.0,0.0,0.0,0.0,0.0,0.0,0.0,0.0,0.0,0.0,0.0,0.0,0.0,0.0,0.0,0.0,0.0,0.0,0.0,0.0,0.0,0.0,0.0,0.0,0.0,0.0,0.0,0.0,0.0,0.0,0.0,0.0,0.0,0.0,0.0,0.0,0.0,0.0,0.0,0.0,0.0,0.0,0.0,0.0,0.0,0.0,0.0,0.0,0.0,0.0,0.0,0.0,0.0,0.0,0.0,0.0,0.0,0.0,0.0,0.0,0.0,0.0,0.0,0.0,0.0,0.0,0.0,0.0,0.0,0.0,0.0,0.0,0.0,0.0,0.0,0.0,0.0,0.0,0.0,0.0,0.0,0.0,0.0,0.0,0.0,0.0,0.0,0.0,0.0,0.0,0.0,0.0,0.0,0.0,0.0,0.0,0.0,0.0,0.0,0.0,0.0,0.0,0.0,0.0,0.0,0.0,0.0,0.0,0.0,0.0,0.0,0.0,0.0,0.0,0.0,0.0,0.0,0.0,0.0,0.0,0.0,0.0,0.0,0.0,0.0,0.0,0.0,0.0,0.0,0.0,0.0,0.0,0.0,0.0,0.0,0.0,0.0,0.0,0.0,0.0,0.0,0.0,0.0,0.0,0.0,0.0,0.0,0.0,0.0,0.0,0.0,0.0,0.0,0.0,0.0,0.0,0.0,0.0,0.0,0.0,0.0,0.0,0.0,0.0,0.0,0.0,0.0,0.0,0.0,0.0,0.0,0.0,0.0,0.0,0.0,0.0,0.0,0.0,0.0,0.0,0.0,0.0,0.0,0.0,0.0,0.0,0.0,0.0,0.0,0.0,0.0,0.0,0.0,0.0,0.0,0.0,0.0,0.0,0.0,0.0,0.0,0.0,0.0,0.0,0.0,0.0,0.0,0.0,0.0,0.0,0.0,0.0,0.0,0.0,0.0,0.0,0.0,0.0,0.0,0.0,0.0,0.0,0.0,0.0,0.0,0.0,0.0,0.0,0.0,0.0,0.0,0.0,0.0,0.0,0.0,0.0,0.0,0.0,0.0,0.0,0.0,0.0,0.0,0.0,0.0,0.0,0.0,0.0,0.0,0.0,0.0,0.0,0.0,0.0,0.0,0.0,0.0,0.0,0.0,0.0,0.0,0.0,0.0,0.0,0.0,0.0,0.0,0.0,0.0,0.0,0.0,0.0,0.0,0.0,0.0,0.0,0.0,0.0,0.0,0.0,0.0,0.0,0.0,0.0,0.0,0.0,0.0,0.0,0.0,0.0,0.0,0.0,0.0,0.0,0.0,0.0,0.0,0.0,0.0,0.0,0.0,0.0,0.0,0.0,0.0,0.0,0.0,0.0,0.0,0.0,0.0,0.0,0.0,0.0,0.0,0.0,0.0,0.0,0.0,0.0,0.0,0.0,0.0,0.0,0.0,0.0,0.0,0.0,0.0,0.0,0.0,0.0,0.0,0.0,0.0,0.0,0.0,0.0,0.0,0.0,0.0,0.0,0.0,0.0,0.0,0.0,0.0,0.0,0.0,0.0,0.0,0.0,0.0,0.0,0.0,0.0,0.0,0.0,0.0,0.0,0.0,0.0,0.0,0.0,0.0,0.0,0.0,0.0,0.0,0.0,0.0,0.0,0.0,0.0,0.0,0.0,0.0,0.0,0.0,0.0,0.0,0.0,0.0,0.0,0.0,0.0,0.0,0.0,0.0,0.0,0.0,0.0,0.0,0.0,0.0,0.0,0.0,0.0,0.0,0.0,0.0,0.0,0.0,0.0,0.0,0.0,0.0,0.0,0.0,0.0,0.0,0.0,0.0,0.0,0.0,0.0,0.0,0.0,0.0,0.0,0.0,0.0,0.0,0.0,0.0,0.0,0.0,0.0,0.0,0.0,0.0,0.0,0.0,0.0,0.0,0.0,0.0,0.0,0.0,0.0,0.0,0.0,0.0,0.0,0.0,0.0,0.0,0.0,0.0,0.0,0.0,0.0,0.0,0.0,0.0,0.0,0.0,0.0,0.0,0.0,0.0,0.0,0.0,0.0,0.0,0.0,0.0,0.0,0.0,0.0,0.0,0.0,0.0,0.0,0.0,0.0,0.0,0.0,0.0,0.0,0.0,0.0,0.0,0.0,0.0,0.0,0.0,0.0,0.0,0.0,0.0,0.0,0.0,0.0,0.0,0.0,0.0,0.0,0.0,0.0,0.0,0.0,0.0,0.0,0.0,0.0,0.0,0.0,0.0,0.0,0.0,0.0,0.0,0.0,0.0,0.0,0.0,0.0,0.0,0.0,0.0,0.0,0.0,0.0,0.0,0.0,0.0,0.0,0.0,0.0,0.0,0.0,0.0,0.0,0.0,0.0,0.0,0.0,0.0,0.0,0.0,0.0,0.0,0.0,0.0,0.0,0.0,0.0,0.0,0.0,0.0,0.0,0.0,0.0,0.0,0.0,0.0,0.0,0.0,0.0,0.0,0.0,0.0,0.0,0.0,0.0,0.0,0.0,0.0,0.0,0.0,0.0,0.0,0.0,0.0,0.0,0.0,0.0,0.0,0.0,0.0,0.0,0.0,0.0,0.0,0.0,0.0,0.0,0.0,0.0,0.0,0.0,0.0,0.0,0.0,0.0,0.0,0.0,0.0,0.0,0.0,0.0,0.0,0.0,0.0,0.0,0.0,0.0,0.0,0.0,0.0,0.0,0.0,0.0,0.0,0.0,0.0,0.0,0.0,0.0,0.0,0.0,0.0,0.0,0.0,0.0,0.0,0.0,0.0,0.0,0.0,0.0,0.0,0.0,0.0,0.0,0.0,0.0,0.0,0.0,0.0,0.0,0.0,0.0,0.0,0.0,0.0,0.0,0.0,0.0,0.0,0.0,0.0,0.0,0.0,0.0,0.0,0.0,0.0,0.0,0.0,0.0,0.0,0.0,0.0,0.0,0.0,0.0,0.0,0.0,0.0,0.0,0.0,0.0,0.0,0.0,0.0,0.0,0.0,0.0,0.0,0.0,0.0,0.0,0.0,0.0,0.0,0.0,0.0,0.0,0.0,0.0,0.0,0.0,0.0,0.0,0.0,0.0,0.0,0.0,0.0,0.0,0.0,0.0,0.0,0.0,0.0,0.0,0.0,0.0,0.0,0.0,0.0,0.0,0.0,0.0,0.0,0.0,0.0,0.0,0.0,0.0,0.0,0.0,0.0,0.0,0.0,0.0,0.0,0.0,0.0,0.0,0.0,0.0,0.0,0.0,0.0,0.0,0.0,0.0,0.0,0.0,0.0,0.0,0.0,0.0,0.0,0.0,0.0,0.0,0.0,0.0,0.0,0.0,0.0,0.0,0.0,0.0,0.0,0.0,0.0,0.0,0.0,0.0,0.0,0.0,0.0,0.0,0.0,0.0,0.0,0.0,0.0,0.0,0.0,0.0,0.0,0.0,0.0,0.0,0.0,0.0,0.0,0.0,0.0,0.0,0.0,0.0,0.0,0.0,0.0,0.0,0.0,0.0,0.0,0.0,0.0,0.0,0.0,0.0,0.0,0.0,0.0,0.0,0.0,0.0,0.0,0.0,0.0,0.0,0.0,0.0,0.0,0.0,0.0,0.0,0.0,0.0,0.0,0.0,0.0,0.0,0.0,0.0,0.0,0.0,0.0,0.0,0.0,0.0,0.0,0.0,0.0,0.0,0.0,0.0,0.0,0.0,0.0,0.0,0.0,0.0,0.0,0.0,0.0,0.0,0.0,0.0,0.0,0.0,0.0,0.0,0.0,0.0,0.0,0.0,0.0,0.0,0.0,0.0,0.0,0.0,0.0,0.0,0.0,0.0,0.0,0.0,0.0,0.0,0.0,0.0,0.0,0.0,0.0,0.0,0.0,0.0,0.0,0.0,0.0,0.0,0.0,0.0,0.0,0.0,0.0,0.0,0.0,0.0,0.0,0.0,0.0,0.0,0.0,0.0,0.0,0.0,0.0,0.0,0.0,0.0,0.0,0.0,0.0,0.0,0.0,0.0,0.0,0.0,0.0,0.0,0.0,0.0,0.0,0.0,0.0,0.0,0.0,0.0,0.0,0.0,0.0,0.0,0.0,0.0,0.0,0.0,0.0,0.0,0.0,0.0,0.0,0.0,0.0,0.0,0.0,0.0,0.0,0.0,0.0,0.0,0.0,0.0,0.0,0.0,0.0,0.0,0.0,0.0,0.0,0.0,0.0,0.0,0.0,0.0,0.0,0.0,0.0,0.0,0.0,0.0,0.0,0.0,0.0,0.0,0.0,0.0,0.0,0.0,0.0,0.0,0.0,0.0,0.0,0.0,0.0,0.0,0.0,0.0,0.0,0.0,0.0,0.0,0.0,0.0,0.0,0.0,0.0,0.0,0.0,0.0,0.0,0.0,0.0,0.0,0.0,0.0,0.0,0.0,0.0,0.0,0.0,0.0,0.0,0.0,0.0,0.2178,0.0,0.0,0.0,0.0,0.0,0.0,0.0,0.0,0.0,0.0,0.0,0.0,0.0,0.0,0.0,0.0,0.0,0.0,0.0,0.0,0.0,0.0,0.0,0.0,0.0,0.0,0.0,0.0,0.0,0.0,0.0,0.0,0.0,0.0,0.0,0.0,0.0,0.0,0.0,0.0,0.0,0.0,0.0,0.0,0.0,0.0,0.0,0.0,0.0,0.0,0.0,0.0,0.0,0.0,0.0,0.0,0.0,0.0,0.0,0.0,0.0,0.0,0.0,0.0,0.0,0.0,0.0,0.0,0.0,0.0,0.0,0.0,0.0,0.0,0.0,0.0,0.0,0.0,0.0,0.0,0.0,0.0,0.0,0.0,0.0,0.0,0.0,0.0,0.0,0.0,0.0,0.0,0.0,0.0,0.0,0.0,0.0,0.0,0.0,0.0,0.0,0.0,0.0,0.0,0.0,0.0,0.0,0.0,0.0,0.0,0.0,0.0,0.0,0.0,0.0,0.0,0.0,0.0,0.0,0.0,0.0,0.0,0.0,0.0,0.0,0.0,0.0,0.0,0.0,0.0,0.0,0.0,0.0,0.0,0.0,0.0,0.0,0.0,0.0,0.0,0.0,0.0,0.0,0.0,0.0,0.0,0.0,0.0,0.0,0.0,0.0,0.0,0.0,0.0,0.0,0.0,0.0,0.0,0.0,0.0,0.0,0.0,0.0,0.0,0.0,0.0,0.0,0.0,0.0,0.0,0.0,0.0,0.0,0.0,0.0,0.0,0.0,0.0,0.0,0.0,0.0,0.0,0.0,0.0,0.0,0.0,0.0,0.0,0.0,0.0,0.0,0.0,0.0,0.0,0.0,0.0,0.0,0.0,0.0,0.0,0.0,0.0,0.0,0.0,0.0,0.0,0.0,0.0,0.0,0.0,0.0,0.0,0.0,0.0,0.0,0.0,0.0,0.0,0.0,0.0,0.0,0.0,0.0,0.0,0.0,0.1358,0.2937,0.5877,0.6402,0.656,0.6431,0.2898,0.0877,0.0,0.0,0.0,0.0,0.0,0.0,0.0,0.0,0.0,0.0,0.0,0.0,0.0,0.0,0.0,0.0,0.0,0.0,0.0,0.0,0.0,0.0,0.0,0.0,0.0,0.0,0.0,0.0,0.0,0.0,0.0,0.0,0.0,0.0,0.0,0.0,0.0,0.0,0.0,0.0,0.0,0.0,0.0,0.0,0.0,0.0,0.0,0.0,0.0,0.0,0.0,0.0,0.0,0.0,0.0,0.0,0.0,0.0,0.0,0.0,0.0,0.0,0.0,0.0,0.0,0.0,0.0,0.0,0.0,0.0,0.0,0.0,0.0,0.0,0.0,0.0,0.0,0.0,0.0,0.0,0.0,0.0,0.0,0.0,0.0,0.0,0.0,0.0,0.0,0.0,0.0,0.0,0.0,0.0,0.0,0.0,0.0,0.0,0.0,0.0,0.0,0.0,0.0,0.4947,0.0714,0.0823,0.2848,0.6931,0.698,0.7217,0.7645,0.772,0.7786,0.7764,0.7145,0.0,0.0,0.0,0.0,0.0,0.0,0.0,0.0,0.0,0.0,0.0,0.0,0.0,0.0,0.0,0.0,0.0,0.0,0.0,0.0,0.0,0.0,0.0,0.0,0.0,0.0,0.0,0.0,0.0,0.0,0.0,0.0,0.0,0.0,0.0,0.0,0.0,0.0,0.0,0.0,-0.3886,0.0,0.0,0.0,0.0,0.0,0.0,0.0,0.0,0.0,0.0,0.0,0.0,0.0,0.0,0.0,0.0,0.0,0.0,0.0,0.0,0.0,0.0,0.0,0.0,0.0,0.0,0.0,0.0,0.0,0.0,0.0,0.0,0.0,0.0,0.0,0.0,0.0,0.0,0.0,0.0,0.0,0.0,0.0,0.0,0.0,0.0,0.0,-0.2063,0.0,0.0,0.0,0.0,0.0,0.0,0.0,0.0,0.0,0.0,0.0,0.0,0.0,0.4903,0.7245,0.7363,0.5052,0.4997,0.6176,0.8535,0.8189,0.8045,0.8017,0.8017,0.7976,0.7997,0.7997,0.6713,0.4295,0.1217,0.0,0.0,0.0,0.0,0.0,0.0,0.0,0.0,0.0,0.0,0.0,0.0,0.0,0.0,0.0,0.0,0.0,0.0,0.0,0.0,0.0,0.0,0.0,-0.1733,0.0,0.0,0.0,0.0,0.0,0.0,0.0,0.0,0.0,0.0,0.0,0.0,0.0,0.0,0.0,0.0,0.0,0.0,0.0,0.0,0.0,0.0,0.0,0.0,0.0,0.0,0.0,0.0,0.0,0.0,0.0,0.0,0.0,0.0,0.0,0.0,0.0,0.0,0.0,0.0,0.0,0.0,0.0,0.0,0.0,0.0,0.0,0.0,0.0,0.0,0.0,0.0,0.0,0.0,0.0,0.0,0.0,0.0,0.0,0.0,0.0,-0.2065,-0.089,-0.0072,0.0,0.0,0.0,0.0,0.0,0.0,0.0,0.0,0.0,0.1463,0.4424,0.8941,0.8999,0.8911,0.8873,0.8924,0.8962,0.8895,0.8478,0.8229,0.8266,0.8266,0.8209,0.822,0.811,0.8019,0.7561,0.2247,0.0,0.0,0.0,0.0,0.0,0.0,0.0,0.0,0.0,0.0,0.0,0.0,0.0,0.0,0.0,0.0,0.0,0.0,0.0,0.0,0.0,0.0,-0.1781,-0.5641,-0.2492,-0.1711,0.0,0.0,0.0,0.0,0.0,0.0,0.0,0.0,0.0,0.0,0.0,0.0,0.0,0.0,0.0,0.0,0.0,0.0,0.0,0.0,0.0,0.0,0.0,0.0,0.0,0.0,0.0,0.0,0.0,0.0,0.0,0.0,0.0,0.0,0.0,0.0,0.0,0.0,0.0,0.0,0.0,0.0,0.0,0.0,0.0,0.0,0.0,0.0,0.0,0.0,0.0,0.0,0.0,0.0,0.0,0.0,0.0,0.0,0.0,0.0,0.0,-0.0368,0.0,0.0,0.0,0.0,0.0,0.0,0.0,0.0,0.0,0.5333,0.8899,0.9707,0.9151,0.8948,0.8899,0.9039,0.9085,0.8921,0.8849,0.8876,0.8808,0.8808,0.8804,0.8797,0.8256,0.7972,0.7601,0.2225,0.0,0.0,0.0,0.0,0.0,0.0,0.0,0.0,0.0,0.0,0.0,0.0,0.0,0.0,0.0,0.0,0.0,0.0,0.0,0.0,0.0,-0.5328,-0.3712,-0.2353,-0.0829,-0.0544,-0.1874,0.0,0.0,0.0,0.0,0.0,0.0,0.0,0.0,0.0,0.0,0.0,0.0,0.0,0.0,0.0,0.0,0.0,0.0,0.0,0.0,0.0,0.0,0.0,0.0,0.0,0.0,0.0,0.0,0.0,0.0,0.0,0.0,0.0,0.0,0.0,0.0,0.0,0.0,0.0,0.0,0.0,0.0,0.0,0.0,0.0,0.0,0.0,0.0,0.0,0.0,0.0,0.0,0.0,0.0,0.0,0.0,0.0,0.0,0.0,0.0,-0.0088,0.0,0.0,0.0,0.0,0.0,0.0,0.0,0.0,0.0,0.5989,0.9519,0.9565,0.9405,0.9257,0.9228,0.9276,0.9198,0.9109,0.8933,0.886,0.8889,0.8889,0.889,0.8912,0.8696,0.8567,0.8431,0.6079,0.3068,0.0,0.0,0.0,0.0,0.0,0.0,0.0,0.0,0.0,0.0,0.0,0.0,0.0,0.0,0.0,0.0,0.0,0.0,-0.587,-0.6857,-0.6926,-0.532,-0.1654,-0.0493,0.0,0.0,0.0,0.0,0.0,0.0,0.0,0.0,0.0,0.0,0.0,0.0,0.0,0.0,0.0,0.0,0.0,0.0,0.0,0.0,0.0,0.0,0.0,0.0,0.0,0.0,0.0,0.0,0.0,0.0,0.0,0.0,0.0,0.0,0.0,0.0,0.0,0.0,0.0,0.0,0.0,0.0,0.0,0.0,0.0,0.0,0.0,0.0,0.0,0.0,0.0,0.0,0.0,0.0,0.0,0.0,0.0,0.0,0.0,0.0,0.0,0.0,0.0,0.0,0.0,0.0,0.0,0.0,0.0,0.0,0.0976,0.32,0.6389,0.8524,0.9552,0.9535,0.9422,0.9459,0.9459,0.9354,0.9154,0.9087,0.901,0.894,0.894,0.8941,0.8859,0.8638,0.8608,0.8593,0.8143,0.4871,0.0,0.0,0.0,0.0,0.0,0.0,0.0,0.0,0.0,0.0,0.0,0.0,0.0,0.0,0.0,0.0,0.0,0.0,-0.5884,-0.6627,-0.6915,-0.6357,-0.4321,-0.1576,0.0,0.0,0.0,0.0,0.0,0.0,0.0,0.0,0.0,0.0,0.0,0.0,0.0,0.0,0.0,0.0,0.0,0.0,0.0,0.0,0.0,0.0,0.0,0.0,0.0,0.0,0.0,0.0,0.0,0.0,0.0,0.0,0.0,0.0,0.0,0.0,0.0,0.0,0.0,0.0,0.0,0.0,0.0,0.0,0.0,0.0,0.0,0.0,0.0,0.0,0.0,0.0,0.0,0.0,0.0,0.0,0.0,0.0,0.0,-0.0808,-0.01,0.0,0.0,0.0,0.0,0.0,0.0,0.0,0.0,0.0226,0.3132,0.9486,0.6835,0.6553,0.9721,0.9554,0.9462,0.9602,0.9608,0.9452,0.9147,0.9418,0.9339,0.8947,0.894,0.894,0.8826,0.8254,0.8069,0.8059,0.8033,0.4934,0.0206,0.0102,0.0,0.0,0.0,0.0,0.0,0.0,0.0,0.0,0.0,0.0,0.0,0.0,0.0,0.0,0.0,-0.5549,-0.608,-0.6548,-0.7348,-0.7722,-0.7524,-0.2954,0.0,0.0,0.0,0.0,0.0,0.0,0.0,0.0,0.0,0.0,0.0,0.0,0.0,0.0,0.0,0.0,0.0,0.0,0.0,0.0,0.0,0.0,0.0,0.0,0.0,0.0,0.0,0.0,0.0,0.0,0.0,0.0,0.0,0.0,0.0,0.0,0.0,0.0,0.0,0.0,0.0,0.0,0.0,0.0,0.0,0.0,0.0,0.0,0.0,0.0,0.0,0.0,0.0,0.0,0.0,0.0,0.0,0.0,-0.679,-0.5908,-0.2484,0.0,0.0,0.0,0.0,0.0,0.0,0.0,0.0,0.4405,0.7881,0.9659,0.897,0.8908,0.9731,0.9754,0.9618,0.9445,0.9554,0.9405,0.8998,0.9147,0.9171,0.8858,0.8873,0.894,0.893,0.8709,0.8689,0.8659,0.8635,0.7574,0.5464,0.1519,0.0,0.0,0.0,0.0,0.0,0.0,0.0,0.0,0.0,0.0,0.0,0.0,0.0,0.0,0.0,-0.5658,-0.623,-0.6457,-0.6365,-0.7056,-0.8727,-0.3413,0.0,0.0,0.0,0.0,0.0,0.0,0.0,0.0,0.0,0.0,0.0,0.0,0.0,0.0,0.0,0.0,0.0,0.0,0.0,0.0,0.0,0.0,0.0,0.0,0.0,0.0,0.0,0.0,0.0,0.0,0.0,0.0,0.0,0.0,0.0,0.0,0.0,0.0,0.0,0.0,0.0,0.0,0.0,0.0,0.0,0.0,0.0,0.0,0.0,0.0,0.0,0.0,0.0,0.0,0.0,0.0,0.0,-0.7382,-0.766,-0.8332,-0.5442,-0.2531,-0.0246,0.0,0.0,0.0,0.0,0.0,0.0,0.6058,0.9841,0.9805,0.9836,0.9849,0.9842,0.9771,0.968,0.9564,0.9595,0.9445,0.9123,0.9208,0.9097,0.903,0.9185,0.9178,0.8884,0.885,0.8845,0.8865,0.8866,0.8663,0.0,0.0,0.0,0.0,0.0,0.0,0.0,0.0,0.0,0.0,0.0,0.0,0.0,0.0,0.0,0.0,0.0,0.0,-0.6237,-0.6352,-0.4987,-0.5033,-0.767,-0.3053,0.0,0.0,0.0,0.0,0.0,0.0,0.0,0.0,0.0,0.0,0.0,0.0,0.0,0.0,0.0,0.0,0.0,0.0,0.0,0.0,0.0,0.0,0.0,0.0,0.0,0.0,0.0,0.0,0.0,0.0,0.0,0.0,0.0,0.0,0.0,0.0,0.0,0.0,0.0,0.0,0.0,0.0,0.0,0.0,0.0,0.0,0.0,0.0,0.0,0.0,0.0,0.0,0.0,0.0,0.0,0.0,0.0,-0.7665,-0.8002,-0.8866,-0.7842,-0.5344,-0.0508,0.0,0.0,0.0,0.0,0.0385,0.114,0.6204,0.9462,0.9834,0.0,0.0,0.0,0.0,0.9703,0.9795,0.9673,0.9534,0.9381,0.9262,0.9201,0.9201,0.9539,0.9495,0.892,0.8892,0.8934,0.8897,0.8869,0.8865,0.838,0.3029,0.0916,0.0801,0.0201,0.0,0.0,0.0,0.0,0.0,0.0,0.0,0.0,0.0,0.0,0.0,-0.467,-0.5389,-0.6075,-0.6555,-0.5032,-0.3419,-0.1869,-0.0624,0.0,0.0,0.0,0.0,0.0,0.0,0.0,0.0,0.0,0.0,0.0,0.0,0.0,0.0,0.0,0.0,0.0,0.0,0.0,0.0,0.0,0.0,0.0,0.0,0.0,0.0,0.0,0.0,0.0,0.0,0.0,0.0,0.0,0.0,0.0,0.0,0.0,0.0,0.0,0.0,0.0,0.0,0.0,0.0,0.0,0.0,0.0,0.0,0.0,0.0,0.0,0.0,0.0,0.0,0.0,0.0,-0.7859,-0.7878,-0.8301,-0.9444,-0.5028,-0.1191,-0.0131,0.0,0.0,0.0,0.0,0.2418,0.8247,0.7115,0.7459,1.0102,1.0212,1.0137,1.0008,0.9978,0.9863,0.9652,0.9625,0.9534,0.9381,0.0,0.0,0.9153,0.9275,0.9298,0.9311,0.9042,0.8912,0.8914,0.8858,0.893,0.8693,0.7142,0.6455,0.5944,0.1608,0.0,0.0,0.0,0.0,0.0,0.0,0.0,0.0,0.0,0.0,0.0,0.0,-0.5219,-0.581,-0.6002,-0.4791,-0.2931,-0.0257,0.0,0.0,0.0,0.0,0.0,0.0,0.0,0.0,0.0,0.0,0.0,0.0,0.0,0.0,0.0,0.0,0.0,0.0,0.0,0.0,0.0,0.0,0.0,0.0,0.0,0.0,0.0,0.0,0.0,0.0,0.0,0.0,0.0,0.0,0.0,0.0,0.0,0.0,-0.0424,0.0,0.0,0.0,0.0,0.0,0.0,0.0,0.0,0.0,0.0,0.0,0.0,0.0,0.0,-0.7427,0.0,0.0,-0.5917,-0.7676,-0.8554,-0.9145,-0.9757,-0.4158,0.0,0.0,0.0,0.0,0.0,0.0,0.3,1.0104,0.9083,0.8765,1.0317,1.0222,1.0131,1.0049,0.9975,0.9866,0.9717,0.9717,0.9642,0.9496,0.9496,0.9416,0.9364,0.9288,0.9453,0.9583,0.9436,0.9332,0.9367,0.898,0.8863,0.8918,0.8567,0.8277,0.7661,0.4949,0.2312,0.0,0.0,0.0,0.0,0.0,0.0,0.0,0.0,0.0,0.0,0.0,0.0,-0.503,-0.5176,-0.4765,-0.3504,0.0,0.0,0.0,0.0,0.0,0.0,0.0,0.0,0.0,0.0,0.0,0.0,0.0,0.0,0.0,0.0,0.0,0.0,0.0,0.0,0.0,0.0,0.0,0.0,0.0,0.0,0.0,0.0,0.0,0.0,0.0,0.0,0.0,0.0,0.0,0.0,0.0,0.0,-0.0637,-0.205,-0.5476,-0.6358,0.0,0.0,0.0,0.0,0.0,0.0,0.0,0.0,0.0,-0.8359,-0.8396,-0.7926,-0.7669,-0.7994,-0.5964,-0.4734,-0.6206,-0.7305,-0.7867,-0.7836,-0.3369,0.0,0.0,0.0,0.0,0.0,0.1195,0.4129,0.9303,1.033,1.064,1.0489,1.0215,1.011,1.0049,0.993,0.9849,0.9822,0.9822,0.9764,0.9649,0.9649,0.9649,0.953,0.9526,0.959,0.9815,0.9796,0.9853,0.9713,0.9191,0.894,0.8948,0.8896,0.8621,0.8183,0.8001,0.4564,0.0,0.0,0.0,0.0,0.0,0.0,0.0,0.0,0.0,0.0,0.0,0.0,0.0,0.0,0.0,0.0,0.0,0.0,0.0,0.0,0.0,0.0,0.0,0.0,0.0,0.0,0.0,0.0,0.0,0.0,0.0,0.0,0.0,0.0,0.0,0.0,0.0,0.0,0.0,0.0,0.0,0.0,0.0,0.0,0.0,0.0,0.0,0.0,0.0,0.0,0.0,0.0,0.0,0.0,-0.2947,-0.6374,-0.6917,0.0,-0.6384,-0.685,-0.7007,0.0,-0.6474,-0.3578,-0.1529,0.0,0.0,-0.8085,-0.8372,-0.886,-0.88,-0.7425,-0.7841,-0.6697,-0.17,-0.1063,-0.1075,-0.1077,-0.0404,0.0,0.0,0.0,0.0,0.0,0.5747,0.8532,0.615,0.8876,1.0647,1.0473,1.0453,1.0321,1.0059,1.0032,0.9958,0.9822,0.9822,0.9812,0.9798,0.9798,0.9798,0.9798,0.9798,0.9805,0.9815,0.9796,0.9853,0.972,0.9182,0.8862,0.8925,0.8923,0.8813,0.8736,0.8229,0.4579,0.0,0.0,0.0,0.0,0.0,0.0,0.0,0.0,0.0,0.0,0.0,0.0,0.0,0.0,0.0,0.0,0.0,0.0,0.0,-0.0172,0.0,0.0,0.0,0.0,0.0,0.0,0.0,0.0,0.0,0.0,0.0,0.0,0.0,0.0,0.0,0.0,0.0,0.0,0.0,0.0,0.0,0.0,0.0,0.0,0.0,0.0,0.0,0.0,0.0,0.0,0.0,0.0,0.0,0.0,-0.2346,-0.5062,-0.5095,-0.5857,0.0,-0.7078,0.0,0.0,0.0,-0.629,-0.4629,-0.2372,-0.2663,-0.3769,-0.5477,-0.7641,-0.9123,-0.9154,-0.6151,-0.2915,0.0,0.0,0.0,0.0,0.0,0.0,0.0,0.0,0.0,0.0,0.2719,0.5577,0.8,0.9745,1.0671,1.0493,1.0415,1.031,1.0188,1.0008,0.9886,0.9822,0.9822,0.9822,0.9822,0.9822,0.9822,0.9822,0.9822,0.9822,0.9819,0.9758,0.981,0.972,0.9562,0.9456,0.9367,0.9398,0.9213,0.884,0.8604,0.4865,0.0,0.0,0.0,0.0,0.0,0.0,0.0,0.0,0.0,0.0,0.0,0.0,0.0,0.0,0.0,0.0,0.0,0.0,0.0,0.0,-0.057,0.0,0.0,0.0,0.0,0.0,0.0,0.0,0.0,0.0,0.0,0.0,0.0,0.0,0.0,0.0,0.0,0.0,0.0,0.0,0.0,0.0,0.0,0.0,0.0,0.0,0.0,0.0,0.0,0.0,0.0,0.0,-0.0181,-0.1352,-0.2937,-0.4289,-0.384,-0.5387,-0.7252,-0.7027,0.0,0.0,-0.7175,-0.7996,-0.6951,-0.1244,0.0,-0.0609,-0.2515,-0.4737,-0.6761,-0.7541,-0.344,0.0,0.0,0.0,0.0,0.0,0.0,0.0,0.0,0.0,0.0,0.0,0.0,0.2426,0.8509,0.9951,1.0544,1.0493,1.0358,1.0259,1.0219,0.9958,0.9822,0.9822,0.9822,0.9822,0.9822,0.9822,0.9822,0.9822,0.9822,0.9822,0.9822,0.9822,0.9768,0.9792,0.9801,0.9679,0.9547,0.9756,0.8404,0.6415,0.6466,0.3672,0.0,0.0,0.0,0.0,0.0,0.0,0.0,0.0,0.0,0.0,0.0,0.0,0.0,0.0,0.0,0.0,0.0,0.0,0.0,0.0,-0.1919,0.0,0.0,0.0,0.0,0.0,0.0,0.0,0.0,0.0,0.0,0.0,0.0,0.0,0.0,0.0,0.0,0.0,0.0,0.0,0.0,0.0,0.0,0.0,0.0,0.0,0.0,0.0,0.0,0.0,0.0,0.0,-0.0723,-0.484,-0.6149,0.0,-0.4398,-0.5696,-0.7483,0.0,0.0,-0.4479,-0.5957,-0.6711,-0.5943,-0.11,0.0,-0.0,-0.0129,-0.0258,-0.0257,-0.0381,-0.0127,0.0,0.0,0.0,0.0,0.0,0.0,0.0,0.0,0.0,0.0,0.0,0.0,0.1495,0.5255,0.8601,1.0387,1.0493,1.0358,1.0212,1.0063,0.9903,0.9822,0.9822,0.9822,0.9822,0.9822,0.9822,0.9822,0.9822,0.9822,0.9822,0.9822,0.9822,0.9832,0.9849,0.9842,0.9402,0.9036,0.9523,0.5944,0.0228,0.0225,0.0112,0.0,0.0,0.0,0.0,0.0,0.0,0.0,0.0,0.0,0.0,0.0,0.0,0.0,0.0,0.0,0.0,0.0,0.0,0.0,0.0,-0.0697,0.0,0.0,0.0,0.0,0.0,0.0,0.0,0.0,0.0,0.0,0.0,0.0,0.0,0.0,0.0,0.0,0.0,0.0,0.0,0.0,0.0,0.0,0.0,0.0,-0.152,-0.3586,0.0,0.0,0.0,0.0,0.0,0.0,-0.5004,-0.6263,0.0,-0.6578,-0.6954,-0.6545,-0.3108,0.0,-0.1476,-0.1975,-0.2195,-0.1911,-0.0386,0.0,0.0,0.0,0.0,0.0,0.0,0.0,0.0,0.0,0.0,0.0,0.0,0.0,0.0,0.0,0.0,0.0,0.0,0.0,0.0,0.1715,0.7259,1.0559,1.0373,1.041,1.0232,1.008,0.991,0.9822,0.9822,0.9822,0.9822,0.9822,0.9822,0.9822,0.9822,0.9822,0.9829,0.9842,0.9842,0.9859,0.9503,0.5097,0.3132,0.3,0.3192,0.1992,0.0,0.0,0.0,0.0,0.0,0.0,0.0,0.0,0.0,0.0,0.0,0.0,0.0,0.0,0.0,0.0,0.0,0.0,0.0,0.0,0.0,0.0,0.0,0.0,0.0,0.0,0.0,0.0,0.0,0.0,0.0,0.0,0.0,0.0,0.0,0.0,0.0,0.0,0.0,0.0,0.0,0.0,0.0,0.0,0.0,0.0,0.0,0.0,-0.2286,0.0,0.0,0.0,0.0,0.0,0.0,0.0,-0.4671,-0.5998,-0.6967,-0.7671,-0.762,-0.6475,-0.2396,-0.0695,0.0,0.0,0.0,0.0,0.0,0.0,0.0,0.0,0.0,0.0,0.0,0.0,0.0,0.0,0.0,0.0,0.0,0.0,0.0,0.0,0.0,0.0,0.0,0.0,0.0,0.0,0.4297,0.7393,0.8514,0.8543,0.9034,1.0103,0.9941,0.9852,0.9852,0.9852,0.9852,0.9852,0.9852,0.9852,0.9852,0.9852,0.9859,0.9625,0.7373,0.627,0.591,0.1701,0.0,0.0,0.0,0.0,0.0,0.0,0.0,0.0,0.0,0.0,0.0,0.0,0.0,0.0,0.0,0.0,0.0,0.0,0.0,0.0,0.0,0.0,0.0,0.0,0.0,0.0,0.0,0.0,0.0,0.0,0.0,0.0,0.0,0.0,0.0,0.0,0.0,0.0,0.0,0.0,0.0,0.0,0.0,0.0,0.0,0.0,0.0,0.0,0.0,0.0,-0.0,-0.0172,0.0,0.0,0.0,0.0,0.0,0.0,0.0,0.0,0.0,-0.5631,-0.7731,-0.7715,-0.7811,-0.7334,-0.4375,-0.1859,0.0,0.0,0.0,0.0,0.0,0.0,0.0,0.0,0.0,0.0,0.0,0.0,0.0,0.0,0.0,0.0,0.0,0.0,0.0,0.0,0.0,0.0,0.0,0.0,0.0,0.0,0.0,0.1514,0.4993,0.5187,0.6665,0.9982,0.9724,0.9532,0.9532,0.9532,0.9532,0.9532,0.9532,0.9655,0.9784,0.9784,0.9655,0.8903,0.27,0.0,0.0,0.0,0.0,0.0,0.0,0.0,0.0,0.0,0.0,0.0,0.0,0.0,0.0,0.0,0.0,0.0,0.0,0.0,0.0,0.0,0.0,0.0,0.0,0.0,0.0,0.0,0.0,0.0,0.0,0.0,0.0,0.0,0.0,0.0,0.0,0.0,0.0,0.0,0.0,0.0,0.0,0.0,0.0,0.0,0.0,0.0,0.0,0.0,0.0,0.0,0.0,0.0,-0.0274,0.0,0.0,0.0,0.0,0.0,0.0,0.0,0.0,0.0,0.0,-0.7332,-0.8243,-0.8532,-0.8252,-0.7368,-0.4619,-0.2048,0.0,0.0,0.0,0.0,0.0,0.0,0.0,0.0,0.0,0.0,0.0,0.0,0.0,0.0,0.0,0.0,0.0,0.0,0.0,0.0,0.0,0.0,0.0,0.0,0.0,0.0,0.0,0.0368,0.137,0.1379,0.2879,0.6207,0.6173,0.6156,0.6156,0.6156,0.6156,0.6156,0.6156,0.7398,0.9784,0.9784,0.7155,0.246,0.0738,0.0,0.0,0.0,0.0,0.0,0.0,0.0,0.0,0.0,0.0,0.0,0.0,0.0,0.0,0.0,0.0,0.0,0.0,0.0,0.0,0.0,0.0,0.0,0.0,0.0,0.0,0.0,0.0,0.0,0.0,0.0,0.0,0.0,0.0,0.0,0.0,0.0,0.0,0.0,0.0,0.0,0.0,0.0,0.0,0.0,0.0,0.0,0.0,0.0,0.0,0.0,0.0,0.0,0.0,0.0,0.0,0.0,0.0,0.0,0.0,0.0,0.0,-0.7716,-0.8063,-0.8431,-0.8873,-0.933,0.0,-0.8186,-0.5203,-0.2298,0.0,0.0,0.0,0.0,0.0,0.0,0.0,0.0,0.0,0.0,0.0,0.0,0.0,0.0,0.0,0.0,0.0,0.0,0.0,0.0,0.0,0.0,0.0,0.0,0.0,0.0,0.0,0.0,0.0,0.0,0.0877,0.2715,0.271,0.2708,0.2708,0.2708,0.2708,0.2708,0.2708,0.3696,0.5552,0.5552,0.3451,0.0,0.0,0.0,0.0,0.0,0.0,0.0,0.0,0.0,0.0,0.0,0.0,0.0,0.0,0.0,0.0,0.0,0.0,0.0,0.0,0.0,0.0,0.0,0.0,0.0,0.0,0.0,0.0,0.0,0.0,0.0,0.0,0.0,0.0,0.0,0.0,0.0,0.0,0.0,0.0,0.0,0.0,0.0,0.0,0.0,0.0,0.0,0.0,0.0,0.0,0.0,0.0,0.0,0.0,0.0,0.0,0.0,0.0,0.0,0.0,0.0,0.0,0.0,-0.7539,-0.8065,-0.8669,-0.9164,-0.9649,-1.0249,-1.0257,-0.9231,-0.592,-0.2515,0.0,0.0,0.0,0.0,0.0,0.0,0.0,0.0,0.0,0.0,0.0,0.0,0.0,0.0,0.0,0.0,0.0,0.0,0.0,0.0,0.0,0.0,0.0,0.0,0.0,0.0,0.0,0.0,0.0,0.0,0.0,0.0,0.0,0.0,0.0,0.0,0.0,0.0,0.0,0.0,0.0,0.0,0.0,0.0,0.0,0.0,0.0,0.0,0.0,0.0,0.0,0.0,0.0,0.0,0.0,0.0,0.0,0.0,0.0,0.0,0.0,0.0,0.0,0.0,0.0,0.0,-0.4157,0.0,0.0,0.0,0.0,0.0,0.0,0.0,0.0,0.0,0.0,0.0,0.0,0.0,0.0,0.0,0.0,0.0,0.0,0.0,0.0,0.0,0.0,0.0,0.0,0.0,0.0,0.0,0.0,0.0,0.0,0.0,0.0,0.0,0.0,0.0,0.0,0.0,0.0,0.0,-0.8065,-0.8849,-0.9442,-0.9937,-1.0419,-1.1019,-1.1077,-1.0173,-0.6625,-0.2921,0.0,0.0,0.0,0.0,0.0,0.0,0.0,0.0,0.0,0.0,0.0,0.0,0.0,0.0,0.0,0.0,0.0,0.0,0.0,0.0,0.0,0.0,0.0,0.0,0.0,0.0,0.0,0.0,0.0,0.0,0.0,0.0,0.0,0.0,0.0,0.0,0.0,0.0,0.0,0.0,0.0,0.0,0.0,0.0,0.0,0.0,0.0,0.0,0.0,0.0,0.0,0.0,0.0,0.0,0.0,0.0,0.0,0.0,0.0,0.0,0.0,0.0,0.0,0.0,0.0,0.0,-0.4684,-0.4596,0.0,0.0,0.0,0.0,0.0,0.0,0.0,0.0,0.0,0.0,0.0,0.0,0.0,0.0,0.0,0.0,0.0,0.0,0.0,0.0,0.0,0.0,0.0,0.0,0.0,0.0,0.0,0.0,0.0,0.0,0.0,0.0,0.0,0.0,0.0,0.0,0.0,0.0,-0.778,-0.8777,-0.9836,-1.0429,-1.0846,-1.1447,-1.1626,-1.0804,-0.708,-0.3133,0.0,0.0,0.0,0.0,0.0,0.0,0.0,0.0,0.0,0.0,0.0,0.0,0.0,0.0,0.0,0.0,0.0,0.0,0.0,0.0,0.0,0.0,0.0,0.0,0.0,0.0,0.0,0.0,0.0,0.0,0.0,0.0,0.0,0.0,0.0,0.0,0.0,0.0,0.0,0.0,0.0,0.0,0.0,0.0,0.0,0.0,0.0,0.0,0.0,0.0,0.0,0.0,0.0,0.0,0.0,0.0,0.0,0.0,0.0,0.0,0.0,0.0,0.0,-0.4568,-0.4609,-0.4884,-0.4785,-0.4704,-0.4735,-0.4613,0.0,0.0,0.0,0.0,0.0,0.0,0.0,0.0,0.0,0.0,0.0,0.0,0.0,0.0,0.0,0.0,0.0,0.0,0.0,0.0,0.0,0.0,0.0,0.0,0.0,0.0,0.0,0.0,0.0,0.0,0.0,0.0,0.0,0.0,0.0,0.0,-0.7265,-0.8248,-0.9517,-1.0324,-1.0904,-1.1399,-1.1789,-1.1199,-0.7407,-0.3292,0.0,0.0,0.0,0.0,0.0,0.0,0.0,0.0,0.0,0.0,0.0,0.0,0.0,0.0,0.0,0.0,0.0,0.0,0.0,0.0,0.0,0.0,0.0,0.0,0.0,0.0,0.0,0.0,0.0,0.0,0.0,0.0,0.0,0.0,0.0,0.0,0.0,0.0,0.0,0.0,0.0,0.0,0.0,0.0,0.0,0.0,0.0,0.0,0.0,0.0,0.0,0.0,0.0,0.0,0.0,0.0,0.0,0.0,0.0,0.0,0.0,0.0,0.0,-0.4589,-0.4728,-0.4897,-0.4785,-0.4745,-0.488,-0.4762,0.0,0.0,0.0,0.0,0.0,0.0,0.0,0.0,0.0,0.0,0.0,0.0,0.0,0.0,0.0,0.0,0.0,0.0,0.0,0.0,0.0,0.0,0.0,0.0,0.0,0.0,0.0,0.0,0.0,0.0,0.0,0.0,0.0,0.0,0.0,0.0,0.0,-0.7339,-0.7885,-0.911,-1.0378,-1.0561,0.0,0.0,-0.7365,-0.3206,0.0,0.0,0.0,0.0,0.0,0.0,0.0,0.0,0.0,0.0,0.0,0.0,0.0,0.0,0.0,0.0,0.0,0.0,0.0,0.0,0.0,0.0,0.0,0.0,0.0,0.0,0.0,0.0,0.0,0.0,0.0,0.0,0.0,0.0,0.0,0.0,0.0,0.0,0.0,0.0,0.0,0.0,0.0,0.0,0.0,0.0,0.0,0.0,0.0,0.0,0.0,0.0,0.0,0.0,0.0,0.0,0.0,0.0,0.0,0.0,0.0,0.0,0.0,-0.4572,-0.4643,-0.4887,-0.4785,-0.4714,-0.4775,-0.4728,-0.4629,0.0,0.0,0.0,0.0,0.0,0.0,0.0,0.0,0.0,0.0,0.0,0.0,0.0,0.0,0.0,0.0,0.0,0.0,0.0,0.0,0.0,0.0,0.0,0.0,0.0,0.0,0.0,0.0,0.0,0.0,0.0,0.0,0.0,0.0,0.0,0.0,0.0,-0.6573,-0.7424,0.0,0.0,-1.0781,-1.1276,-1.0158,-0.4965,0.0,0.0,0.0,0.0,0.0,0.0,0.0,0.0,0.0,0.0,0.0,0.0,0.0,0.0,0.0,0.0,0.0,0.0,0.0,0.0,0.0,0.0,0.0,0.0,0.0,0.0,0.0,0.0,0.0,0.0,0.0,0.0,0.0,0.0,0.0,0.0,0.0,0.0,0.0,0.0,0.0,0.0,0.0,0.0,0.0,0.0,0.0,0.0,0.0,0.0,0.0,0.0,0.0,0.0,0.0,0.0,0.0,0.0,0.0,0.0,0.0,0.0,-0.4521,-0.4541,-0.4609,-0.4823,-0.4758,-0.4691,-0.4691,-0.465,-0.4579,-0.4525,0.0,0.0,0.0,0.0,0.0,0.0,0.0,0.0,0.0,0.0,0.0,0.0,0.0,0.0,0.0,0.0,-0.4512,-0.4519,0.0,0.0,0.0,0.0,0.0,0.0,0.0,0.0,0.0,0.0,0.0,0.0,0.0,0.0,0.0,0.0,0.0,0.0,0.0,0.0,0.0,0.0,-0.9779,-1.0774,-1.1628,-0.7659,-0.305,-0.1674,-0.1147,-0.091,0.0,0.0,0.0,0.0,0.0,0.0,0.0,0.0,0.0,0.0,0.0,0.0,0.0,0.0,0.0,0.0,0.0,0.0,0.0,0.0,0.0,0.0,0.0,0.0,0.0,0.0,0.0,0.0,0.0,0.0,0.0,0.0,0.0,0.0,0.0,0.0,0.0,0.0,0.0,0.0,0.0,0.0,0.0,0.0,0.0,0.0,0.0,0.0,-0.0246,-0.2186,-0.2924,-0.2582,0.0,0.0,0.0,0.0,0.0,0.0,0.0,-0.4501,-0.4691,-0.4694,-0.4694,-0.4691,-0.4691,-0.4555,-0.4519,-0.4519,0.0,0.0,0.0,0.0,0.0,0.0,0.0,0.0,0.0,0.0,0.0,0.0,0.0,0.0,0.0,0.0,0.0,0.0,0.0,0.0,0.0,0.0,0.0,0.0,0.0,0.0,0.0,0.0,0.0,0.0,0.0,0.0,0.0,0.0,0.0,0.0,0.0,0.0,0.0,0.0,-0.8465,-0.9652,-1.0681,-1.1066,-1.0128,-0.5517,-0.3763,-0.2994,0.0,0.0,0.0,0.0,0.0,0.0,0.0,0.0,0.0,0.0,0.0,0.0,0.0,0.0,0.0,0.0,0.0,0.0,0.0,0.0,0.0,0.0,0.0,0.0,0.0,0.0,0.0,0.0,0.0,0.0,0.0,0.0,0.0,0.0,0.0,0.0,0.0,0.0,0.0,0.0,0.0,0.0,0.0,0.0,0.0,0.0,0.0,0.0,-0.0736,-0.7273,-0.9655,-0.8775,0.0,0.0,0.0,0.0,0.0,0.0,0.0,-0.4473,-0.4591,-0.4591,-0.4591,-0.4591,-0.4591,-0.4546,-0.4423,-0.4324,0.0,0.0,0.0,0.0,0.0,0.0,0.0,0.0,0.0,0.0,0.0,0.0,0.0,0.0,0.0,0.0,0.0,0.0,0.0,0.0,0.0,0.0,0.0,0.0,0.0,0.0,0.0,0.0,0.0,0.0,0.0,0.0,0.0,0.0,0.0,0.0,0.0,0.0,0.0,0.0,0.0,0.0,-0.9095,-0.9724,-0.9662,-0.8099,-0.6812,-0.5676,-0.4942,0.0,-0.2975,-0.048,0.0,0.0,0.0,0.0,0.0,0.0,0.0,0.0,0.0,0.0,0.0,0.0,0.0,0.0,0.0,0.0,0.0,0.0,0.0,0.0,0.0,0.0,0.0,0.0,0.0,0.0,0.0,0.0,0.0,0.0,0.0,0.0,0.0,0.0,0.0,-0.0238,-0.477,-0.6686,-0.6681,-0.6681,-0.6724,-0.667,-0.667,-0.6703,-0.6999,-0.8995,-0.9747,-0.9493,0.0,0.0,0.0,0.0,0.0,0.0,0.0,-0.4297,-0.4297,-0.4297,-0.4297,-0.4297,-0.4297,-0.4506,-0.4625,-0.4477,0.0,0.0,0.0,0.0,0.0,0.0,0.0,0.0,0.0,0.0,0.0,0.0,0.0,0.0,0.0,0.0,0.0,0.0,0.0,0.0,0.0,0.0,0.0,0.0,0.0,0.0,-0.4842,0.0,0.0,0.0,0.0,0.0,0.0,0.0,0.0,0.0,0.0,0.0,0.0,0.0,-0.6139,0.0,0.0,-0.8348,-0.8717,-0.8613,-0.776,0.0,0.0,0.0,-0.4883,-0.2536,-0.0976,0.0,0.0,0.0,0.0,0.0,0.0,0.0,0.0,0.0,0.0,0.0,0.0,0.0,0.0,0.0,0.0,0.0,0.0,0.0,0.0,0.0,0.0,0.0,0.0,0.0,0.0,0.0,0.0,0.0,0.0,-0.1143,-0.3334,-0.1043,-0.1282,-0.3632,-0.7646,-0.9555,0.0,-0.9607,-0.9446,-0.9533,-0.9713,-0.9747,-0.9771,-0.9822,-0.9808,-0.9771,0.0,0.0,0.0,0.0,0.0,0.0,0.0,0.0,0.0,0.0,-0.4036,-0.4036,-0.4036,-0.4592,-0.4931,0.0,0.0,0.0,0.0,0.0,0.0,0.0,0.0,0.0,0.0,0.0,0.0,-0.6717,-0.713,-0.7307,-0.7307,0.0,0.0,0.0,0.0,0.0,0.0,0.0,0.0,0.0,0.0,0.0,0.0,0.0,0.0,0.0,0.0,0.0,0.0,0.0,0.0,0.0,0.0,0.0,0.0,0.0,0.0,0.0,0.0,-0.7214,0.0,0.0,0.0,0.0,0.0,0.0,0.0,0.0,0.0,-0.0129,-0.0,0.0,0.0,0.0,0.0,0.0,0.0,0.0,0.0,0.0,0.0,0.0,0.0,0.0,0.0,0.0,0.0,0.0,0.0,0.0,0.0,0.0,0.0,0.0,0.0,0.0,0.0,0.0,0.0,-0.2938,-0.8067,-0.2975,-0.3684,0.0,-0.8913,-0.9258,-0.9719,-0.915,-0.8966,-0.8982,-0.961,-0.9834,-0.9734,-0.9764,-0.9847,-0.9737,0.0,0.0,0.0,0.0,0.0,0.0,0.0,0.0,0.0,0.0,0.0,-0.414,-0.414,-0.4865,0.0,0.0,0.0,0.0,0.0,0.0,0.0,0.0,0.0,0.0,0.0,0.0,0.0,-0.785,-0.8891,-0.9424,-0.943,-0.9862,0.0,0.0,0.0,0.0,0.0,0.0,0.0,0.0,0.0,0.0,0.0,0.0,0.0,0.0,-0.483,-0.5081,0.0,0.0,0.0,0.0,0.0,0.0,0.0,0.0,-0.5047,-0.5131,-0.5372,0.0,-0.6061,-0.6061,-0.5867,-0.5657,0.0,0.0,0.0,0.0,0.0,0.0,0.0,0.0,0.0,0.0,0.0,0.0,0.0,0.0,0.0,0.0,0.0,0.0,0.0,0.0,0.0,0.0,0.0,0.0,0.0,0.0,0.0,0.0,0.0,0.0,0.0,0.0,0.0,0.0,0.0,-0.0784,-0.2248,-0.5396,-0.7561,-0.8854,-0.894,-0.903,-0.9055,-0.8964,-0.9141,-0.9631,-0.9785,-0.9466,-0.9222,-0.9603,-0.9659,-0.9473,0.0,0.0,0.0,0.0,0.0,0.0,0.0,0.0,0.0,0.0,0.0,0.0,0.0,0.0,0.0,0.0,0.0,0.0,0.0,0.0,0.0,0.0,0.0,0.0,0.0,0.0,0.0,0.0,0.0,-1.006,0.0,0.0,0.0,0.0,0.0,0.0,0.0,0.0,0.0,0.0,-0.7128,0.0,0.0,0.0,0.0,0.0,-0.5162,-0.5534,0.0,-0.5024,-0.494,-0.518,0.0,0.0,0.0,0.0,-0.5157,-0.4904,-0.4833,-0.5142,-0.5484,-0.5484,-0.5477,-0.5447,0.0,0.0,0.0,0.0,0.0,0.0,0.0,0.0,0.0,0.0,-0.1827,0.0,0.0,0.0,0.0,0.0,0.0,0.0,0.0,0.0,0.0,0.0,0.0,0.0,0.0,0.0,-0.1095,-0.3613,-0.128,-0.1157,-0.3688,-0.1262,0.0,0.0,0.0,-0.1416,-0.4144,-0.7437,-0.891,-0.8859,-0.892,-0.8944,-0.895,-0.8861,-0.9037,-0.9401,-0.9439,-0.9218,-0.8948,-0.9291,-0.9517,-0.9525,0.0,0.0,0.0,0.0,0.0,0.0,0.0,0.0,0.0,0.0,0.0,0.0,0.0,0.0,0.0,0.0,0.0,0.0,0.0,0.0,0.0,0.0,0.0,0.0,0.0,0.0,0.0,0.0,0.0,0.0,0.0,0.0,-1.0287,0.0,0.0,0.0,0.0,0.0,0.0,0.0,-0.7883,0.0,0.0,0.0,0.0,0.0,0.0,0.0,0.0,-0.5117,-0.5113,-0.5681,-0.5732,0.0,0.0,0.0,0.0,0.0,-0.5067,-0.5446,-0.5741,-0.5436,-0.5426,-0.5515,0.0,0.0,0.0,0.0,0.0,0.0,0.0,0.0,0.0,0.0,0.0,0.0,0.0,0.0,0.0,0.0,0.0,0.0,0.0,0.0,0.0,0.0,0.0,-0.033,-0.1228,-0.1193,-0.3325,-0.7849,-0.3578,-0.3411,-0.7997,-0.3514,-0.1239,-0.1236,-0.1258,-0.3915,-0.8734,-0.873,-0.8789,-0.8786,-0.8814,0.0,-0.8913,-0.8943,-0.8888,-0.8901,-0.8931,-0.8899,-0.8911,-0.8984,-0.9268,-0.9585,0.0,0.0,0.0,0.0,0.0,0.0,0.0,0.0,0.0,0.0,0.0,0.0,0.0,0.0,0.0,0.0,0.0,0.0,0.0,0.0,0.0,0.0,0.0,0.0,0.0,0.0,0.0,0.0,0.0,0.0,-1.0638,-1.1269,-1.1069,0.0,0.0,0.0,-0.8646,-0.8752,-0.8752,-0.8646,-0.8646,0.0,0.0,0.0,0.0,0.0,0.0,0.0,0.0,-0.5814,-0.5819,-0.6317,-0.574,0.0,0.0,0.0,0.0,0.0,-0.6648,-0.7152,-0.7164,-0.5417,-0.5192,-0.5355,0.0,0.0,0.0,0.0,0.0,0.0,0.0,0.0,0.0,0.0,0.0,0.0,0.0,0.0,0.0,0.0,0.0,0.0,0.0,0.0,0.0,0.0,0.0,-0.1972,-0.6498,-0.6813,-0.7123,-0.7975,-0.7185,-0.7211,-0.8016,-0.7208,-0.6741,-0.6741,-0.6741,-0.7223,-0.819,-0.8171,-0.8171,-0.8197,0.0,-0.8946,-0.8872,-0.891,-0.886,-0.8873,-0.8897,-0.8868,-0.8907,-0.9305,-0.9408,-0.9301,0.0,0.0,0.0,0.0,0.0,0.0,0.0,0.0,0.0,0.0,0.0,0.0,0.0,0.0,0.0,0.0,0.0,0.0,0.0,0.0,0.0,0.0,0.0,0.0,0.0,0.0,0.0,0.0,0.0,-1.0263,-1.133,-1.1196,-1.0621,-0.9562,0.0,0.0,-0.8804,-0.8804,-0.8804,-0.8804,0.0,0.0,0.0,0.0,0.0,0.0,0.0,0.0,0.0,0.0,-0.6583,-0.7128,-0.6794,0.0,0.0,0.0,0.0,0.0,-0.6769,-0.7193,-0.7335,-0.6577,-0.6885,-0.7315,-0.6941,0.0,0.0,0.0,0.0,0.0,0.0,0.0,0.0,0.0,0.0,0.0,0.0,0.0,0.0,0.0,0.0,0.0,0.0,0.0,-0.115,-0.4153,-0.4272,-0.4749,-0.5822,-0.7162,-0.8001,-0.7997,-0.8021,-0.8042,-0.7955,-0.8029,-0.7965,-0.7965,-0.8021,-0.8047,-0.8047,-0.8037,-0.7975,-0.8053,0.0,-0.8632,-0.8946,-0.8876,-0.894,-0.8947,-0.8897,-0.8927,-0.8974,-0.9262,-0.9344,-0.9281,0.0,0.0,0.0,0.0,0.0,0.0,0.0,0.0,0.0,0.0,0.0,0.0,0.0,0.0,0.0,0.0,0.0,0.0,0.0,0.0,0.0,0.0,0.0,0.0,0.0,0.0,-0.9345,-0.9603,-0.9256,-0.9826,-1.1266,-1.067,-0.9953,0.0,0.0,0.0,-0.8804,-0.8804,-0.8804,-0.8804,0.0,0.0,0.0,0.0,0.0,0.0,0.0,0.0,0.0,0.0,0.0,0.0,0.0,0.0,0.0,-0.7777,-0.7563,-0.7139,-0.7198,-0.7462,-0.7757,-0.8111,0.0,-0.8699,-0.8677,0.0,0.0,0.0,0.0,0.0,0.0,0.0,0.0,0.0,0.0,0.0,0.0,0.0,0.0,0.0,-0.3441,-0.1715,-0.1025,-0.0909,-0.2354,-0.5891,-0.7298,-0.7112,-0.5063,-0.6876,-0.8032,-0.8028,-0.8026,-0.7955,-0.8038,-0.8038,-0.8038,-0.8038,-0.8038,-0.8038,-0.8038,-0.8038,-0.8002,-0.8014,-0.7975,-0.8332,-0.8894,-0.8862,-0.894,-0.894,-0.894,-0.8913,-0.9047,-0.9283,-0.937,-0.9405,0.0,0.0,0.0,0.0,0.0,0.0,0.0,0.0,0.0,0.0,0.0,0.0,0.0,0.0,0.0,0.0,0.0,0.0,0.0,0.0,0.0,0.0,0.0,0.0,0.0,-0.9037,-0.88,-0.8084,-0.8898,-0.9361,-0.9473,-0.9665,-0.9566,-0.917,0.0,-0.8804,-0.8804,-0.8804,-0.8804,-0.8804,-0.8804,0.0,0.0,0.0,0.0,0.0,0.0,0.0,0.0,0.0,0.0,0.0,0.0,0.0,-0.8646,-0.8699,-0.8699,-0.8705,-0.8967,-0.9269,-0.9505,-0.9531,0.0,0.0,-0.927,0.0,0.0,0.0,0.0,0.0,0.0,0.0,0.0,0.0,0.0,0.0,0.0,0.0,0.0,0.0,-0.8359,-0.6744,-0.4035,-0.3752,-0.2818,-0.0744,-0.5235,-0.7911,-0.7689,-0.7854,-0.7969,-0.7959,-0.8048,-0.8041,-0.8038,-0.8038,-0.8038,-0.8038,-0.8038,-0.8038,-0.8038,-0.8038,-0.8045,-0.7969,-0.8037,-0.8381,-0.885,-0.8931,-0.894,-0.894,-0.894,-0.914,-0.9387,-0.9398,-0.9394,-0.9387,0.0,0.0,0.0,0.0,0.0,0.0,0.0,0.0,0.0,0.0,0.0,0.0,0.0,0.0,0.0,0.0,0.0,0.0,0.0,0.0,0.0,0.0,0.0,-0.8824,-0.9406,-0.9302,-0.9157,-0.9042,-0.9778,-0.9355,-0.7982,-0.9126,0.0,0.0,0.0,-0.8804,-0.8804,-0.8804,-0.8804,-0.8804,-0.8804,-0.8804,0.0,0.0,0.0,0.0,0.0,0.0,0.0,0.0,-0.8586,-0.8752,0.0,0.0,-0.8804,-0.8804,-0.8804,-0.8831,-0.8938,-0.9452,-0.9953,-0.9953,0.0,0.0,0.0,0.0,0.0,0.0,0.0,0.0,0.0,0.0,0.0,0.0,0.0,0.0,0.0,0.0,0.0,-0.9001,-0.8836,-0.8197,-0.6948,-0.658,-0.6076,-0.5014,-0.6861,-0.8047,-0.8042,-0.7982,-0.8048,-0.8038,-0.8038,-0.8038,-0.8038,-0.8038,-0.8038,-0.8038,-0.8038,-0.8038,-0.8038,-0.8038,-0.8038,-0.7952,-0.8047,-0.8294,-0.893,-0.8932,-0.8855,-0.8947,-0.892,-0.8987,-0.9037,-0.9037,-0.9037,-0.9137,0.0,0.0,0.0,0.0,0.0,0.0,0.0,0.0,0.0,0.0,0.0,0.0,0.0,0.0,0.0,0.0,0.0,0.0,0.0,0.0,0.0,0.0,0.0,-0.876,-0.9606,-0.9266,-0.8961,-0.8837,-0.9209,-0.8589,-0.7076,0.0,0.0,0.0,0.0,-0.8804,-0.8804,-0.8804,-0.8804,-0.8804,-0.8804,-0.8804,0.0,0.0,0.0,0.0,0.0,0.0,0.0,0.0,-0.8804,0.0,0.0,0.0,0.0,0.0,0.0,-0.8804,-0.8804,-0.9245,-0.9746,0.0,0.0,0.0,0.0,0.0,0.0,0.0,0.0,0.0,0.0,0.0,0.0,0.0,0.0,0.0,0.0,0.0,-0.892,-0.8669,-0.8721,-0.8663,-0.8448,-0.8193,-0.8024,-0.8018,-0.8011,-0.7961,-0.8045,-0.8038,-0.8038,-0.8038,-0.8038,-0.8038,-0.8038,-0.8038,-0.8038,-0.8038,-0.8038,-0.8038,-0.8038,-0.8038,-0.8038,-0.8048,-0.7994,-0.8243,-0.8604,-0.8866,-0.8913,-0.8947,-0.893,-0.8854,-0.8854,-0.8854,-0.8854,-0.8953,0.0,0.0,0.0,0.0,0.0,0.0,0.0,0.0,0.0,0.0,0.0,0.0,0.0,0.0,0.0,0.0,0.0,0.0,0.0,0.0,0.0,0.0,0.0,-0.8664,-0.9195,-0.8909,-0.8172,-0.6904,-0.6904,-0.6904,-0.6956,-0.8226,0.0,0.0,0.0,-0.8804,-0.8804,-0.8804,-0.8804,-0.8804,-0.8804,-0.8804,-0.8804,0.0,0.0,0.0,0.0,0.0,0.0,0.0,-0.8804,0.0,0.0,0.0,0.0,0.0,-0.8804,-0.8804,-0.8804,-0.8811,0.0,0.0,0.0,0.0,0.0,0.0,0.0,0.0,0.0,0.0,0.0,0.0,0.0,0.0,0.0,0.0,0.0,0.0,-0.8648,-0.8496,-0.8353,-0.8269,-0.8269,-0.813,-0.8038,-0.8038,-0.8038,-0.8035,-0.8035,-0.8035,-0.8035,-0.8035,-0.8035,-0.8038,-0.8038,-0.8038,-0.8038,-0.8038,-0.8038,-0.8038,-0.8038,-0.8038,-0.8038,-0.8048,-0.7991,-0.8027,-0.8059,-0.8648,-0.8913,-0.894,-0.894,-0.894,-0.894,-0.894,-0.894,-0.894,0.0,0.0,0.0,0.0,0.0,0.0,0.0,0.0,0.0,0.0,0.0,0.0,0.0,0.0,0.0,0.0,0.0,0.0,0.0,0.0,0.0,0.0,0.0,0.0,0.0,0.0,-0.7812,-0.7449,-0.7449,-0.7449,0.0,0.0,0.0,-0.8804,0.0,0.0,0.0,0.0,-0.8804,-0.8804,-0.8804,-0.8804,-0.8804,0.0,0.0,0.0,0.0,0.0,0.0,0.0,0.0,0.0,0.0,0.0,0.0,-0.8804,-0.8804,-0.8804,-0.8804,0.0,0.0,0.0,0.0,0.0,0.0,0.0,0.0,0.0,0.0,0.0,0.0,0.0,0.0,0.0,0.0,0.0,0.0,-0.8401,-0.8343,-0.8191,-0.8133,-0.8109,-0.8109,-0.8065,-0.7997,-0.799,-0.7983,-0.8035,-0.803,-0.8027,-0.8027,-0.8027,-0.8025,-0.7983,-0.7983,-0.7987,-0.8038,-0.8038,-0.8038,-0.8038,-0.8038,-0.8038,-0.8038,-0.8041,-0.7985,-0.7985,-0.8033,-0.8608,-0.8913,-0.894,-0.894,-0.894,-0.894,-0.894,-0.894,-0.894,0.0,0.0,0.0,0.0,0.0,0.0,0.0,0.0,0.0,0.0,0.0,0.0,0.0,0.0,0.0,0.0,0.0,0.0,0.0,0.0,0.0,0.0,0.0,0.0,0.0,-0.8302,-0.783,0.0,0.0,0.0,0.0,0.0,0.0,-0.8804,0.0,-0.8804,0.0,0.0,-0.8804,-0.8804,-0.8804,-0.8804,-0.8804,0.0,0.0,0.0,0.0,0.0,0.0,0.0,0.0,0.0,0.0,0.0,0.0,-0.9106,-0.9211,-0.9239,-0.9365,0.0,0.0,0.0,0.0,0.0,0.0,0.0,0.0,0.0,0.0,0.0,0.0,0.0,0.0,0.0,0.0,-0.8431,-0.8289,-0.8218,-0.8123,-0.7967,-0.7899,-0.7885,-0.7946,-0.7899,-0.7851,-0.7814,-0.7756,-0.7689,-0.7607,-0.76,-0.76,-0.76,-0.7682,-0.7756,-0.8011,-0.8046,-0.8024,-0.8038,-0.798,-0.798,-0.8038,-0.8038,-0.8038,-0.8041,-0.8002,-0.8008,-0.8053,-0.8615,-0.8913,-0.894,-0.894,-0.8903,-0.8859,-0.8916,-0.8899,-0.8859,0.0,0.0,0.0,0.0,0.0,0.0,0.0,0.0,0.0,0.0,0.0,0.0,0.0,0.0,0.0,0.0,0.0,0.0,0.0,0.0,0.0,0.0,0.0,0.0,0.0,0.0,0.0,0.0,0.0,0.0,0.0,0.0,-0.8804,-0.8804,0.0,-0.8804,0.0,-0.8804,-0.8804,-0.8804,-0.8804,-0.8804,-0.8804,-0.8804,0.0,0.0,0.0,0.0,0.0,0.0,0.0,0.0,-0.8818,0.0,-0.8956,-0.9614,-0.9814,-0.9888,0.0,0.0,0.0,0.0,0.0,0.0,0.0,0.0,0.0,0.0,0.0,0.0,0.0,0.0,0.0,0.0,0.0,-0.8414,-0.8272,-0.8116,-0.7963,-0.7811,-0.7678,-0.7651,-0.788,-0.7773,-0.7648,-0.7564,-0.7263,-0.7092,-0.7079,-0.7076,-0.7076,-0.7073,-0.7082,-0.7341,-0.7959,-0.7942,-0.7928,-0.7898,-0.7959,-0.7966,-0.8001,-0.8028,-0.8038,-0.8045,-0.7981,-0.8011,-0.8043,-0.8628,-0.8893,-0.8916,-0.8916,-0.8955,-0.8858,-0.8872,-0.8838,-0.8865,0.0,0.0,0.0,0.0,0.0,0.0,0.0,0.0,0.0,0.0,0.0,0.0,0.0,0.0,0.0,0.0,0.0,0.0,0.0,0.0,0.0,0.0,0.0,0.0,0.0,0.0,0.0,0.0,0.0,0.0,0.0,0.0,0.0,-0.8804,0.0,-0.8804,-0.8804,-0.8804,-0.8804,-0.8804,-0.8804,-0.8804,-0.8804,-0.8804,-0.8985,0.0,0.0,0.0,0.0,0.0,0.0,0.0,-0.8878,-0.8804,-0.8956,-0.9614,-0.9814,-0.9985,0.0,0.0,0.0,0.0,0.0,0.0,0.0,0.0,0.0,0.0,0.0,0.0,0.0,0.0,0.0,0.0,-0.8296,-0.8262,-0.8109,-0.7957,-0.7807,-0.7662,-0.7523,-0.7419,-0.7543,-0.7617,-0.7466,-0.7188,-0.7152,-0.7086,-0.7062,-0.7055,-0.7128,-0.7094,-0.7108,-0.7177,-0.7302,-0.777,-0.7778,-0.7301,-0.776,-0.796,-0.7999,-0.8034,-0.8038,-0.8041,-0.7972,-0.7968,-0.8011,-0.8685,-0.8948,-0.8872,-0.8872,-0.8924,-0.8879,-0.8346,-0.8477,-0.8896,0.0,0.0,0.0,0.0,0.0,0.0,0.0,0.0,0.0,0.0,0.0,0.0,0.0,0.0,0.0,0.0,0.0,0.0,0.0,0.0,0.0,0.0,0.0,0.0,0.0,0.0,0.0,0.0,0.0,0.0,0.0,0.0,0.0,-0.8804,0.0,-0.8804,-0.8804,-0.8804,-0.8804,-0.8804,-0.8804,-0.8804,-0.8804,-0.8804,-0.8985,-0.9183,-0.9183,0.0,0.0,0.0,0.0,0.0,0.0,0.0,-0.9008,-0.9969,-1.0261,-1.0494,0.0,0.0,0.0,0.0,0.0,0.0,0.0,0.0,0.0,0.0,0.0,0.0,0.0,0.0,0.0,0.0,-0.816,-0.8106,-0.7953,-0.7801,-0.7655,-0.7509,-0.7332,-0.7315,-0.7389,-0.7329,-0.7255,-0.7082,-0.7015,-0.6994,-0.7083,-0.7139,-0.7066,-0.7104,-0.9253,-1.043,-1.0437,-0.8497,-0.7387,-0.7076,-0.7416,-0.7563,-0.7607,-0.7862,-0.7974,-0.8038,-0.8011,-0.7999,-0.8061,-0.8313,-0.8654,-0.8931,-0.8931,-0.8718,-0.8505,-0.8388,-0.8652,-0.8953,0.0,0.0,0.0,0.0,0.0,0.0,0.0,0.0,0.0,0.0,0.0,0.0,0.0,0.0,0.0,0.0,0.0,0.0,0.0,0.0,0.0,0.0,0.0,0.0,0.0,0.0,0.0,0.0,0.0,0.0,0.0,0.0,0.0,-0.8804,0.0,0.0,-0.8804,-0.8804,-0.8804,-0.8804,-0.8804,-0.8838,-0.8878,-0.8824,-0.9018,-0.9263,-0.9263,-0.9506,-0.9713,-0.9419,0.0,0.0,0.0,0.0,-0.9061,-1.0415,-1.0813,-1.1048,0.0,0.0,0.0,0.0,0.0,0.0,0.0,0.0,0.0,0.0,0.0,0.0,0.0,0.0,0.0,0.0,-0.8096,-0.7936,-0.776,-0.7614,-0.7465,-0.7403,-0.716,-0.7204,-0.7603,-0.7316,-0.7065,-0.7236,-0.7211,-0.7066,-0.7062,-0.7337,-0.7811,-0.8276,-1.2076,-1.4117,-1.4125,-1.0222,-0.7863,-0.7099,-0.7073,-0.7089,-0.712,-0.7756,-0.7969,-0.8021,-0.7963,-0.8549,-0.9248,-0.8383,-0.8269,-0.8751,-0.8765,-0.8391,-0.8104,-0.8519,-0.8783,-0.8716,0.0,0.0,0.0,0.0,0.0,0.0,0.0,0.0,0.0,0.0,0.0,0.0,0.0,0.0,0.0,0.0,0.0,0.0,-1.0523,0.0,0.0,-0.9441,-0.8999,0.0,0.0,0.0,0.0,0.0,0.0,0.0,0.0,0.0,0.0,-0.8804,0.0,0.0,0.0,-0.8804,-0.8804,-0.8804,-0.8804,-0.8958,-0.9097,-0.8905,-0.9145,-0.9626,-0.9626,-0.9813,-1.0013,-0.9719,-0.9626,0.0,0.0,0.0,-0.9061,-1.0415,-1.0813,-1.115,0.0,0.0,0.0,0.0,0.0,0.0,0.0,0.0,0.0,0.0,0.0,0.0,0.0,0.0,0.0,0.0,-0.8605,-0.7746,-0.7468,-0.7483,-0.7333,-0.7184,-0.6939,-0.7355,-0.8551,-0.7526,-0.7087,-0.799,-0.8052,-0.7683,-0.6801,-0.8397,-1.0508,-1.3078,-1.3728,-1.4062,-1.4116,-1.3507,-1.1115,-0.7137,-0.7105,-0.7058,-0.7115,-0.774,-0.7969,-0.7963,-0.8004,-1.0542,-1.4398,-0.9862,-0.8076,-0.8109,-0.8166,-0.8043,-0.8011,-0.8123,-0.816,-0.8161,0.0,0.0,0.0,0.0,0.0,0.0,0.0,0.0,0.0,0.0,0.0,0.0,0.0,0.0,0.0,-0.8604,-0.8985,-0.951,-1.0218,-1.0269,-1.0054,-0.9655,-0.9089,-0.8804,0.0,0.0,0.0,0.0,0.0,0.0,0.0,-0.9031,-0.9225,0.0,0.0,0.0,0.0,0.0,-0.8804,-0.8824,-0.8985,-0.9025,-0.9005,-0.9038,-0.9112,-0.9232,-0.9566,-0.9659,-0.9633,-0.9673,-0.9573,-0.9365,-0.8945,0.0,0.0,0.0,0.0,0.0,0.0,0.0,0.0,0.0,0.0,0.0,0.0,0.0,0.0,0.0,0.0,0.0,0.0,0.0,0.0,0.0,-0.8536,-0.7799,-0.8299,-0.8209,-0.8301,-0.8802,-0.8351,-0.8315,-0.9236,-0.8742,-0.8359,-0.8386,-0.7789,-0.707,-0.6539,-0.7332,-0.9419,-1.3013,-1.3121,-1.3407,-1.4092,-1.3454,-1.2404,-1.1015,-1.0977,-1.1363,-1.193,-1.1579,-1.1723,-1.2336,-1.2362,-1.3676,-1.5583,-1.3302,-1.0654,-0.8048,-0.7975,-0.8046,-0.8018,-0.7958,-0.8024,-0.8043,0.0,0.0,0.0,0.0,0.0,0.0,0.0,0.0,0.0,0.0,0.0,0.0,0.0,0.0,0.0,0.0,-0.8804,-0.9061,-0.9762,-0.9814,-0.9814,-0.9814,-0.9159,-0.8804,-0.8804,0.0,0.0,0.0,0.0,0.0,-0.8925,-0.9218,-0.9626,0.0,-0.9813,0.0,0.0,0.0,0.0,0.0,-0.9017,-0.9045,-0.8931,-0.9072,-0.9038,-0.8971,-0.9412,-0.9426,-0.9216,-0.9492,-0.9426,-0.9137,-0.8898,-0.8804,0.0,0.0,0.0,0.0,0.0,0.0,0.0,0.0,0.0,0.0,0.0,0.0,0.0,0.0,0.0,0.0,0.0,0.0,0.0,0.0,-0.9007,-0.8567,-0.8872,-0.9126,-0.9531,-0.998,-0.9413,-0.9363,-1.028,-0.9871,-0.9548,-0.9519,-0.819,-0.7061,-0.6346,-0.7307,-0.9199,-1.2201,-1.2318,-1.2707,-1.3606,-1.2758,-1.293,-1.4069,-1.413,-1.4542,-1.532,-1.4766,-1.4963,-1.5785,-1.5838,-1.5813,-1.5796,-1.5827,-1.3545,-0.9836,-0.8528,-0.7967,-0.8018,-0.8018,-0.7999,-0.8001,0.0,0.0,0.0,0.0,0.0,0.0,0.0,0.0,0.0,0.0,0.0,0.0,0.0,-0.8617,-0.8791,-0.8804,-0.8804,-0.9061,-0.9762,-0.9814,-0.9814,-0.9814,-0.9159,0.0,-0.8804,0.0,0.0,0.0,0.0,0.0,-0.917,-0.9519,-0.9826,-1.01,-0.9813,-0.9526,-0.9203,0.0,0.0,0.0,0.0,0.0,0.0,0.0,-0.8991,0.0,0.0,-0.9196,-0.919,-0.9203,-0.9196,-0.9137,-0.8898,-0.8804,0.0,0.0,0.0,0.0,0.0,0.0,0.0,0.0,0.0,0.0,0.0,0.0,0.0,0.0,0.0,0.0,0.0,0.0,0.0,0.0,-1.0786,-1.0112,-0.8606,-0.9917,-1.0767,-0.9848,-0.9463,-1.0035,-1.2009,-1.0425,-1.0106,-1.1983,-1.0318,-0.8305,-0.6414,-0.9909,-1.2083,-1.2318,-1.2277,-1.229,-1.2358,-1.2318,-1.2876,-1.4085,-1.4108,-1.4097,-1.426,-1.5225,-1.5701,-1.5756,-1.5805,-1.5838,-1.5757,-1.5761,-1.5595,-1.4865,-0.9964,-0.8007,-0.796,-0.796,-0.7997,-0.8041,0.0,0.0,0.0,0.0,0.0,0.0,0.0,0.0,0.0,0.0,0.0,0.0,0.0,-0.8744,-0.8804,-0.8804,-0.8804,-0.891,-0.9159,-0.9159,-0.9159,-0.9159,-0.9361,-0.9263,-0.8811,-0.9865,0.0,0.0,0.0,-0.9523,-0.8971,-0.9259,-0.9359,-0.9285,-0.9559,-0.9626,-0.9499,-0.9125,0.0,0.0,0.0,0.0,0.0,0.0,0.0,0.0,0.0,0.0,0.0,-0.9123,-0.9064,0.0,0.0,0.0,0.0,0.0,0.0,0.0,0.0,0.0,0.0,0.0,0.0,0.0,0.0,0.0,0.0,0.0,0.0,0.0,0.0,0.0,0.0,0.0,-1.0736,-1.0168,-1.0336,-1.0644,-1.1071,-1.1665,-1.1417,-1.152,-1.2205,-1.1669,-1.152,-1.2229,-1.1663,-1.0931,-1.0205,-1.1495,-1.2305,-1.2305,-1.2317,-1.2324,-1.2305,-1.2279,-1.2921,-1.4122,-1.4097,-1.4102,-1.4084,-1.4488,-1.4681,-1.4777,-1.5483,-1.5765,-1.5832,-1.5777,-1.583,-1.5588,-1.3715,-1.3055,-1.2628,-0.9213,-0.801,-0.8024,0.0,0.0,0.0,0.0,0.0,0.0,0.0,0.0,0.0,0.0,0.0,0.0,0.0,0.0,-0.8804,-0.8804,-0.8804,-0.8804,-0.8804,-0.8804,-0.8804,-0.8804,-0.9465,-0.9614,-0.9159,-1.0466,0.0,0.0,0.0,0.0,0.0,-0.9005,-0.8991,-0.8824,-0.9218,-0.9439,0.0,0.0,0.0,-0.9112,0.0,0.0,-0.9272,0.0,0.0,0.0,0.0,0.0,0.0,0.0,0.0,0.0,0.0,0.0,0.0,0.0,0.0,0.0,0.0,0.0,0.0,0.0,0.0,0.0,0.0,0.0,0.0,0.0,0.0,0.0,0.0,0.0,0.0,0.0,-1.1271,-1.0947,-1.1172,-1.1164,-1.1489,-1.2288,-1.2144,-1.1902,-1.1744,-1.1737,-1.1744,-1.171,-1.2115,0.0,-1.2326,-1.2332,-1.2301,-1.2317,-1.2331,-1.2305,-1.2305,-1.2332,-1.2672,-1.3505,-1.3918,-1.413,-1.413,-1.413,-1.4141,-1.4129,-1.4916,-1.5418,-1.5799,-1.5792,-1.5777,-1.5836,-1.5836,-1.582,-1.5396,-1.19,-1.0595,-1.0635,0.0,0.0,0.0,0.0,0.0,0.0,0.0,0.0,0.0,0.0,0.0,0.0,0.0,0.0,0.0,-0.8804,-0.8804,-0.8804,-0.8804,-0.8804,-0.8804,-0.8804,-0.9465,-0.9814,-0.9814,-1.1116,0.0,0.0,0.0,0.0,0.0,0.0,-0.8804,0.0,-0.8804,-0.8965,-0.919,0.0,-0.9659,-0.9646,0.0,-0.9522,-1.01,0.0,0.0,0.0,-1.0207,-0.9927,0.0,-0.9352,0.0,0.0,0.0,0.0,0.0,0.0,0.0,0.0,0.0,0.0,0.0,0.0,0.0,0.0,0.0,0.0,0.0,0.0,0.0,0.0,0.0,0.0,0.0,0.0,-1.2409,-1.2557,-1.0848,-1.1582,-1.2037,-1.147,-1.139,-1.1152,-1.0623,-1.0616,-1.0623,-1.0573,-1.1642,-1.2272,-1.2218,-1.2225,-1.2283,-1.2274,-1.2317,-1.2305,-1.2305,-1.2326,-1.2298,-1.2317,-1.352,-1.409,-1.4124,-1.4129,-1.413,-1.4128,-1.4116,-1.4708,-1.5821,-1.5812,-1.5832,-1.5832,-1.5832,-1.5797,-1.5794,-1.5794,-1.5842,-1.5803,0.0,0.0,0.0,0.0,0.0,0.0,0.0,0.0,0.0,0.0,0.0,0.0,0.0,0.0,0.0,-0.8804,-0.8804,-0.8804,-0.8804,-0.8804,-0.8804,-0.8804,-0.9917,-1.0312,-0.9814,-1.1116,0.0,0.0,0.0,0.0,0.0,0.0,0.0,0.0,-0.8804,-0.8851,-0.8931,-0.9018,0.0,0.0,-0.9045,-0.9279,0.0,0.0,0.0,0.0,0.0,-0.9886,-0.9953,0.0,-0.9506,-0.9581,0.0,0.0,0.0,0.0,0.0,0.0,-1.2881,0.0,0.0,0.0,0.0,0.0,0.0,0.0,0.0,0.0,0.0,0.0,0.0,0.0,0.0,0.0,-1.1427,-1.1715,-1.1262,-1.1099,-1.1127,-1.1337,-1.1066,-1.0739,-1.0607,-1.062,-1.0584,0.0,-1.0889,-1.1055,-1.1035,-1.1077,-1.1475,-1.2257,-1.2265,-1.2305,-1.2305,-1.2297,-1.2273,-1.2311,-1.2647,-1.3227,-1.4117,-1.4104,-1.4115,-1.4123,-1.4122,-1.4714,-1.5833,-1.5832,-1.5832,-1.5832,-1.5832,-1.575,-1.5777,-1.5777,-1.5823,-1.523,0.0,0.0,0.0,0.0,0.0,0.0,0.0,0.0,0.0,0.0,0.0,0.0,0.0,0.0,0.0,-0.8804,-0.8804,-0.8804,-0.8804,-0.8804,-0.8804,-0.8804,-0.9814,-1.0218,-0.9814,-1.0864,0.0,0.0,0.0,0.0,0.0,0.0,0.0,0.0,0.0,0.0,0.0,0.0,0.0,0.0,-0.9058,0.0,0.0,-0.986,-1.0154,0.0,0.0,0.0,-1.0581,-1.0047,-0.9866,0.0,0.0,0.0,0.0,0.0,0.0,0.0,0.0,0.0,0.0,0.0,0.0,0.0,-1.2291,-1.1678,0.0,0.0,0.0,0.0,0.0,0.0,0.0,0.0,0.0,-1.0742,-1.0862,-1.0588,-1.0403,-1.0554,-1.0363,-1.0134,-0.9886,-1.0287,-1.0594,-1.0619,-1.0624,-1.0606,-1.0599,-1.1038,-1.1583,-1.2305,-1.2319,-1.229,-1.229,-1.2318,-1.2304,-1.2306,-1.2299,-1.2674,-1.338,-1.3899,-1.4115,-1.4102,-1.4104,-1.4515,-1.5123,-1.5616,-1.5826,-1.5832,-1.5832,-1.5832,-1.5832,-1.5832,-1.5763,-1.5363,0.0,0.0,0.0,0.0,0.0,0.0,0.0,0.0,0.0,0.0,0.0,0.0,0.0,0.0,0.0,0.0,-0.8824,-0.8804,-0.8804,-0.8804,0.0,-0.8804,-0.9465,-0.9814,-0.9814,-1.0364,0.0,0.0,0.0,0.0,0.0,0.0,0.0,0.0,0.0,0.0,0.0,0.0,0.0,-0.9137,-0.9137,-0.974,0.0,0.0,-1.0842,-1.1336,-1.1049,-1.1129,-1.1256,-1.0441,-1.0262,0.0,0.0,0.0,0.0,0.0,-1.2752,0.0,0.0,0.0,0.0,0.0,0.0,0.0,-1.2626,-1.1645,-1.0813,0.0,0.0,0.0,0.0,0.0,0.0,0.0,0.0,-0.9699,-1.002,-1.004,-0.9867,-0.9512,-0.9555,-0.9382,-0.8878,-0.9879,-1.0555,-1.0421,-1.0534,-1.0602,-1.0611,-1.156,-1.2116,-1.2079,-1.2124,-1.2189,-1.2274,-1.2317,-1.2305,-1.2311,-1.2325,-1.2353,-1.252,-1.3569,-1.4119,-1.4102,-1.4071,-1.4115,-1.4213,-1.5234,-1.5724,-1.5792,-1.5818,-1.5832,-1.5832,-1.5832,-1.5797,-1.5767,-0.8303,0.0,0.0,0.0,0.0,0.0,0.0,0.0,0.0,0.0,0.0,0.0,0.0,0.0,0.0,0.0,0.0,-0.8804,-0.8804,0.0,0.0,-0.8804,-0.9465,-0.9814,-0.9814,-0.9917,0.0,0.0,0.0,0.0,0.0,0.0,0.0,0.0,0.0,0.0,0.0,0.0,0.0,-0.8891,-0.8891,0.0,-1.0571,-1.0033,-1.0367,-1.1042,-1.0748,-1.0828,-1.1015,-1.0608,-1.116,-1.1873,0.0,0.0,0.0,-1.3259,0.0,0.0,0.0,0.0,0.0,0.0,0.0,0.0,-1.2319,-1.1791,-1.1404,0.0,0.0,0.0,0.0,0.0,0.0,0.0,0.0,-0.9165,-0.9693,-0.9566,-0.9486,-0.9853,-0.9334,-0.8899,-0.8806,-0.9879,-1.0207,-0.9223,-1.0053,-1.0623,-1.0575,-1.0806,-1.0935,-1.0955,-1.0925,-1.1385,-1.2274,-1.2317,-1.2305,-1.2305,-1.233,-1.2822,-1.3756,-1.3975,-1.4104,-1.4088,-1.4142,-1.4143,-1.4085,-1.4385,-1.5008,-1.5817,-1.5846,-1.5832,-1.5832,-1.5832,-1.5838,-1.5763,-0.853,0.0,0.0,0.0,0.0,0.0,0.0,0.0,0.0,0.0,0.0,0.0,0.0,0.0,0.0,0.0,0.0,0.0,0.0,0.0,0.0,0.0,-0.9106,-0.9309,-0.9309,0.0,0.0,0.0,0.0,0.0,0.0,0.0,0.0,0.0,0.0,0.0,0.0,0.0,-0.8978,-0.9218,-0.8925,0.0,-1.0094,-0.98,-1.014,-1.0755,-1.0672,-1.0748,-1.0995,-1.0995,-1.1304,0.0,-1.2217,-1.292,-1.3659,0.0,-1.4297,-1.4414,0.0,0.0,0.0,-1.4248,0.0,0.0,0.0,-1.2581,-1.1964,-1.1146,0.0,0.0,-0.9768,0.0,0.0,0.0,-1.0122,-1.034,-1.0846,-0.9791,-0.9343,-1.0307,-1.0015,-0.9691,-0.9535,-1.0872,-1.1869,-1.2085,-1.2622,-1.2987,-1.2975,-1.2987,-1.2243,-1.0646,-1.0585,-1.1172,-1.2284,-1.2328,-1.2305,-1.2305,-1.2282,-1.2593,-1.3213,-1.3822,-1.4131,-1.4088,-1.4088,-1.4064,-1.4154,-1.4734,-1.5258,-1.5839,-1.5772,-1.5832,-1.5832,-1.5832,-1.5832,-1.5832,-0.8705,0.0,0.0,0.0,0.0,0.0,0.0,0.0,0.0,0.0,0.0,0.0,0.0,0.0,0.0,0.0,0.0,0.0,0.0,0.0,0.0,0.0,0.0,-0.8804,-0.8804,-0.8804,0.0,0.0,0.0,0.0,0.0,0.0,0.0,0.0,0.0,0.0,0.0,0.0,0.0,-0.9559,0.0,-0.9332,-0.9846,-0.9786,-1.0094,-1.0624,-1.0624,-1.0748,-1.1029,-1.1263,-1.1424,-1.1797,-1.2789,-1.3342,0.0,0.0,0.0,0.0,0.0,0.0,0.0,0.0,0.0,-1.4282,0.0,0.0,0.0,0.0,0.0,0.0,0.0,0.0,0.0,0.0,0.0,0.0,0.0,-1.0524,0.0,-1.1014,-1.0873,-1.0705,-1.0732,-1.207,-1.3446,-1.4805,-1.5225,-1.538,-1.54,-1.5369,-1.3917,-1.0719,-1.0581,-1.118,-1.2287,-1.2278,-1.2325,-1.2305,-1.2287,-1.2325,-1.233,-1.3548,-1.4125,-1.4088,-1.4088,-1.4115,-1.4202,-1.5082,-1.5556,-1.5819,-1.5832,-1.5832,-1.5832,-1.5832,-1.5832,-1.5832,-0.8639,-0.8804,0.0,0.0,0.0,0.0,0.0,0.0,0.0,0.0,0.0,0.0,0.0,0.0,0.0,0.0,0.0,0.0,-0.9913,0.0,0.0,0.0,0.0,-0.8804,-0.8804,-0.8804,-0.8804,0.0,0.0,0.0,0.0,0.0,0.0,0.0,-0.8804,0.0,0.0,0.0,-0.9176,0.0,-0.9506,-0.9933,0.0,-1.0167,-1.0274,-1.0624,-1.0624,-1.0748,-1.0995,0.0,-1.2233,-1.3696,0.0,-1.4728,-1.6158,-1.5527,0.0,0.0,0.0,0.0,0.0,0.0,-1.5029,0.0,0.0,0.0,-1.3749,-1.2697,0.0,0.0,0.0,0.0,0.0,0.0,0.0,0.0,-1.214,-1.1631,-1.1494,-1.2322,-1.1424,-1.1306,-1.2586,-1.2823,-1.3005,-1.3145,-1.455,-1.5371,-1.541,-1.5398,-1.3907,-1.0723,-1.0615,-1.1181,-1.2287,-1.2311,-1.2288,-1.2305,-1.2331,-1.2309,-1.2324,-1.3518,-1.4116,-1.4088,-1.4088,-1.413,-1.4089,-1.4248,-1.4883,-1.58,-1.5812,-1.5832,-1.5832,-1.5832,-1.5832,-1.5832,-0.8586,-0.8804,0.0,0.0,0.0,0.0,0.0,0.0,0.0,0.0,0.0,0.0,0.0,0.0,0.0,0.0,0.0,-0.9653,0.0,0.0,0.0,0.0,0.0,0.0,-0.9058,-0.8891,-0.8804,0.0,-0.8804,0.0,0.0,0.0,0.0,0.0,-0.8804,0.0,-0.8998,0.0,-0.9339,0.0,0.0,0.0,0.0,-1.0234,-1.0408,-1.0815,-1.0815,-1.1109,-1.1476,0.0,-1.1908,0.0,0.0,0.0,0.0,-1.5894,0.0,0.0,0.0,0.0,0.0,0.0,0.0,0.0,-1.4248,0.0,-1.4361,0.0,0.0,0.0,0.0,0.0,0.0,0.0,-1.2744,0.0,0.0,0.0,-1.2516,0.0,0.0,0.0,-1.38,-1.3744,-1.3792,-1.4336,-1.4982,-1.5387,-1.54,-1.5399,-1.4786,-1.3434,-1.1545,-1.0837,-1.1323,-1.1943,-1.2308,-1.2281,-1.2281,-1.2311,-1.2355,-1.3512,-1.4079,-1.4088,-1.4088,-1.4064,-1.4091,-1.4069,-1.4373,-1.4917,-1.5524,-1.5844,-1.5832,-1.5832,-1.5832,-1.5832,-0.8533,0.0,0.0,0.0,0.0,0.0,0.0,0.0,0.0,0.0,0.0,0.0,-1.1062,-1.0922,0.0,0.0,-1.0909,-1.0388,0.0,0.0,-0.9072,0.0,0.0,0.0,-0.9064,-0.8918,-0.8804,0.0,0.0,0.0,0.0,0.0,0.0,0.0,0.0,-0.8925,-0.8945,0.0,-0.9486,-0.9706,-1.0,-1.0294,-1.0598,-1.0321,-1.0555,-1.0995,-1.0995,-1.1369,-1.1837,-1.1623,-1.2081,0.0,-1.4421,-1.474,-1.4936,0.0,0.0,0.0,-1.5254,0.0,0.0,0.0,0.0,0.0,0.0,0.0,0.0,0.0,0.0,0.0,0.0,0.0,0.0,0.0,0.0,-1.3926,0.0,0.0,0.0,0.0,0.0,0.0,0.0,-1.4532,-1.473,-1.5361,-1.5391,-1.5379,-1.5389,-1.543,-1.5427,-1.5381,-1.3123,-1.2174,-1.2632,-1.3424,-1.387,-1.3876,-1.3876,-1.3842,-1.3906,-1.405,-1.4113,-1.4095,-1.4126,-1.4088,-1.4102,-1.4117,-1.4063,-1.4154,-1.5048,-1.5302,-1.5389,-1.5712,-1.5765,-1.5832,-0.8533,-0.8804,0.0,0.0,0.0,0.0,0.0,0.0,0.0,0.0,0.0,0.0,0.0,0.0,0.0,0.0,0.0,-1.1376,-1.1369,0.0,-0.9406,0.0,0.0,-0.8811,0.0,-0.8811,-0.8804,0.0,0.0,0.0,0.0,0.0,0.0,0.0,0.0,-0.917,-0.919,-0.9546,-0.9679,-0.9706,-1.0,-1.0294,-1.0624,0.0,-1.0735,-1.0995,-1.0995,0.0,0.0,-1.1857,-1.3312,0.0,0.0,0.0,0.0,0.0,0.0,0.0,0.0,0.0,0.0,-1.5391,0.0,0.0,0.0,0.0,-1.5908,0.0,0.0,0.0,0.0,0.0,0.0,0.0,0.0,0.0,0.0,0.0,0.0,0.0,0.0,0.0,0.0,-1.5044,-1.5361,-1.5391,-1.5391,-1.5391,-1.5401,-1.5417,-1.5398,-1.5386,-1.5281,-1.6028,-1.7765,-1.7803,-1.7849,-1.783,-1.783,-1.7803,-1.7696,-1.5233,-1.4109,-1.4086,-1.4081,-1.4088,-1.4088,-1.4095,-1.4078,-1.4128,-1.4141,-1.4187,-1.4272,-1.5411,-1.5798,-1.5832,0.0,0.0,0.0,0.0,0.0,0.0,0.0,-0.974,0.0,0.0,0.0,0.0,0.0,-1.3186,-1.3427,0.0,0.0,-1.2518,-1.2311,-1.1202,0.0,0.0,-0.978,-0.9492,0.0,-0.9092,0.0,0.0,0.0,0.0,0.0,0.0,0.0,0.0,0.0,-0.9532,0.0,0.0,0.0,0.0,0.0,-1.0868,-1.1109,0.0,-1.1022,-1.1303,-1.1503,-1.1824,0.0,-1.2151,-1.3078,-1.4314,-1.5021,-1.5835,-1.671,-1.7214,-1.708,-1.6699,0.0,0.0,-1.6289,-1.6289,0.0,0.0,0.0,0.0,0.0,0.0,0.0,0.0,0.0,0.0,0.0,0.0,0.0,0.0,0.0,0.0,0.0,0.0,0.0,0.0,0.0,0.0,-1.4678,-1.4311,-1.446,-1.4785,-1.5381,-1.5407,-1.5371,-1.5417,-1.6491,-1.74,-1.7981,-1.8014,-1.8018,-1.7996,-1.7996,-1.8,-1.7999,-1.7093,-1.5739,-1.4068,-1.4062,-1.4081,-1.4095,-1.4126,-1.4064,-1.4128,-1.4128,-1.4078,-1.4253,-1.5391,-1.5792,-1.5832,-0.6799,0.0,0.0,0.0,0.0,0.0,0.0,0.0,0.0,0.0,-1.2258,0.0,-1.3981,0.0,-1.4355,0.0,-1.4062,-1.3414,-1.2862,-1.1937,0.0,-1.0651,-1.0274,-0.9893,0.0,-0.9236,-0.9044,0.0,0.0,-0.8965,0.0,0.0,0.0,0.0,0.0,-0.978,-0.9699,-0.9993,-1.0114,0.0,0.0,-1.1102,0.0,0.0,-1.1483,-1.175,0.0,-1.2058,-1.2305,-1.2305,-1.2952,-1.389,-1.4879,-1.5627,-1.6324,-1.7321,-1.7305,-1.6963,-1.6963,-1.6855,0.0,-1.6665,-1.6514,0.0,-1.667,0.0,-1.6484,0.0,0.0,0.0,0.0,0.0,0.0,0.0,0.0,0.0,0.0,-1.3047,0.0,0.0,0.0,0.0,0.0,-1.4107,-1.4136,-1.3729,-1.3679,-1.4173,-1.5355,-1.5409,-1.54,-1.5393,-1.6517,-1.7396,-1.7981,-1.8004,-1.8008,-1.8008,-1.8008,-1.8023,-1.8005,-1.8665,-1.7984,-1.6403,-1.6377,-1.5539,-1.409,-1.4115,-1.4097,-1.4128,-1.4522,-1.4678,-1.4772,-1.5503,-1.5792,-1.5832,0.0,0.0,0.0,0.0,-0.8452,0.0,0.0,0.0,-1.0864,0.0,-1.2899,-1.3507,-1.4108,-1.4422,-1.4696,-1.4983,-1.4723,-1.4062,-1.301,-1.2552,0.0,0.0,-1.0361,-1.0047,-0.9713,-0.9412,-0.9125,-0.8851,0.0,0.0,0.0,0.0,0.0,0.0,-1.0007,0.0,-0.9746,-1.002,-1.0147,-1.0214,-1.0782,-1.1035,-1.1122,-1.1677,-1.2071,-1.2285,-1.1997,-1.2064,-1.2305,-1.2305,-1.2952,-1.389,-1.4879,-1.586,-1.6775,-1.7716,-1.7725,-1.7412,-1.7412,-1.7109,-1.6733,-1.6733,-1.6777,0.0,0.0,0.0,-1.7266,0.0,0.0,0.0,0.0,0.0,0.0,0.0,0.0,0.0,0.0,0.0,0.0,0.0,0.0,0.0,0.0,-1.3576,-1.3698,-1.3678,-1.3224,-1.363,0.0,-1.5365,-1.5449,-1.544,-1.5495,-1.6299,-1.7978,-1.7998,-1.8008,-1.8008,-1.8008,-1.8018,-1.8076,-1.9783,-2.0541,-2.0612,-2.0632,-1.8245,-1.442,-1.4159,-1.4082,-1.4235,-1.5329,-1.581,-1.5835,-1.5835,-1.5805,-1.5832,-0.6618,-0.7527,-0.8178,0.0,-0.8427,-0.8786,0.0,0.0,0.0,0.0,-1.3814,-1.4489,-1.5297,-1.5451,-1.5524,-1.5605,-1.5144,0.0,0.0,0.0,0.0,-1.1897,-1.1577,-1.0975,-1.0027,-0.9719,-0.9532,-0.9459,0.0,0.0,-0.9579,0.0,0.0,0.0,0.0,0.0,-1.0341,-1.0414,-1.0575,-1.0802,-1.1162,-1.1577,-1.1984,0.0,-1.2371,-1.2592,-1.2298,-1.2238,-1.2305,-1.2305,-1.2952,-1.389,-1.4879,-1.586,-1.6775,-1.7716,-1.7939,-1.7852,-1.7852,-1.7764,-1.7686,-1.7686,-1.7441,-1.7295,0.0,0.0,0.0,0.0,0.0,-1.7012,-1.6357,0.0,0.0,0.0,0.0,0.0,0.0,0.0,0.0,-1.3311,0.0,0.0,-1.3037,-1.338,-1.3439,-1.3126,-1.326,-1.3559,-1.4121,-1.4924,-1.5688,-1.6353,-1.6984,-1.7526,-1.7989,-1.8026,-1.8008,-1.8008,-1.8008,-1.7997,-1.804,-1.9121,-1.9974,-2.0617,-2.0566,-2.0005,-1.8664,-1.5419,-1.4105,-1.4232,-1.5332,-1.5798,-1.5826,-1.5826,-1.5772,-1.5832,-0.6191,0.0,0.0,-0.8473,0.0,0.0,-1.0667,-1.0972,0.0,-1.3612,-1.4349,0.0,-1.4631,-1.5289,-1.554,-1.5045,-1.5015,0.0,-1.4776,0.0,0.0,-1.2532,-1.2098,-1.1436,-1.0514,-0.996,-0.9686,-0.9686,0.0,0.0,-0.9873,0.0,0.0,0.0,0.0,-1.0624,-1.0624,-1.0624,-1.0802,-1.1196,-1.1363,-1.1703,0.0,-1.2258,-1.2405,-1.2532,-1.2365,-1.2305,-1.2305,-1.2305,-1.2952,-1.389,-1.4879,-1.586,-1.6775,-1.7716,-1.8008,-1.8008,-1.8008,-1.8008,-1.8008,-1.8008,-1.7832,-1.7715,-1.7959,-1.7822,-1.7656,-1.7656,-1.751,-1.7285,-1.6973,0.0,0.0,0.0,0.0,0.0,0.0,0.0,0.0,0.0,-1.3301,0.0,-1.29,-1.3096,-1.3213,-1.3164,-1.3379,-1.3708,-1.4163,-1.4798,-1.5573,-1.6491,-1.7473,-1.8011,-1.8002,-1.7988,-1.8007,-1.8008,-1.8008,-1.7968,-1.8023,-1.8913,-1.9806,-2.0585,-2.0585,-2.0584,-2.0423,-1.8377,-1.6446,-1.4892,-1.5556,-1.715,-1.9034,-1.9034,-1.7623,-1.5832,-0.6073,0.0,0.0,0.0,0.0,0.0,0.0,-1.1563,0.0,-1.3776,0.0,-1.4333,-1.3026,-1.4341,-1.4893,-1.3921,0.0,-1.4612,-1.4536,-1.4249,-1.3701,-1.2923,-1.2352,-1.169,-1.1062,-1.0187,-0.976,0.0,0.0,0.0,0.0,0.0,0.0,0.0,0.0,0.0,0.0,-1.0665,-1.0929,-1.143,-1.147,-1.1663,-1.1951,-1.2204,-1.2305,-1.2305,-1.2305,-1.2305,-1.2305,-1.2305,-1.2806,-1.3673,-1.4665,-1.5649,-1.6567,-1.7579,-1.7862,-1.8008,-1.8008,-1.8008,-1.8008,-1.8008,-1.8008,-1.8008,-1.8008,-1.8008,-1.8008,-1.8008,-1.7715,-1.7559,-1.7871,0.0,0.0,0.0,0.0,0.0,0.0,0.0,0.0,0.0,0.0,0.0,-1.3154,-1.3027,-1.3115,-1.3477,-1.3555,-1.3945,-1.4746,0.0,-1.5274,-1.6263,-1.7333,-1.7922,-1.8086,-1.8033,-1.8062,-1.8174,-1.8057,-1.8037,-1.8115,-1.8926,-1.9717,-2.05,-2.0609,-2.0596,-2.0671,-2.1526,-1.9724,-1.6316,-1.6605,-1.9361,-2.3107,-2.3079,-2.0399,-1.6686,0.0,0.0,0.0,0.0,0.0,-1.076,-1.2401,-1.2723,-1.2832,-1.3177,-1.3704,-1.3553,-1.2214,-1.2305,-1.2709,-1.3461,-1.3266,0.0,0.0,0.0,0.0,-1.316,-1.2786,-1.2204,-1.1369,-1.0488,-1.016,0.0,0.0,0.0,0.0,0.0,0.0,0.0,0.0,0.0,-1.0638,-1.0815,0.0,-1.145,-1.169,-1.1964,-1.2231,-1.2285,-1.2305,-1.2305,-1.2305,-1.2305,-1.2305,-1.2305,-1.2445,-1.2732,-1.3673,-1.4665,-1.5658,-1.6567,-1.7354,-1.8008,-1.8008,-1.8008,-1.8008,-1.8008,-1.8008,-1.8008,-1.8008,-1.8008,-1.8008,-1.8008,-1.7949,-1.7822,-1.7539,-1.7739,0.0,0.0,0.0,0.0,0.0,0.0,0.0,0.0,0.0,-1.376,0.0,-1.3809,-1.3428,-1.3496,-1.3828,-1.4248,-1.4756,0.0,-1.5205,0.0,-1.6868,-1.7658,0.0,0.0,-1.8348,-1.9053,-1.835,-1.8193,-1.8545,-1.9053,-1.9566,-2.0043,-2.0438,-2.0586,-2.0674,-2.1551,-2.0689,-1.9062,-2.1051,-2.2327,-2.3075,-2.3136,-2.2593,-2.1199,0.0,0.0,0.0,0.0,0.0,0.0,0.0,-1.232,-1.2586,-1.2927,-1.2668,-1.1921,-1.051,-1.1159,-1.1843,-1.2286,-1.258,-1.3254,-1.4429,-1.4108,-1.3667,-1.3227,-1.2766,-1.2171,-1.1443,-1.0715,-1.0414,-1.0624,0.0,0.0,0.0,0.0,0.0,0.0,0.0,-1.0705,0.0,0.0,0.0,-1.1683,-1.1977,-1.2271,-1.2552,-1.2712,-1.2772,-1.2772,-1.2772,-1.2672,-1.2512,-1.2351,-1.2592,-1.3091,-1.3528,-1.4386,-1.5376,-1.6349,-1.6922,-1.7364,-1.7872,-1.8008,-1.8057,-1.8281,-1.8164,-1.8066,-1.8281,-1.833,-1.8271,-1.8057,-1.8184,-1.8135,-1.75,-1.8009,-1.7959,-1.6376,0.0,0.0,0.0,0.0,-1.4707,0.0,0.0,0.0,0.0,0.0,0.0,0.0,0.0,-1.4658,-1.5088,0.0,-1.54,0.0,0.0,0.0,-1.7978,0.0,-1.8428,-1.8623,-1.8428,-1.8437,-1.8592,-1.9316,-1.9727,-1.9941,-2.0381,-2.0566,-2.0615,-2.0814,-2.1081,-2.1397,-2.1239,-2.1971,-2.2793,-2.0269,-1.9301,-1.8965,0.0,-0.7174,0.0,0.0,-0.9646,0.0,-1.1313,-1.1497,-1.1722,-1.2303,-1.1507,-1.0311,-0.8846,-0.997,-1.0894,-1.1141,-1.1893,-1.2877,-1.4249,-1.3901,-1.3487,-1.3126,-1.2592,-1.2031,-1.1436,-1.0855,-1.0624,-1.0624,-1.0327,0.0,0.0,0.0,0.0,0.0,0.0,0.0,0.0,0.0,-1.139,-1.1897,-1.2184,-1.2445,-1.2685,-1.2993,-1.3073,-1.3039,-1.316,-1.3013,-1.2795,-1.2552,-1.2917,-1.3397,-1.3462,-1.4152,-1.5021,-1.579,-1.614,-1.6498,-1.7432,-1.7783,-1.7937,-1.8484,-1.8389,-1.8232,-1.8564,-1.8494,-1.8408,-1.8076,-1.8271,-1.837,-1.7893,-1.8369,-1.8396,-1.6972,-1.7225,0.0,0.0,0.0,-1.5166,0.0,0.0,0.0,-1.3936,-1.4131,-1.4453,0.0,0.0,0.0,-1.5391,0.0,0.0,0.0,0.0,-1.7373,-1.7646,0.0,-1.8477,-1.8418,-1.8564,-1.873,-1.8936,-1.9609,-1.9961,-2.0078,-2.042,-2.0674,-2.0819,-2.0541,-2.1541,-2.2872,-2.0997,-2.1095,-2.1779,-1.7409,-1.5835,-1.5832,0.0,0.0,0.0,0.0,0.0,0.0,-1.1467,-1.0725,-1.0181,-1.024,-1.0138,-0.9583,-0.8072,-0.796,-0.8753,-1.0641,-1.086,-1.1588,-1.3576,-1.3592,-1.3387,-1.2889,-1.2478,-1.2031,-1.1436,-1.0855,-1.0624,-1.0624,-1.0598,-1.0598,0.0,0.0,0.0,0.0,0.0,0.0,0.0,-1.1276,-1.1577,-1.1897,-1.2184,-1.2318,-1.2378,-1.2672,-1.2625,-1.2458,-1.3013,-1.3013,-1.2862,-1.3039,-1.2835,-1.2493,-1.277,-1.3326,-1.389,-1.3954,-1.4593,-1.5517,-1.6498,-1.6988,-1.7502,-1.8411,-1.8533,-1.8523,-1.8623,-1.834,-1.8057,-1.8018,-1.8037,-1.8299,-1.9003,-1.9404,-1.9499,-1.8884,-1.8558,0.0,0.0,0.0,-1.5381,-1.5303,0.0,0.0,-1.5195,-1.4922,-1.4893,-1.5322,-1.5352,0.0,0.0,0.0,0.0,-1.6115,-1.6543,-1.7353,-1.8506,-1.8223,-1.8633,-1.9727,-1.8994,-1.9043,-1.9795,-1.9883,-2.0127,-2.0508,-2.0547,-2.1016,-2.1797,-2.2087,-2.2629,-2.3076,-2.2828,-2.159,-1.9488,-1.6807,-1.5846,-1.5805,0.0,0.0,0.0,0.0,0.0,0.0,0.0,-0.9559,-0.8825,-0.8825,-0.8735,-0.8419,-0.7794,-0.7553,-0.8033,-0.9544,-1.0231,-1.1198,-1.2471,-1.3063,-1.3193,-1.2842,-1.2458,-1.2031,-1.1436,-1.1196,-1.0909,-1.0624,-1.0735,0.0,0.0,0.0,0.0,0.0,0.0,-1.1089,-1.1269,-1.157,-1.1764,-1.1931,-1.2585,-1.2739,-1.2625,-1.31,-1.31,-1.2899,-1.332,-1.328,-1.31,-1.3574,-1.322,-1.2592,-1.2788,-1.2839,-1.2952,-1.3528,-1.4386,-1.5497,-1.6652,-1.7315,-1.7938,-1.9064,-1.8828,-1.8398,-1.8906,-1.8691,-1.8311,-1.8057,-1.8008,-1.8144,-1.8462,-1.9086,-1.9222,-1.8459,-1.824,-1.7804,0.0,0.0,0.0,-1.5068,0.0,-1.4561,-1.5,-1.4648,-1.4678,-1.5361,0.0,0.0,0.0,0.0,0.0,-1.6115,0.0,-1.7109,-1.7881,-1.8223,-1.8643,-1.915,-1.9326,-1.958,-1.9922,-2.0185,-2.04,-2.0576,-2.085,-2.1318,-2.1924,-2.2344,-2.2754,-2.3076,-2.3133,-2.0692,-1.7135,-1.6195,-1.5772,-1.5812,-0.8221,0.0,-0.8566,0.0,-0.9032,-0.856,-0.9276,-0.8627,-0.8038,-0.8038,-0.7872,-0.7709,-0.7611,-0.7461,-0.7847,-0.8819,-0.9611,-1.0418,-1.1265,-1.1846,-1.2142,-1.224,-1.1874,0.0,-1.1563,-1.147,-1.1223,-1.0815,-1.1109,0.0,0.0,0.0,0.0,0.0,-1.1209,-1.1363,-1.157,-1.1784,-1.1917,-1.2051,-1.2685,-1.2812,-1.2748,-1.318,-1.32,-1.3006,-1.3474,-1.3454,-1.3287,-1.3788,-1.3534,-1.2993,-1.2913,-1.2679,-1.256,-1.3119,-1.381,-1.4649,-1.6206,-1.7044,-1.783,-1.919,-1.8955,-1.8506,-1.8994,-1.8769,-1.8369,-1.8076,-1.8008,-1.8076,-1.8337,-1.8921,-1.9101,-1.8488,-1.8131,-1.7711,-1.6806,-1.5944,0.0,-1.501,-1.4697,-1.4629,-1.4941,-1.4687,-1.4766,-1.5361,0.0,0.0,0.0,0.0,0.0,0.0,0.0,0.0,-1.7568,-1.8281,-1.8701,-1.8838,-1.957,-2.0049,-2.0312,-2.0625,-2.083,-2.0977,-2.1289,-2.167,-2.21,-2.2519,-2.2871,-2.3076,-2.3133,-2.0451,-1.65,-1.6522,-1.6202,-1.5812,-0.9698,-0.9989,-0.9989,-0.9993,-0.9993,-0.9505,-0.8233,-0.8038,-0.8038,-0.8038,-0.7784,-0.76,-0.76,-0.7461,-0.7847,-0.8819,-0.8803,-0.9029,-0.9877,-0.9825,-1.0065,0.0,0.0,-1.0844,-1.1864,-1.1577,-1.1423,-1.1416,-1.1717,0.0,-1.1423,0.0,-1.1703,-1.143,-1.173,-1.1864,-1.1864,-1.187,-1.2037,-1.2298,-1.2311,-1.2311,-1.2338,-1.2721,-1.2572,-1.2432,-1.3327,-1.3454,-1.3253,-1.3547,-1.3641,-1.3499,-1.3293,-1.2993,-1.2761,-1.2392,-1.2305,-1.2732,-1.4673,-1.5821,-1.6805,-1.8233,-1.8965,-1.916,-1.874,-1.832,-1.8018,-1.8008,-1.8008,-1.8269,-1.911,-1.9299,-1.9392,-1.9647,-1.8765,-1.7827,-1.7245,-1.6145,0.0,-1.54,-1.54,-1.54,-1.54,-1.54,0.0,0.0,0.0,0.0,0.0,0.0,0.0,-1.6709,-1.7148,0.0,-1.7998,-1.8428,-1.8857,-1.9287,-1.9707,-2.0371,-2.1221,-2.1221,-2.1465,-2.1865,-2.1875,-2.2119,-2.2539,-2.2959,-2.3135,-2.3076,-2.3133,-2.114,-1.8308,-1.8257,-1.7174,-1.5832,-0.8528,-0.8627,-0.8627,-0.8627,-0.8627,-0.8531,-0.8038,-0.8038,-0.8001,-0.7896,-0.7719,-0.756,-0.7455,-0.7305,-0.733,0.0,-0.8219,-0.8638,0.0,-0.9266,-1.006,-1.0795,-1.0707,-1.1028,-1.187,-1.1777,-1.163,-1.1423,0.0,0.0,0.0,-1.1824,-1.1817,-1.173,-1.183,-1.1977,-1.2164,-1.2164,-1.2218,-1.2318,-1.2525,-1.2485,-1.2338,-1.2708,-1.2761,-1.2721,-1.2926,-1.3106,-1.3227,-1.332,-1.348,-1.3512,-1.33,-1.2999,-1.2802,-1.2708,-1.2898,-1.3477,-1.4651,-1.5881,-1.7096,-1.7926,-1.8451,-1.8809,-1.8592,-1.8311,-1.8008,-1.8008,-1.8008,-1.8076,-1.8327,-1.8155,-1.8066,-1.8383,-1.7451,-1.6708,-1.6717,-1.5954,-1.541,-1.541,-1.5156,-1.5098,-1.5381,-1.5156,-1.5107,-1.5391,0.0,0.0,0.0,0.0,0.0,-1.6719,-1.7158,-1.7725,-1.8428,-1.8867,-1.9297,-1.9727,-2.0459,-2.1123,-2.168,-2.168,-2.1758,-2.1904,-2.2187,-2.2383,-2.2549,-2.2969,-2.3135,-2.3057,-2.3135,-2.1436,-1.9157,-1.9147,-1.7684,-1.5832,-0.8038,-0.8038,-0.8038,-0.8038,-0.8038,-0.8038,-0.8038,-0.7991,-0.7919,-0.7824,-0.7638,-0.7478,-0.7383,-0.7187,0.0,-0.6936,-0.7543,-0.78,-0.7433,-0.8064,-0.8822,-0.9664,-1.004,-1.0644,-1.1439,-1.188,0.0,-1.1757,-1.1937,-1.2031,-1.2031,-1.2031,-1.2031,-1.2031,-1.2031,-1.2131,-1.2305,-1.2305,-1.2305,-1.2318,-1.2505,-1.2472,-1.2318,-1.2512,-1.2579,-1.2592,-1.2782,-1.2872,-1.3033,-1.3033,-1.3233,-1.3427,-1.3126,-1.2979,-1.2919,-1.2919,-1.3154,-1.3503,-1.4357,-1.5681,-1.694,-1.7334,-1.7981,-1.8523,-1.8437,-1.8193,-1.8008,-1.8008,-1.8008,-1.8008,-1.8008,-1.7666,-1.7481,-1.762,-1.6755,-1.6147,-1.6331,-1.58,-1.541,-1.541,-1.5176,-1.5117,-1.5391,-1.5176,-1.5127,-1.5391,0.0,0.0,0.0,0.0,-1.6514,-1.6963,-1.7549,-1.8105,-1.8633,-1.9228,-1.9648,-1.9922,-2.0471,-2.1259,-2.2119,-2.1681,-2.1757,-2.2363,-2.2471,-2.2607,-2.2678,-2.2484,-2.2403,-2.2403,-2.1952,-2.0584,-1.8864,-1.8864,-1.7576,-1.5832,-0.8038,-0.8038,-0.8038,0.0,-0.8038,-0.8038,-0.8038,-0.7909,-0.7807,-0.7797,-0.755,-0.7363,-0.7343,-0.7092,-0.6919,-0.6898,0.0,0.0,-0.6468,-0.6335,-0.6718,-0.7783,-0.8765,-0.9744,-1.0783,-1.1774,-1.2305,-1.2305,-1.2305,-1.2305,-1.2305,-1.2305,-1.2305,-1.2305,-1.2305,-1.2305,-1.2305,-1.2305,-1.2305,-1.2305,-1.2305,-1.2305,-1.2305,-1.2305,-1.2311,-1.2365,-1.2625,-1.2802,-1.2822,-1.2802,-1.2919,-1.3133,-1.2866,-1.2979,-1.3213,-1.3213,-1.2986,-1.2974,-1.387,-1.5122,-1.6246,-1.6466,-1.7567,-1.8486,-1.8105,-1.8008,-1.8008,-1.8008,-1.8008,-1.7998,-1.7969,-1.7627,-1.7334,-1.7295,-1.6572,-1.6076,-1.6076,-1.5664,-1.541,-1.541,-1.5439,-1.5459,-1.5459,-1.5459,-1.5469,-1.5508,0.0,0.0,0.0,0.0,-1.7012,-1.7412,-1.8213,-1.8592,-1.8721,-1.9512,-1.9961,-2.0068,-2.0007,-2.0865,-2.2378,-2.1204,-2.1406,-2.2843,-2.2457,-2.2505,-2.2775,-2.1667,-2.1203,-2.1025,-1.9943,-1.8772,-1.7692,-1.7692,-1.685,-1.5832,0.0,0.0,-0.8038,-0.8038,-0.8038,-0.8038,-0.8038,-0.7909,-0.7773,-0.7662,-0.7489,-0.7285,-0.7058,-0.697,-0.6834,-0.66,-0.6549,-0.6464,-0.6322,-0.6281,-0.6718,-0.7783,-0.8765,-0.9744,-1.0783,-1.1774,-1.2305,-1.2305,-1.2305,-1.2305,-1.2305,-1.2305,-1.2305,-1.2305,-1.2305,-1.2305,-1.2305,-1.2305,-1.2305,-1.2305,-1.2305,-1.2305,-1.2305,-1.2305,-1.2445,-1.2694,-1.2465,-1.2552,-1.2788,-1.2485,-1.2605,-1.2886,-1.3053,-1.3153,-1.3213,-1.3213,-1.2986,-1.2822,-1.3044,-1.4501,-1.5855,-1.5627,-1.6866,-1.8135,-1.8037,-1.8008,-1.8008,-1.8008,-1.8008,-1.791,-1.7588,-1.7178,-1.6777,-1.6426,-1.5918,-1.5566,-1.5566,-1.5478,-1.541,-1.541,-1.5703,-1.5908,-1.5908,-1.5908,-1.6045,-1.6396,0.0,-1.6419,-1.7031,-1.7471,-1.7754,-1.7852,-1.8359,-1.8945,-1.9609,-1.9814,-2.042,-2.1426,-2.0421,-2.0567,-2.152,-2.0355,-1.9957,-2.0305,-2.0219,-2.0236,-2.0314,-2.0034,-1.9943,-1.9943,-1.9579,-1.8772,-1.7692,-1.7692,-1.685,-1.5832,-0.8038,-0.8038,-0.8038,-0.8038,-0.8038,-0.8018,-0.7946,-0.7811,-0.7662,-0.7516,-0.7363,-0.718,-0.6953,-0.6865,-0.6729,-0.6491,-0.6471,-0.6648,-0.6957,-0.6567,-0.6718,-0.7783,-0.8313,-0.9069,-1.0115,-1.1093,-1.1842,-1.2305,-1.2305,-1.2305,-1.2305,-1.2305,-1.2305,-1.2305,-1.2305,-1.2305,-1.2305,-1.2305,-1.2305,-1.2305,-1.2305,-1.2305,-1.2305,-1.2305,-1.2405,-1.2518,-1.2365,-1.2405,-1.2518,-1.2358,-1.2412,-1.2625,-1.3073,-1.3213,-1.3233,-1.3367,-1.3193,-1.3081,-1.3383,-1.4523,-1.5828,-1.6325,-1.7226,-1.8008,-1.8008,-1.8008,-1.8008,-1.8008,-1.8008,-1.7881,-1.7461,-1.7031,-1.6592,-1.6194,-1.5693,-1.541,-1.541,-1.541,-1.5488,-1.5684,-1.5918,-1.6143,-1.6348,-1.6367,-1.6465,-1.6655,-1.6875,0.0,-1.7646,-1.8262,-1.8506,-1.8301,-1.8896,-1.9443,-1.9912,-2.0312,-2.0977,-2.1885,-2.0233,-2.0088,-2.1203,-1.9497,-1.8956,-1.9497,-1.9497,-1.9497,-1.9497,-1.8864,-1.868,-1.8588,-1.8033,-1.7397,-1.6857,-1.6857,-1.6386,-1.5832,-0.8038,-0.8038,-0.8038,-0.8038,-0.8021,-0.796,-0.7831,-0.7672,-0.7519,-0.739,-0.7238,-0.7085,-0.6946,-0.6793,-0.6637,-0.6485,-0.6454,-0.6856,-0.7714,-0.6872,-0.6718,-0.7783,-0.7783,-0.8237,-0.9301,-1.0415,-1.1391,-1.207,-1.2224,-1.2224,-1.2077,-1.2224,-1.2305,-1.2298,-1.215,-1.207,-1.207,-1.207,-1.207,-1.2077,-1.2224,-1.2305,-1.2305,-1.2305,-1.2331,-1.2371,-1.2371,-1.2398,-1.2438,-1.2438,-1.2438,-1.2538,-1.31,-1.3247,-1.326,-1.3507,-1.3407,-1.3297,-1.3889,-1.4782,-1.5905,-1.7379,-1.7862,-1.8008,-1.8008,-1.8008,-1.8008,-1.8008,-1.8008,-1.7861,-1.7373,-1.6982,-1.6562,-1.6045,-1.5654,-1.541,-1.541,-1.541,-1.5566,-1.6066,-1.6123,-1.6367,-1.6875,-1.6924,-1.6973,-1.7109,-1.7734,-1.8135,-1.8203,-1.9014,-1.9316,-1.8936,-1.957,-1.9895,-1.9869,-2.0839,-2.1461,-2.1723,-1.9774,-1.958,-2.0935,-1.8495,-1.7948,-1.8948,-1.8948,-1.8948,-1.8856,-1.7863,-1.7412,-1.7318,-1.6197,-1.5832,-1.5832,-1.5832,-1.5832,-1.5832,-0.8038,-0.8038,-0.8038,-0.8038,-0.7933,-0.7838,-0.7814,-0.758,-0.7397,-0.7373,-0.7238,-0.7085,-0.6946,-0.6793,-0.6637,-0.6485,-0.6363,-0.6743,-0.771,-0.6872,-0.6718,-0.7783,-0.7783,-0.8237,-0.9301,-1.1099,-1.1694,-1.1013,-1.1848,-1.1848,-1.1087,-1.1922,-1.2305,-1.2224,-1.1391,-1.1013,-1.1013,-1.1013,-1.1013,-1.1087,-1.1996,-1.2305,-1.2305,-1.2305,-1.2458,-1.2755,-1.2755,-1.2846,-1.3066,-1.3066,-1.3066,-1.3133,-1.3467,-1.3407,-1.322,-1.3267,-1.3247,-1.314,-1.3056,-1.4096,-1.5513,-1.6585,-1.7432,-1.8008,-1.8008,-1.8008,-1.8008,-1.8008,-1.8008,-1.7764,-1.6982,-1.6777,-1.6465,-1.5644,-1.5459,-1.541,-1.541,-1.541,-1.5566,-1.6066,-1.6396,-1.6943,-1.7734,-1.7812,-1.8115,-1.8838,-1.8672,-1.8701,-1.9072,-1.9902,-2.0332,-2.0264,-2.0039,-1.9783,-1.9507,-2.1014,-2.1473,-2.0893,-1.9553,-1.9239,-1.967,-1.7203,-1.6197,-1.6379,-1.6379,-1.6379,-1.6379,-1.6197,-1.6109,-1.6109,-1.5927,-1.5832,-1.5832,-1.5832,-1.5832,-1.5832,-0.8038,-0.8038,-0.8038,-0.8038,-0.7913,-0.7784,-0.7709,-0.7512,-0.7343,-0.7258,-0.7183,-0.7054,-0.6831,-0.6742,-0.6607,-0.638,-0.6298,-0.6718,-0.7706,-0.7403,-0.7326,-0.7783,-0.7783,-0.8237,-0.9301,-1.1248,-1.1842,-1.0783,-1.1842,-1.1774,-1.0783,-1.1848,-1.2305,-1.2224,-1.1242,-1.0783,-1.0783,-1.019,-1.0265,-1.0858,-1.1316,-1.1848,-1.2318,-1.2478,-1.2701,-1.2842,-1.2933,-1.3086,-1.3213,-1.3213,-1.3213,-1.326,-1.3554,-1.3554,-1.3474,-1.3634,-1.3732,-1.369,-1.3611,-1.4851,-1.6279,-1.6551,-1.7285,-1.8008,-1.8008,-1.8008,-1.8008,-1.8008,-1.8008,-1.7822,-1.7197,-1.6894,-1.6523,-1.5869,-1.5566,-1.5498,-1.5732,-1.5762,-1.6094,-1.7002,-1.7295,-1.7754,-1.8613,-1.8691,-1.8867,-1.9258,-1.9531,-1.9766,-1.9971,-2.0576,-2.1035,-2.1269,-2.0396,-1.9887,-1.9758,-2.0772,-2.1068,-2.0716,-1.9686,-1.9331,-1.9405,-1.6929,-1.5832,-1.5832,-1.5832,-1.5832,-1.5832,-1.5832,-1.5832,-1.5832,-1.5832,-1.5832,-1.5832,-1.5832,-1.5832,-1.5832,-0.8038,-0.8038,-0.8038,-0.8038,-0.7885,-0.7726,-0.7614,-0.7441,-0.7275,-0.7156,-0.7139,-0.7041,-0.678,-0.6722,-0.6597,-0.6332,-0.6281,-0.6641,-0.7403,-0.7859,-0.8008,-0.7783,-0.7783,-0.8237,-0.9301,-1.1025,-1.1465,-1.0415,-1.1764,-1.1795,-1.0576,-1.1865,-1.2355,-1.2041,-1.0982,-1.0377,-1.0117,-0.9311,-0.9469,-1.0275,-1.0737,-1.1432,-1.2149,-1.2682,-1.2899,-1.2986,-1.3227,-1.3353,-1.3414,-1.3414,-1.3414,-1.3454,-1.3674,-1.3701,-1.3687,-1.3915,-1.4051,-1.4081,-1.4001,-1.5263,-1.6641,-1.6316,-1.7148,-1.8008,-1.8008,-1.8008,-1.8008,-1.8008,-1.8008,-1.7881,-1.7461,-1.7109,-1.6738,-1.6289,-1.5937,-1.5869,-1.637,-1.6429,-1.6816,-1.8018,-1.8154,-1.8496,-1.9346,-1.9434,-1.9473,-1.958,-2.0293,-2.0635,-2.0311,-2.107,-2.1564,-2.1719,-2.0743,-1.9992,-1.9736,-2.0218,-2.0404,-2.0413,-1.9545,-1.9222,-1.9405,-1.6929,-1.5832,-1.5832,-1.5832,-1.5832,-1.5832,-1.5832,-1.5832,-1.5832,-1.5832,-1.5832,-1.5832,-1.5832,-1.5832,-1.5832,-0.8038,-0.8038,-0.8038,-0.8038,-0.7804,-0.7611,-0.76,-0.7346,-0.7153,-0.7143,-0.7139,-0.7082,-0.6929,-0.6783,-0.6634,-0.6471,-0.6335,-0.6338,-0.6412,-0.8161,-0.877,-0.7859,-0.7783,-0.8237,-0.9301,-1.034,-1.0415,-0.9448,-1.1657,-1.1775,-0.9839,-1.2054,-1.2568,-1.15,-1.032,-0.9236,-0.8354,-0.8179,-0.8205,-0.8611,-1.0621,-1.1505,-1.1677,-1.2758,-1.3347,-1.3581,-1.3519,-1.3788,-1.4021,-1.4021,-1.4021,-1.4028,-1.4048,-1.3868,-1.3566,-1.3667,-1.3627,-1.3595,-1.3326,-1.447,-1.5609,-1.5396,-1.6655,-1.8008,-1.8008,-1.8008,-1.8008,-1.8008,-1.8008,-1.7881,-1.7461,-1.7363,-1.7197,-1.6748,-1.666,-1.6787,-1.7227,-1.7285,-1.7607,-1.8486,-1.8594,-1.8926,-1.9785,-1.9873,-2.0039,-2.0439,-2.0918,-2.068,-1.958,-2.1351,-2.2064,-2.138,-2.086,-2.0053,-1.891,-1.9355,-1.9637,-1.9546,-1.8403,-1.8411,-1.9405,-1.6929,-1.5832,-1.5832,-1.5832,-1.5832,-1.5832,-1.5832,-1.5832,-1.5832,-1.5832,-1.5832,-1.5832,-1.5832,-1.5832,-1.5832,-0.8038,-0.8038,-0.8038,-0.8038,-0.7794,-0.76,-0.76,-0.7339,-0.7139,-0.7139,-0.7139,-0.7051,-0.6814,-0.6736,-0.6603,-0.6363,-0.6291,-0.6338,-0.6338,-0.7629,-0.8466,-0.8689,-0.8161,-0.8237,-0.9301,-1.0265,-1.0338,-0.9416,-1.0889,-1.0554,-0.8677,-1.0727,-1.1171,-1.0087,-0.9689,-0.8927,-0.7915,-0.7327,-0.7453,-0.8163,-0.9085,-1.0272,-1.1582,-1.2158,-1.2876,-1.3667,-1.3854,-1.3988,-1.4088,-1.4088,-1.4088,-1.4088,-1.4088,-1.4008,-1.3915,-1.3915,-1.3915,-1.3854,-1.3561,-1.4628,-1.5732,-1.5312,-1.6585,-1.8008,-1.8008,-1.8008,-1.8008,-1.8008,-1.8008,-1.7959,-1.7803,-1.7559,-1.7412,-1.751,-1.7305,-1.7373,-1.8066,-1.8154,-1.8477,-1.9326,-1.9668,-2.0068,-2.0674,-2.0732,-2.0908,-2.1348,-2.1543,-2.1234,-2.0256,-2.0438,-2.0332,-1.9775,-1.9151,-1.8573,-1.8125,-1.8257,-1.8411,-1.8411,-1.7963,-1.7963,-1.8319,-1.6567,-1.5832,-1.5832,-1.5832,-1.5832,-1.5832,-1.5832,-1.5832,-1.5832,-1.5832,-1.5832,-1.5832,-1.5832,-1.5832,-1.5832,-0.8038,-0.8038,-0.8038,-0.8038,-0.7794,-0.76,-0.76,-0.7339,-0.7139,-0.7139,-0.7139,-0.7048,-0.68,-0.6729,-0.66,-0.6349,-0.6288,-0.6338,-0.6338,-0.6949,-0.7783,-0.877,-0.7859,-0.7783,-0.8841,-0.9513,-0.9774,-0.9536,-1.0155,-0.9885,-0.8688,-1.0025,-1.0076,-0.913,-0.9,-0.8429,-0.7572,-0.6862,-0.7001,-0.7749,-0.8205,-0.9331,-1.0755,-1.1327,-1.2242,-1.3201,-1.3484,-1.3822,-1.4088,-1.4088,-1.4088,-1.4088,-1.4088,-1.4088,-1.4088,-1.4088,-1.4088,-1.4021,-1.3728,-1.4656,-1.5618,-1.5364,-1.6456,-1.7647,-1.794,-1.8008,-1.8008,-1.8008,-1.8115,-1.8213,-1.8213,-1.8086,-1.8076,-1.8359,-1.8174,-1.8232,-1.8936,-1.9033,-1.9355,-2.0225,-2.0596,-2.0947,-2.1396,-2.1445,-2.1562,-2.1865,-2.1659,-2.1202,-2.0351,-1.9447,-1.8752,-1.8505,-1.7926,-1.7505,-1.7131,-1.7131,-1.7318,-1.7692,-1.7318,-1.7318,-1.7692,-1.6386,-1.5832,-1.5832,-1.5832,-1.5832,-1.5832,-1.5832,-1.5832,-1.5832,-1.5832,-1.5832,-1.5832,-1.5832,-1.5832,-1.5832,-0.8038,-0.8038,-0.8038,-0.8038,-0.7794,-0.76,-0.76,-0.7339,-0.7139,-0.7139,-0.7139,-0.7085,-0.6943,-0.6793,-0.6637,-0.6485,-0.6342,-0.6338,-0.6338,-0.6338,-0.6718,-0.7783,-0.6795,-0.6795,-0.7783,-0.7783,-0.8408,-0.9703,-0.9703,-0.9815,-1.0196,-1.0196,-0.9659,-0.867,-0.838,-0.7789,-0.7115,-0.6824,-0.6871,-0.7228,-0.8364,-0.889,-0.9061,-1.0183,-1.1295,-1.2322,-1.2328,-1.3033,-1.4088,-1.4088,-1.4088,-1.4088,-1.4088,-1.4088,-1.4088,-1.4088,-1.4088,-1.4021,-1.3728,-1.4353,-1.514,-1.5509,-1.6065,-1.6853,-1.7803,-1.8008,-1.8008,-1.8018,-1.828,-1.8572,-1.8572,-1.8994,-1.9287,-1.9287,-1.9287,-1.9443,-1.9863,-1.9847,-2.0177,-2.1053,-2.116,-2.1335,-2.1846,-2.1894,-2.1894,-2.1894,-2.1126,-2.036,-1.9563,-1.8319,-1.7692,-1.7692,-1.7692,-1.7037,-1.5825,-1.5832,-1.6386,-1.7692,-1.6386,-1.648,-1.7591,-1.6386,-1.5832,-1.5832,-1.5832,-1.5832,-1.5832,-1.5832,-1.5832,-1.5832,-1.5832,-1.5832,-1.5832,-1.5832,-1.5832,-1.5832,-0.7962,-0.7962,-0.7959,-0.8041,-0.7794,-0.76,-0.76,-0.7339,-0.7139,-0.7139,-0.7139,-0.7044,-0.6797,-0.6729,-0.66,-0.6346,-0.6285,-0.6338,-0.6338,-0.6338,-0.6412,-0.6718,-0.649,-0.6795,-0.7783,-0.7783,-0.8408,-0.9536,-0.8773,-0.8498,-0.8684,-0.8553,-0.7977,-0.7009,-0.7728,-0.7584,-0.6678,-0.6807,-0.6912,-0.7,-0.745,-0.8105,-0.8978,-0.9235,-1.0091,-1.1209,-1.198,-1.2504,-1.2942,-1.3822,-1.4088,-1.4088,-1.4088,-1.4088,-1.4088,-1.4088,-1.4088,-1.4068,-1.3981,-1.396,-1.4125,-1.4547,-1.5251,-1.6186,-1.7222,-1.7213,-1.7158,-1.7677,-1.7596,-1.7334,-1.685,-1.6914,-1.7078,-1.7423,-1.7466,-1.77,-1.8368,-1.8455,-1.8555,-1.9056,-1.935,-1.9989,-2.0973,-2.0285,-2.0218,-2.1379,-1.9723,-1.8485,-1.8226,-1.703,-1.6386,-1.6386,-1.6386,-1.6204,-1.5832,-1.5832,-1.6015,-1.6386,-1.6015,-1.6015,-1.6386,-1.6015,-1.5832,-1.5832,-1.5832,-1.5832,-1.5832,-1.5832,-1.5832,-1.5832,-1.5832,-1.5832,-1.5832,-1.5832,-1.5832,-1.5832,-0.715,-0.7559,-0.7965,-0.8041,-0.7794,-0.76,-0.76,-0.7339,-0.7139,-0.7139,-0.7139,-0.7051,-0.6817,-0.6736,-0.6603,-0.6366,-0.6291,-0.6338,-0.6338,-0.6338,-0.6338,-0.6338,-0.6338,-0.6567,-0.7173,-0.7305,-0.7861,-0.8992,-0.7861,-0.7556,-0.8045,-0.7484,-0.6902,-0.6428,-0.7058,-0.7097,-0.6664,-0.6851,-0.6959,-0.7021,-0.7105,-0.7577,-0.8193,-0.8193,-0.8886,-1.0009,-1.0697,-1.1209,-1.1815,-1.3033,-1.373,-1.4088,-1.4088,-1.4008,-1.3935,-1.4055,-1.4001,-1.3935,-1.4055,-1.3955,-1.3783,-1.3923,-1.4599,-1.5466,-1.6507,-1.6546,-1.6512,-1.6914,-1.694,-1.6723,-1.6324,-1.6411,-1.6583,-1.6883,-1.6916,-1.7072,-1.7524,-1.7713,-1.7935,-1.8202,-1.8649,-1.9187,-2.013,-1.9516,-1.9347,-1.9835,-1.8503,-1.7505,-1.6951,-1.6197,-1.5832,-1.5832,-1.5832,-1.5832,-1.5832,-1.5832,-1.5832,-1.5832,-1.5832,-1.5832,-1.5832,-1.5832,-1.5832,-1.5832,-1.5832,-1.5832,-1.5832,-1.5832,-1.5832,-1.5832,-1.5832,-1.5832,-1.5832,-1.5832,-1.5832,-1.5832,-0.5625,-0.6736,-0.7949,-0.8024,-0.7777,-0.758,-0.758,-0.7329,-0.7139,-0.7139,-0.7129,-0.7065,-0.6922,-0.6773,-0.662,-0.6468,-0.6335,-0.6338,-0.6338,-0.6338,-0.6338,-0.6338,-0.6274,-0.6352,-0.6338,-0.6536,-0.7252,-0.8269,-0.7099,-0.7096,-0.8265,-0.6939,-0.6329,-0.6454,-0.6481,-0.6647,-0.6909,-0.6936,-0.7021,-0.7139,-0.7139,-0.7139,-0.7139,-0.7139,-0.7753,-0.8715,-0.889,-0.9579,-1.0611,-1.1895,-1.3118,-1.4088,-1.4088,-1.3901,-1.3734,-1.4008,-1.3895,-1.3741,-1.4015,-1.4088,-1.4021,-1.3748,-1.4104,-1.4799,-1.5758,-1.5871,-1.5863,-1.5928,-1.6256,-1.6553,-1.6499,-1.6814,-1.7057,-1.7057,-1.709,-1.7114,-1.7155,-1.7355,-1.7685,-1.8127,-1.8354,-1.8766,-1.9281,-1.9314,-1.8864,-1.7591,-1.7505,-1.7037,-1.5825,-1.5832,-1.5832,-1.5832,-1.5832,-1.5832,-1.5832,-1.5832,-1.5832,-1.5832,-1.5832,-1.5832,-1.5832,-1.5832,-1.5832,-1.5832,-1.5832,-1.5832,-1.5832,-1.5832,-1.5832,-1.5832,-1.5832,-1.5832,-1.5832,-1.5832,-1.5832,-1.5832,-0.4418,-0.6174,-0.771,-0.7865,-0.7617,-0.7421,-0.7421,-0.7261,-0.7139,-0.7139,-0.7044,-0.6915,-0.6766,-0.6614,-0.6464,-0.6318,-0.6278,-0.6338,-0.6338,-0.6338,-0.6338,-0.6338,-0.6366,-0.6373,-0.6342,-0.643,-0.7395,-0.9066,-0.7356,-0.7352,-0.8985,-0.7192,-0.6355,-0.6318,-0.6549,-0.6688,-0.6766,-0.6997,-0.7112,-0.7139,-0.7139,-0.7139,-0.7139,-0.7139,-0.7228,-0.7577,-0.854,-0.9061,-0.9579,-1.1638,-1.3118,-1.4088,-1.4088,-1.4041,-1.4001,-1.4068,-1.4041,-1.4008,-1.4068,-1.4088,-1.4075,-1.4008,-1.4102,-1.4392,-1.5245,-1.5139,-1.5093,-1.5617,-1.5579,-1.5292,-1.4752,-1.4888,-1.5091,-1.5091,-1.5301,-1.5539,-1.5784,-1.5868,-1.6029,-1.633,-1.642,-1.6858,-1.7948,-1.8048,-1.7591,-1.6298,-1.6204,-1.6109,-1.5825,-1.5832,-1.5832,-1.5832,-1.5832,-1.5832,-1.5832,-1.5832,-1.5832,-1.5832,-1.5832,-1.5832,-1.5832,-1.5832,-1.5832,-1.5832,-1.5832,-1.5832,-1.5832,-1.5832,-1.5832,-1.5832,-1.5832,-1.5832,-1.5832,-1.5832,-1.5832,-1.5832,-0.5732,-0.6854,-0.7654,-0.7818,-0.7567,-0.737,-0.737,-0.7241,-0.7139,-0.7139,-0.7075,-0.6946,-0.6725,-0.6627,-0.6495,-0.6281,-0.6338,-0.6338,-0.6338,-0.6338,-0.6338,-0.6338,-0.6332,-0.6335,-0.6342,-0.64,-0.695,-0.7859,-0.695,-0.6942,-0.7859,-0.6795,-0.6338,-0.6352,-0.6569,-0.6702,-0.6719,-0.7014,-0.7139,-0.7139,-0.7139,-0.7139,-0.7139,-0.7139,-0.7139,-0.7139,-0.7841,-0.8798,-0.9923,-1.1128,-1.2687,-1.4088,-1.4088,-1.3988,-1.3901,-1.4048,-1.3988,-1.3908,-1.4048,-1.4088,-1.4122,-1.4262,-1.4295,-1.4385,-1.4648,-1.4533,-1.4547,-1.5014,-1.4986,-1.4726,-1.4536,-1.4629,-1.473,-1.473,-1.4863,-1.5017,-1.517,-1.5311,-1.5451,-1.5605,-1.5745,-1.6015,-1.6763,-1.6756,-1.648,-1.5825,-1.5832,-1.5832,-1.5832,-1.5832,-1.5832,-1.5832,-1.5832,-1.5832,-1.5832,-1.5832,-1.5832,-1.5832,-1.5832,-1.5832,-1.5832,-1.5832,-1.5832,-1.5832,-1.5832,-1.5832,-1.5832,-1.5832,-1.5832,-1.5832,-1.5832,-1.5832,-1.5832,-1.5832,-1.5832,-1.5832,-0.7633,-0.7811,-0.7691,-0.7743,-0.7512,-0.7333,-0.7333,-0.7221,-0.7139,-0.7139,-0.7119,-0.701,-0.6766,-0.6695,-0.6563,-0.6318,-0.6274,-0.6338,-0.6338,-0.6338,-0.6338,-0.6338,-0.6338,-0.6349,-0.6295,-0.6413,-0.6479,-0.6567,-0.6479,-0.6555,-0.6567,-0.6416,-0.6352,-0.6308,-0.658,-0.6715,-0.6756,-0.7027,-0.7139,-0.7139,-0.7139,-0.7139,-0.7139,-0.7139,-0.7139,-0.7139,-0.7139,-0.8615,-1.0611,-1.0611,-1.2169,-1.4088,-1.4088,-1.3915,-1.3768,-1.4015,-1.3915,-1.3774,-1.4021,-1.4088,-1.4155,-1.4449,-1.4522,-1.4469,-1.4282,-1.4235,-1.4309,-1.4549,-1.4596,-1.4669,-1.4917,-1.5003,-1.5037,-1.5037,-1.5077,-1.511,-1.511,-1.5317,-1.5471,-1.5471,-1.5678,-1.5832,-1.5832,-1.5832,-1.5832,-1.5832,-1.5832,-1.5832,-1.5832,-1.5832,-1.5832,-1.5832,-1.5832,-1.5832,-1.5832,-1.5832,-1.5832,-1.5832,-1.5832,-1.5832,-1.5832,-1.5832,-1.5832,-1.5832,-1.5832,-1.5832,-1.5832,-1.5832,-1.5832,-1.5832,-1.5832,-1.5832,-1.5832,-1.5832,-1.5832,-1.5832,-0.7703,-0.7555,-0.7409,-0.7455,-0.7288,-0.7173,-0.7173,-0.7153,-0.7139,-0.7139,-0.7034,-0.6943,-0.6902,-0.6661,-0.6485,-0.6447,-0.6332,-0.6338,-0.6338,-0.6338,-0.6338,-0.6338,-0.6338,-0.6318,-0.6441,-0.6461,-0.6871,-0.7629,-0.6871,-0.6867,-0.7557,-0.6718,-0.6325,-0.6451,-0.6624,-0.6773,-0.6909,-0.7071,-0.7139,-0.7139,-0.7139,-0.7139,-0.7139,-0.7139,-0.7139,-0.7139,-0.7139,-0.8615,-1.0611,-1.0611,-1.2169,-1.4088,-1.4088,-1.4062,-1.4035,-1.4075,-1.4055,-1.4035,-1.4075,-1.4088,-1.4155,-1.4449,-1.4522,-1.4576,-1.4796,-1.485,-1.4856,-1.4897,-1.4903,-1.4917,-1.4957,-1.517,-1.5337,-1.5337,-1.5545,-1.5712,-1.5712,-1.5745,-1.5772,-1.5772,-1.5805,-1.5832,-1.5832,-1.5832,-1.5832,-1.5832,-1.5832,-1.5832,-1.5832,-1.5832,-1.5832,-1.5832,-1.5832,-1.5832,-1.5832,-1.5832,-1.5832,-1.5832,-1.5832,-1.5832,-1.5832,-1.5832,-1.5832,-1.5832,-1.5832,-1.5832,-1.5832,-1.5832,-1.5832,-1.5832,-1.5832,-1.5832,-1.5832,-1.5832,-1.5832,-1.5832,-0.9761,-0.9669,-0.9477,-0.9375,-0.9181,-0.9052,-0.9052,-0.8536,-0.8105,-0.8105,-0.8043,-0.7703,-0.7022,-0.6654,-0.6471,-0.6471,-0.6342,-0.6338,-0.6338,-0.6338,-0.6338,-0.6338,-0.6335,-0.641,-0.6471,-0.6556,-0.681,-0.7221,-0.681,-0.676,-0.7077,-0.6613,-0.6369,-0.6366,-0.6597,-0.6736,-0.6817,-0.7044,-0.7139,-0.7139,-0.7139,-0.7139,-0.7139,-0.7139,-0.7139,-0.7228,-0.7841,-0.9144,-1.0697,-1.1295,-1.2687,-1.4088,-1.4088,-1.4088,-1.4088,-1.4088,-1.4088,-1.4122,-1.4282,-1.4329,-1.4436,-1.4897,-1.501,-1.5084,-1.5384,-1.5444,-1.5398,-1.5237,-1.5204,-1.5257,-1.5418,-1.5551,-1.5638,-1.5638,-1.5745,-1.5832,-1.5832,-1.5832,-1.5832,-1.5832,-1.5832,-1.5832,-1.5832,-1.5832,-1.5832,-1.5832,-1.5832,-1.5832,-1.5832,-1.5832,-1.5832,-1.5832,-1.5832,-1.5832,-1.5832,-1.5832,-1.5832,-1.5832,-1.5832,-1.5832,-1.5832,-1.5832,-1.5832,-1.5832,-1.5832,-1.5832,-1.5832,-1.5832,-1.5832,-1.5832,-1.5832,-1.5832,-1.5832,-1.5832,-1.5832,-1.5832]}]]